[[{"header":{"parameterUnit":"m.s-1","parameterCategory":1,"la1":30.6,"la2":29.2853,"lo1":-89.7004,"lo2":-87.6739,"dy":0.0162,"dx":0.0183,"nx":112,"ny":82,"refTime":"2023-07-23T18:00:00:Z","depth":0,"parameterNumber":2,"parameterNumberName":"U-component_of_WINDS"},"data":[0.0,0.0,0.0,0.0,0.0,0.0,0.0,0.0,0.0,0.0,0.0,0.0,0.0,0.0,0.0,0.0,0.0,0.0,0.0,0.0,0.0,0.0,0.0,0.0,0.0,0.0,0.0,0.0,0.0,0.0,0.0,0.0,0.0,0.0,0.0,0.0,0.0,0.0,0.0,0.0,0.0,0.0,0.0,0.0,0.0,0.0,0.0,0.0,0.0,0.0,0.0,0.0,0.0,0.0,0.0,0.0,0.0,0.0,0.0,0.0,0.0,0.0,0.0,0.0,0.0,0.0,0.0,0.0,0.0,0.0,0.0,0.0,0.0,0.0,0.0,0.0,0.0,0.0,0.0,0.0,0.0,0.0,0.0,0.0,0.0,0.0,0.0,0.0,0.0,0.0,0.0,-3.3823,-3.3802,-3.3707,-3.3652,-3.3694,-3.303,-3.1362,0.0,0.0,0.0,0.0,0.0,0.0,0.0,0.0,0.0,0.0,0.0,0.0,0.0,0.0,0.0,0.0,0.0,0.0,0.0,0.0,0.0,0.0,0.0,0.0,0.0,0.0,0.0,0.0,0.0,0.0,0.0,0.0,0.0,0.0,0.0,0.0,0.0,0.0,0.0,0.0,0.0,0.0,0.0,0.0,0.0,0.0,0.0,0.0,0.0,0.0,0.0,0.0,0.0,0.0,0.0,0.0,0.0,0.0,0.0,0.0,0.0,0.0,0.0,0.0,0.0,0.0,0.0,0.0,0.0,0.0,0.0,0.0,0.0,0.0,0.0,0.0,0.0,0.0,0.0,0.0,0.0,0.0,0.0,0.0,0.0,0.0,0.0,0.0,0.0,0.0,0.0,0.0,0.0,0.0,0.0,0.0,0.0,0.0,0.0,0.0,0.0,0.0,0.0,0.0,-3.2299,-3.3386,-3.3419,-3.3258,-3.2968,-3.3214,-3.2589,-3.0761,0.0,0.0,0.0,0.0,0.0,0.0,0.0,0.0,0.0,0.0,0.0,0.0,0.0,0.0,0.0,0.0,0.0,0.0,0.0,0.0,0.0,0.0,0.0,0.0,0.0,0.0,0.0,0.0,0.0,0.0,0.0,0.0,0.0,0.0,0.0,0.0,0.0,0.0,0.0,0.0,0.0,0.0,0.0,0.0,0.0,0.0,0.0,0.0,0.0,0.0,0.0,0.0,0.0,0.0,0.0,0.0,0.0,0.0,0.0,0.0,0.0,0.0,0.0,0.0,0.0,0.0,0.0,0.0,0.0,0.0,0.0,0.0,0.0,0.0,0.0,0.0,0.0,0.0,0.0,0.0,0.0,0.0,0.0,0.0,0.0,0.0,0.0,0.0,0.0,0.0,0.0,0.0,0.0,0.0,0.0,0.0,0.0,0.0,0.0,0.0,0.0,0.0,0.0,-3.1918,-3.2472,-3.3028,-3.3214,-3.3154,-3.2827,-3.2937,-3.2307,-3.06,-3.0341,0.0,0.0,0.0,0.0,0.0,0.0,0.0,0.0,0.0,0.0,0.0,0.0,0.0,0.0,0.0,0.0,0.0,0.0,0.0,0.0,0.0,0.0,0.0,0.0,0.0,0.0,0.0,0.0,0.0,0.0,0.0,0.0,0.0,0.0,0.0,0.0,0.0,0.0,0.0,0.0,0.0,0.0,0.0,0.0,0.0,0.0,0.0,0.0,0.0,0.0,0.0,0.0,0.0,0.0,0.0,0.0,0.0,0.0,0.0,0.0,0.0,0.0,0.0,0.0,0.0,0.0,0.0,0.0,0.0,0.0,0.0,0.0,0.0,0.0,0.0,0.0,0.0,0.0,0.0,0.0,0.0,0.0,0.0,0.0,0.0,0.0,0.0,0.0,0.0,0.0,0.0,0.0,0.0,0.0,0.0,0.0,0.0,0.0,0.0,0.0,0.0,0.0,-3.2496,-3.283,-3.2693,-3.2908,-3.2923,-3.2602,-3.2492,-3.1799,-3.0355,-2.998,0.0,0.0,0.0,0.0,0.0,0.0,0.0,0.0,0.0,0.0,0.0,0.0,0.0,0.0,0.0,0.0,0.0,0.0,0.0,0.0,0.0,0.0,0.0,0.0,0.0,0.0,0.0,0.0,0.0,0.0,0.0,0.0,0.0,0.0,0.0,0.0,0.0,0.0,0.0,0.0,0.0,0.0,0.0,0.0,0.0,0.0,0.0,0.0,0.0,0.0,0.0,0.0,0.0,0.0,0.0,0.0,0.0,0.0,0.0,0.0,0.0,0.0,0.0,0.0,0.0,0.0,0.0,0.0,0.0,0.0,0.0,0.0,0.0,0.0,0.0,0.0,0.0,0.0,0.0,0.0,0.0,0.0,0.0,0.0,0.0,0.0,0.0,0.0,0.0,0.0,0.0,0.0,0.0,0.0,0.0,0.0,0.0,0.0,0.0,0.0,0.0,0.0,-3.2498,-3.3153,-3.242,-3.2369,-3.2231,-3.1893,-3.1533,-3.0814,-2.9626,-2.9422,0.0,0.0,0.0,0.0,0.0,0.0,0.0,0.0,0.0,0.0,0.0,0.0,0.0,0.0,0.0,0.0,0.0,0.0,0.0,0.0,0.0,0.0,0.0,0.0,0.0,0.0,0.0,0.0,0.0,0.0,0.0,0.0,0.0,0.0,0.0,0.0,0.0,0.0,0.0,0.0,0.0,0.0,0.0,0.0,0.0,0.0,0.0,0.0,0.0,0.0,0.0,0.0,0.0,0.0,0.0,0.0,0.0,0.0,0.0,0.0,0.0,0.0,0.0,0.0,0.0,0.0,0.0,0.0,0.0,0.0,0.0,0.0,0.0,0.0,0.0,0.0,0.0,0.0,0.0,0.0,0.0,0.0,0.0,0.0,0.0,0.0,0.0,0.0,0.0,0.0,0.0,0.0,0.0,0.0,0.0,0.0,0.0,0.0,0.0,0.0,0.0,0.0,-3.2216,-3.2869,0.0,-3.2519,-3.2436,-3.1838,-3.1651,-3.0994,-2.9592,0.0,0.0,0.0,0.0,0.0,0.0,0.0,0.0,0.0,0.0,0.0,0.0,0.0,0.0,0.0,0.0,0.0,0.0,0.0,0.0,0.0,0.0,0.0,0.0,0.0,0.0,0.0,0.0,0.0,0.0,0.0,0.0,0.0,0.0,0.0,0.0,0.0,0.0,0.0,0.0,0.0,0.0,0.0,0.0,0.0,0.0,0.0,0.0,0.0,0.0,0.0,0.0,0.0,0.0,0.0,0.0,0.0,0.0,0.0,0.0,0.0,0.0,0.0,0.0,0.0,0.0,0.0,0.0,0.0,0.0,0.0,0.0,0.0,0.0,0.0,0.0,0.0,0.0,0.0,0.0,0.0,0.0,0.0,0.0,0.0,0.0,0.0,0.0,0.0,0.0,0.0,0.0,0.0,0.0,0.0,0.0,0.0,0.0,0.0,0.0,0.0,0.0,-3.1018,-3.2193,-3.2885,0.0,-3.2617,-3.2502,-3.202,-3.1667,-3.0886,-2.9592,0.0,0.0,0.0,0.0,0.0,0.0,0.0,0.0,0.0,0.0,0.0,0.0,0.0,0.0,0.0,0.0,0.0,0.0,0.0,0.0,0.0,0.0,0.0,0.0,0.0,0.0,0.0,0.0,0.0,0.0,0.0,0.0,0.0,0.0,0.0,0.0,0.0,0.0,0.0,0.0,0.0,0.0,0.0,0.0,0.0,0.0,0.0,0.0,0.0,0.0,0.0,0.0,0.0,0.0,0.0,0.0,0.0,0.0,0.0,0.0,0.0,0.0,0.0,0.0,0.0,0.0,0.0,0.0,0.0,0.0,0.0,0.0,0.0,0.0,0.0,0.0,0.0,0.0,0.0,0.0,0.0,0.0,0.0,0.0,0.0,0.0,0.0,0.0,0.0,0.0,0.0,0.0,0.0,0.0,0.0,0.0,0.0,0.0,0.0,0.0,0.0,0.0,-3.1175,-3.2502,-3.3354,-3.295,-3.2553,-3.2318,-3.2385,-3.1342,-3.0351,0.0,0.0,0.0,0.0,0.0,0.0,0.0,0.0,0.0,0.0,0.0,0.0,0.0,0.0,0.0,0.0,0.0,0.0,0.0,0.0,0.0,0.0,0.0,0.0,0.0,0.0,0.0,0.0,0.0,0.0,0.0,0.0,0.0,0.0,0.0,0.0,0.0,0.0,0.0,0.0,0.0,0.0,0.0,0.0,0.0,0.0,0.0,0.0,0.0,0.0,0.0,0.0,0.0,0.0,0.0,0.0,0.0,0.0,0.0,0.0,0.0,0.0,0.0,0.0,0.0,0.0,0.0,0.0,0.0,0.0,0.0,0.0,0.0,0.0,0.0,0.0,0.0,0.0,0.0,0.0,0.0,0.0,0.0,0.0,0.0,0.0,0.0,0.0,0.0,0.0,0.0,0.0,0.0,0.0,0.0,0.0,0.0,0.0,0.0,0.0,0.0,0.0,0.0,-3.147,-3.2945,-3.3738,-3.3032,-3.2858,-3.2599,-3.2091,-3.1218,-3.0351,-2.9558,0.0,0.0,0.0,0.0,0.0,0.0,0.0,0.0,0.0,0.0,0.0,0.0,0.0,0.0,0.0,0.0,0.0,0.0,0.0,0.0,0.0,0.0,0.0,0.0,0.0,0.0,0.0,0.0,0.0,0.0,0.0,0.0,0.0,0.0,0.0,0.0,0.0,0.0,0.0,0.0,0.0,0.0,0.0,0.0,0.0,0.0,0.0,0.0,0.0,0.0,0.0,0.0,0.0,0.0,0.0,0.0,0.0,0.0,0.0,0.0,0.0,0.0,0.0,0.0,0.0,0.0,0.0,0.0,0.0,0.0,0.0,0.0,0.0,0.0,0.0,0.0,0.0,0.0,0.0,0.0,0.0,0.0,0.0,0.0,0.0,0.0,0.0,0.0,0.0,0.0,0.0,0.0,0.0,0.0,0.0,0.0,0.0,0.0,0.0,0.0,0.0,0.0,-3.1644,-3.3087,-3.3773,-3.29,-3.2925,-3.2529,-3.1373,-3.0942,-3.0266,-2.9127,0.0,0.0,0.0,0.0,0.0,0.0,0.0,0.0,0.0,0.0,0.0,0.0,0.0,0.0,0.0,0.0,0.0,0.0,0.0,0.0,0.0,0.0,0.0,0.0,0.0,0.0,0.0,0.0,0.0,0.0,0.0,0.0,0.0,0.0,0.0,0.0,0.0,0.0,0.0,0.0,0.0,0.0,0.0,0.0,0.0,0.0,0.0,0.0,0.0,0.0,0.0,0.0,0.0,0.0,0.0,0.0,0.0,0.0,0.0,0.0,0.0,0.0,0.0,0.0,0.0,0.0,0.0,0.0,0.0,0.0,0.0,0.0,0.0,0.0,0.0,0.0,0.0,0.0,0.0,0.0,0.0,0.0,0.0,0.0,0.0,0.0,0.0,0.0,0.0,0.0,0.0,0.0,0.0,0.0,0.0,0.0,0.0,0.0,0.0,0.0,0.0,0.0,-3.1703,-3.2995,-3.3528,-3.2554,-3.2647,-3.211,-3.0391,-3.045,-2.9954,-2.8489,0.0,0.0,0.0,0.0,0.0,0.0,0.0,0.0,0.0,0.0,0.0,0.0,0.0,0.0,0.0,0.0,0.0,0.0,0.0,0.0,0.0,0.0,0.0,0.0,0.0,0.0,0.0,0.0,0.0,0.0,0.0,0.0,0.0,0.0,0.0,0.0,0.0,0.0,0.0,0.0,0.0,0.0,0.0,0.0,0.0,0.0,0.0,0.0,0.0,0.0,0.0,0.0,0.0,0.0,0.0,0.0,0.0,0.0,0.0,0.0,-3.4952,0.0,0.0,0.0,0.0,0.0,0.0,0.0,0.0,0.0,0.0,0.0,0.0,0.0,0.0,0.0,0.0,0.0,0.0,0.0,0.0,0.0,0.0,0.0,0.0,0.0,0.0,0.0,0.0,0.0,0.0,0.0,0.0,0.0,0.0,0.0,0.0,0.0,0.0,0.0,0.0,0.0,-3.1703,-3.2531,-3.2863,-3.2107,-3.152,-3.0817,-2.9909,-2.9311,-2.8813,-2.842,-2.7851,0.0,0.0,0.0,0.0,0.0,0.0,0.0,0.0,0.0,0.0,0.0,0.0,0.0,0.0,0.0,0.0,0.0,0.0,0.0,0.0,0.0,0.0,0.0,0.0,0.0,0.0,0.0,0.0,0.0,0.0,0.0,0.0,0.0,0.0,0.0,0.0,0.0,0.0,0.0,0.0,0.0,0.0,0.0,0.0,0.0,0.0,0.0,0.0,0.0,0.0,0.0,0.0,0.0,0.0,0.0,0.0,0.0,0.0,0.0,0.0,-3.5265,0.0,0.0,0.0,0.0,0.0,0.0,0.0,0.0,0.0,0.0,0.0,0.0,0.0,0.0,0.0,0.0,0.0,0.0,0.0,0.0,0.0,0.0,0.0,0.0,0.0,0.0,0.0,0.0,0.0,0.0,0.0,0.0,0.0,0.0,0.0,0.0,0.0,0.0,0.0,0.0,-3.1711,-3.2085,-3.209,-3.1472,-3.0998,-3.0143,-2.8718,-2.8533,-2.8328,-2.7901,-2.7506,0.0,0.0,0.0,0.0,0.0,0.0,0.0,0.0,0.0,0.0,0.0,0.0,0.0,0.0,0.0,0.0,0.0,0.0,0.0,0.0,0.0,0.0,0.0,0.0,0.0,0.0,0.0,0.0,0.0,0.0,0.0,0.0,0.0,0.0,0.0,0.0,0.0,0.0,0.0,0.0,0.0,0.0,0.0,0.0,0.0,0.0,0.0,0.0,0.0,0.0,0.0,0.0,0.0,-3.751,-3.7246,-3.672,-3.7308,-3.7156,-3.6446,-3.5751,-3.5393,-3.5141,0.0,0.0,0.0,0.0,0.0,0.0,0.0,0.0,0.0,0.0,0.0,0.0,0.0,0.0,0.0,0.0,0.0,0.0,0.0,0.0,0.0,0.0,0.0,0.0,0.0,-3.0269,-3.049,0.0,0.0,0.0,0.0,0.0,0.0,0.0,0.0,0.0,0.0,0.0,0.0,-3.1515,-3.1499,-3.1225,-3.0745,-3.0394,-2.9461,-2.7558,-2.7962,-2.8016,-2.7349,-2.7299,-2.7299,0.0,0.0,0.0,0.0,0.0,0.0,0.0,0.0,0.0,0.0,0.0,0.0,0.0,0.0,0.0,0.0,0.0,0.0,0.0,0.0,0.0,0.0,0.0,0.0,0.0,0.0,0.0,0.0,0.0,0.0,0.0,0.0,-3.5877,-3.5819,0.0,0.0,0.0,0.0,0.0,0.0,0.0,0.0,0.0,0.0,0.0,0.0,0.0,-3.7281,-3.7269,-3.7879,-3.8179,-3.8179,-3.8925,-3.9207,-3.9118,-3.8479,-3.811,-3.796,-3.7179,0.0,-3.578,-3.3428,0.0,0.0,0.0,0.0,0.0,0.0,0.0,0.0,0.0,0.0,0.0,0.0,0.0,0.0,0.0,0.0,0.0,0.0,0.0,0.0,0.0,0.0,-3.1145,-3.0056,-2.9757,-2.9643,0.0,-2.9483,-2.9527,-2.9415,-2.9489,0.0,0.0,0.0,0.0,0.0,0.0,0.0,-3.0734,-3.0498,-3.0185,-2.989,-2.8889,-2.8044,-2.7456,-2.7478,-2.7464,-2.7315,-2.7299,-2.7299,-2.7299,-2.7299,0.0,0.0,0.0,0.0,0.0,0.0,0.0,0.0,0.0,0.0,0.0,0.0,0.0,0.0,0.0,0.0,0.0,0.0,0.0,0.0,0.0,0.0,0.0,0.0,0.0,0.0,0.0,0.0,0.0,-3.5183,-3.5342,-3.5808,-3.5817,-3.5655,0.0,0.0,0.0,0.0,0.0,0.0,0.0,0.0,0.0,-3.8473,-3.9118,-3.9437,-3.9319,-4.0021,-4.0372,-4.0372,-4.0778,-4.0947,-4.0947,-4.054,-4.0128,-3.9671,-3.8857,-3.812,-3.7315,-3.4906,-3.406,-3.4148,0.0,0.0,0.0,0.0,-3.2005,-3.2082,-3.257,-3.275,0.0,-3.2585,0.0,0.0,0.0,0.0,0.0,0.0,0.0,0.0,0.0,0.0,-3.1123,-3.0004,-3.0002,-3.0092,-2.9566,-2.9431,-2.9409,0.0,-2.9768,-2.9935,-2.9471,0.0,0.0,0.0,0.0,0.0,-3.0604,-3.0476,-3.0274,-2.9964,-2.8881,-2.8037,-2.7644,-2.7483,-2.7378,-2.7297,-2.7299,-2.7299,-2.7299,-2.7299,-2.7299,0.0,0.0,0.0,0.0,0.0,0.0,0.0,0.0,0.0,0.0,0.0,0.0,0.0,0.0,0.0,0.0,0.0,0.0,0.0,0.0,0.0,0.0,0.0,0.0,0.0,0.0,0.0,0.0,-3.463,-3.4898,-3.5769,-3.6017,-3.6012,0.0,0.0,0.0,0.0,0.0,0.0,-3.9207,-3.9837,-4.0172,-4.0184,-4.1478,-4.204,-4.1755,-4.2622,-4.291,-4.2643,-4.2849,-4.283,-4.2624,-4.2436,-4.1873,-4.106,-4.0265,-3.958,-3.882,-3.6386,-3.5514,-3.5604,-3.4228,-3.3589,-3.3436,-3.3436,-3.3281,-3.3184,-3.3847,-3.3924,-3.3654,-3.3242,0.0,-3.2527,-3.1294,0.0,0.0,0.0,0.0,-3.046,-3.0177,-3.0562,-3.0779,-2.9915,-3.0114,-3.0309,-2.9643,-2.9453,-2.9392,0.0,-2.988,-3.0103,-2.9489,0.0,0.0,0.0,0.0,-3.0288,-3.0288,-3.0227,-3.0105,-2.9855,-2.8915,-2.817,-2.7872,-2.7587,-2.7407,-2.736,-2.7346,-2.733,-2.733,-2.733,-2.733,-2.733,0.0,0.0,0.0,0.0,0.0,0.0,0.0,0.0,0.0,0.0,0.0,0.0,0.0,0.0,0.0,0.0,0.0,0.0,0.0,0.0,0.0,0.0,0.0,0.0,0.0,0.0,0.0,0.0,0.0,-3.5693,-3.6479,0.0,0.0,0.0,0.0,-3.816,-3.8237,-3.9312,-4.1782,-4.2481,-4.3062,-4.3634,-4.4601,-4.4832,-4.4327,-4.5362,-4.5381,-4.4369,-4.5153,-4.5115,-4.435,-4.3576,-4.2769,-4.1892,-4.1098,-4.0503,-3.991,-3.7243,-3.6349,-3.654,-3.5649,-3.4897,-3.4336,-3.4336,-3.3808,-3.3107,-3.3146,-3.2623,-3.2063,-3.2856,-3.2546,-3.185,-3.1773,-3.1217,0.0,0.0,-3.0451,-3.0277,-3.0131,-3.003,-2.9939,-2.9738,-2.9683,-2.9625,-2.9521,-2.9453,-2.9392,0.0,-2.9434,-2.9452,-2.9407,0.0,-2.9396,-2.9396,-2.9434,-2.9452,-2.9452,-2.9252,-2.9069,-2.9065,-2.843,-2.801,-2.7982,-2.7704,-2.7496,-2.7496,-2.7421,-2.7392,-2.7392,-2.7392,-2.7392,-2.7392,-2.7392,0.0,0.0,0.0,0.0,0.0,0.0,0.0,0.0,0.0,0.0,0.0,0.0,0.0,0.0,0.0,0.0,0.0,0.0,0.0,0.0,0.0,0.0,0.0,0.0,0.0,0.0,0.0,0.0,-3.7301,-3.7715,0.0,-3.7405,-3.8121,-3.8972,-3.9843,-4.0382,-4.157,-4.3608,-4.4276,-4.4962,-4.5735,-4.6471,-4.6683,-4.6358,-4.6196,-4.581,-4.5266,-4.504,-4.4782,-4.4482,-4.4214,-4.3632,-4.2825,-4.2524,-4.2186,-4.1676,-4.0177,-3.9133,-3.8408,-3.7539,-3.7061,-3.6787,-3.6226,-3.582,-3.5466,-3.4949,-3.4563,-3.4176,-3.3358,-3.2507,-3.1695,-3.1178,-3.083,-3.0598,-3.0598,-3.0554,-3.0441,-3.0265,-3.019,-3.0089,-2.9872,-2.9806,-2.9745,-2.9598,-2.9521,-2.9453,-2.9411,-2.9399,-2.9396,-2.9396,-2.9396,-2.9396,-2.9396,-2.9842,-2.9991,-2.9481,-2.9779,-2.9762,-2.9069,-2.8602,-2.8219,-2.8024,-2.773,-2.7542,-2.7511,-2.7483,-2.7467,-2.7467,-2.7467,-2.7467,-2.7467,-2.7423,-2.7392,0.0,0.0,0.0,0.0,0.0,0.0,0.0,0.0,0.0,0.0,0.0,0.0,0.0,0.0,0.0,0.0,0.0,0.0,0.0,0.0,0.0,0.0,0.0,0.0,0.0,0.0,-3.6678,-3.8703,-3.9343,-3.9622,-3.9615,-4.0593,-4.1576,-4.2428,-4.326,-4.4349,-4.58,-4.6534,-4.7137,-4.7634,-4.8385,-4.8592,-4.8219,-4.7738,-4.7068,-4.6233,-4.5706,-4.5195,-4.4739,-4.4739,-4.4279,-4.3498,-4.3498,-4.3228,-4.2766,-4.2182,-4.1481,-4.0681,-3.9514,-3.8895,-3.8566,-3.7986,-3.7599,-3.7174,-3.6071,-3.5516,-3.5027,-3.3571,-3.272,-3.214,-3.1599,-3.1449,-3.1449,-3.1449,-3.1192,-3.092,-3.0766,-3.0482,-3.0177,-2.9942,-2.9897,-2.983,-2.9636,-2.9578,-2.9511,-2.9423,-2.939,-2.9396,-2.9396,-2.9396,-2.9396,-2.9396,-2.9842,-2.9991,-2.9471,-2.9861,-2.9887,-2.9099,-2.8713,-2.8376,-2.8047,-2.7803,-2.7615,-2.7569,-2.7557,-2.7542,-2.7542,-2.7542,-2.7542,-2.7542,-2.7467,-2.7407,-2.736,0.0,0.0,0.0,0.0,0.0,0.0,0.0,0.0,0.0,0.0,0.0,0.0,0.0,0.0,0.0,0.0,0.0,0.0,0.0,0.0,0.0,0.0,0.0,-3.5992,-3.7514,-3.8886,-3.9804,-4.1315,-4.2272,-4.2288,-4.3732,-4.5007,-4.5787,-4.6658,-4.7521,-4.8392,-4.9243,-4.9589,-4.9355,-5.0353,-5.0539,-4.9825,-5.003,-4.9191,-4.7308,-4.7251,-4.6516,-4.5201,-4.5201,-4.4734,-4.3951,-4.3951,-4.3618,-4.3082,-4.3044,-4.3158,-4.3169,-4.1487,-4.0313,-3.9578,-3.952,-3.8953,-3.7961,-3.6342,-3.5206,-3.4336,-3.3455,-3.3165,-3.3146,-3.3107,-3.3107,-3.3107,-3.3107,-3.24,-3.1659,-3.1659,-3.0925,-3.0157,-2.9983,-2.9943,-2.9876,-2.9655,-2.9598,-2.9569,-2.9423,-2.939,-2.9407,-2.9407,-2.9396,-2.9396,-2.9396,-2.9396,0.0,-2.9396,-2.9396,-2.9294,-2.9014,-2.8682,-2.8389,-2.8098,-2.784,-2.7701,-2.7701,-2.7644,-2.7602,-2.7602,-2.7602,-2.7602,-2.7602,-2.7526,-2.7436,-2.7299,0.0,0.0,0.0,0.0,0.0,0.0,0.0,0.0,0.0,0.0,0.0,0.0,0.0,0.0,0.0,0.0,0.0,0.0,0.0,0.0,0.0,0.0,-3.8473,-3.8726,-3.9142,-4.0227,-4.2363,-4.3486,-4.4072,-4.402,-4.5477,-4.6496,-4.6728,-4.754,-4.8411,-4.9301,-4.9571,-4.9935,-5.0447,-5.0739,-5.0735,-5.0374,-4.9248,-4.8303,-4.7583,-4.6363,-4.5576,-4.5201,-4.5201,-4.5067,-4.4848,-4.4848,-4.4835,-4.4767,-4.4124,-4.4018,-4.4078,-4.2338,-4.1525,-4.1158,-3.9946,-3.8953,-3.8135,-3.7671,-3.6942,-3.6071,-3.5259,-3.4563,-3.3924,-3.3281,-3.3107,-3.3107,-3.3107,-3.2893,-3.2698,-3.2698,-3.2483,-3.2062,-3.1186,-3.0993,-3.0757,-2.986,-2.9626,-2.956,-2.9482,-2.9423,-2.9401,-2.9407,-2.9396,-2.9396,-2.9396,-2.9396,0.0,-2.9396,-2.9396,-2.9192,-2.8694,-2.8554,-2.8311,-2.784,-2.7742,-2.7701,-2.7701,-2.7686,-2.7672,-2.7672,-2.7672,-2.763,-2.7526,-2.7467,-2.7392,0.0,0.0,0.0,0.0,0.0,0.0,0.0,0.0,0.0,0.0,0.0,0.0,0.0,0.0,0.0,0.0,0.0,0.0,0.0,0.0,0.0,0.0,-3.9341,-4.0854,-4.2318,-4.2513,-4.3087,-4.4605,-4.5745,-4.6381,-4.6337,-4.7454,-4.8198,-4.8198,-4.8972,-4.9668,-5.019,-5.0202,-5.0415,-5.0898,-5.0898,-5.0623,-5.0048,-4.9096,-4.8164,-4.7258,-4.6281,-4.5707,-4.5445,-4.5445,-4.5445,0.0,-4.5445,-4.5526,-4.5587,-4.5086,-4.4966,0.0,0.0,0.0,0.0,0.0,-3.9501,-3.874,-3.874,-3.8179,-3.7367,-3.6903,-3.6168,-3.5356,-3.4847,-3.4461,-3.419,-3.419,-3.3924,-3.3634,-3.3634,-3.3378,-3.293,-3.2205,-3.1701,-3.1203,-3.0473,-2.9973,-2.9617,-2.955,-2.9511,0.0,-2.9419,-2.9399,-2.9396,-2.9396,-2.9396,-2.9396,-2.9396,-2.9304,-2.9041,-2.8554,-2.8402,-2.8152,-2.7745,-2.7701,0.0,0.0,0.0,-2.7701,-2.7701,-2.7672,0.0,0.0,0.0,-2.7378,-2.7299,0.0,0.0,0.0,-2.3076,-2.2206,0.0,0.0,0.0,0.0,0.0,0.0,0.0,0.0,0.0,0.0,0.0,0.0,0.0,0.0,0.0,0.0,-4.1402,-4.2612,-4.5716,-4.6419,-4.6598,-4.6585,-4.7863,-4.8742,-4.8756,-4.9423,-4.9838,-4.9842,-5.0492,-5.0898,-5.0898,0.0,0.0,0.0,0.0,-5.04,-4.9355,-4.9249,-4.8383,-4.6749,-4.6653,-4.6323,-4.5807,-4.5807,-4.5807,-4.5807,-4.5807,-4.5807,-4.5807,-4.5807,-4.5807,-4.5652,-4.4059,-4.2918,-4.2048,-4.1235,-4.0448,-3.9771,-3.9675,0.0,0.0,-3.8353,-3.7754,-3.7058,-3.7058,-3.6477,-3.5839,-3.5839,-3.5206,-3.4549,-3.4549,-3.3963,-3.3332,-3.3108,-3.2338,-3.1615,-3.1382,-3.0542,-2.9823,-2.9738,-2.9654,-2.9569,-2.9433,-2.9419,-2.9407,-2.9407,-2.9396,-2.9396,-2.9396,-2.9189,-2.8915,-2.8541,0.0,0.0,-2.773,-2.7701,-2.7701,-2.7701,-2.7701,-2.7701,-2.7701,-2.763,-2.7557,-2.7496,-2.7438,-2.7362,-2.7299,-2.5747,-2.5005,-2.4956,-2.3105,-2.2265,0.0,0.0,0.0,0.0,0.0,0.0,0.0,0.0,0.0,0.0,0.0,0.0,0.0,0.0,0.0,-4.1945,-4.3333,-4.4486,-4.5158,-4.7071,-4.84,-4.8401,-4.9197,-4.9705,-4.9653,-5.0369,-5.0784,-5.0681,-5.0801,-5.0898,-5.0898,-5.0898,-5.0898,-5.0898,-5.0898,-5.0496,-4.9641,-4.8926,-4.8056,-4.7013,0.0,0.0,-4.5807,-4.5807,-4.5807,-4.5807,-4.5807,-4.5807,-4.5807,-4.5807,-4.5807,-4.571,-4.4736,-4.3827,-4.2937,-4.2086,-4.1661,-4.1409,-4.0777,-3.9984,-3.9249,-3.9249,-3.8663,-3.7941,-3.7941,-3.7348,0.0,-3.6671,-3.6071,-3.5458,-3.5458,-3.5317,-3.498,-3.4154,-3.3688,-3.3199,-3.2353,-3.1374,-3.0658,-3.0572,-3.0038,-2.956,-2.9492,-2.9433,-2.9401,-2.9407,-2.9396,-2.9396,-2.9396,-2.9347,-2.9115,-2.8566,-2.8448,-2.8232,-2.7728,-2.7701,-2.7701,-2.7701,-2.7701,-2.7701,-2.7701,-2.7585,-2.7511,-2.7496,-2.7392,-2.7297,-2.7299,-2.5747,-2.5005,-2.4971,-2.335,-2.2602,0.0,0.0,0.0,0.0,0.0,0.0,0.0,0.0,0.0,0.0,0.0,-3.9444,0.0,0.0,-4.2181,-4.3489,-4.4429,-4.5467,-4.676,-4.8075,-4.8899,-4.8899,-4.9939,-5.0629,-5.0559,-5.0884,-5.1043,-5.0914,-5.0898,-5.0898,-5.0898,-5.0898,-5.0898,-5.0898,-5.0898,-5.0511,-4.9707,-4.9262,-4.8392,-4.7096,-4.6651,-4.6232,-4.5807,-4.5807,-4.5807,-4.5807,-4.5807,-4.5807,-4.5807,-4.5807,-4.5807,-4.5768,-4.5355,-4.4697,-4.3846,-4.3015,-4.2421,-4.1996,-4.1595,-4.0879,-4.0157,-4.0145,-3.9559,-3.876,-3.8328,-3.7593,-3.6826,-3.6419,-3.6013,-3.5704,-3.5704,-3.5704,-3.5577,-3.5081,-3.4481,-3.3875,-3.3285,-3.2358,-3.1497,-3.095,-3.0517,-3.0114,-2.9635,-2.9521,-2.9481,-2.9401,-2.9399,-2.9396,-2.9396,-2.9283,-2.9082,-2.8773,-2.8466,-2.8192,-2.7926,-2.7771,-2.7701,-2.7701,-2.7701,-2.7701,-2.7701,-2.76,-2.7542,-2.7496,-2.739,-2.7329,-2.7299,-2.5747,-2.5005,-2.4971,-2.3405,-2.2699,0.0,0.0,0.0,0.0,0.0,0.0,0.0,0.0,-3.8957,-3.9933,-4.0328,-4.0964,-4.2526,-4.2865,-4.3411,-4.4992,-4.5252,-4.598,-4.809,-4.8549,-4.8651,-4.8651,-5.0232,-5.1283,-5.1232,-5.1162,-5.1068,-5.0959,-5.0921,-5.0898,-5.0898,-5.0898,-5.0898,-5.0898,-5.0898,-5.0511,-4.9707,-4.9707,-4.8914,-4.7347,-4.7173,-4.6728,-4.6058,-4.5884,-4.5807,-4.5807,-4.5807,-4.5807,-4.5807,-4.5807,-4.5807,-4.5807,-4.5807,-4.542,-4.475,-4.3924,-4.3201,-4.2537,-4.2206,-4.1645,-4.1019,-4.086,-4.0325,-3.9584,-3.8727,-3.7953,-3.7193,-3.6207,-3.5936,-3.5897,-3.5742,-3.5704,-3.5704,-3.5704,-3.5044,-3.4371,-3.4175,-3.3331,-3.2381,-3.1562,-3.1119,-3.0677,-2.9973,-2.972,-2.954,-2.9423,-2.9401,-2.9388,-2.9407,-2.92,-2.9067,-2.9003,-2.8565,-2.8224,-2.8116,-2.7855,-2.7701,-2.7701,-2.7701,-2.7701,-2.7701,-2.763,-2.7572,-2.7526,-2.7452,-2.7392,-2.733,-2.5777,-2.5003,-2.4971,-2.3405,-2.2699,-3.5346,-3.5912,-3.6711,-3.7716,-3.8051,-3.8572,0.0,0.0,-4.0941,-4.1889,-4.2701,-4.3542,-4.4518,-4.4696,-4.5031,-4.6007,-4.6152,-4.6256,-4.6554,-4.7262,-4.7753,-4.7754,-4.9902,-5.1363,-5.1293,-5.1236,-5.1167,-5.1068,-5.0961,-5.0898,-5.0898,-5.0898,-5.0898,-5.0898,-5.0898,-5.0511,-4.9707,-4.9707,-4.9204,-4.8256,-4.7463,-4.7038,-4.6922,-4.6155,-4.5807,-4.5807,-4.5807,-4.5807,-4.5807,-4.5807,-4.5807,-4.5807,-4.5807,-4.5789,-4.5661,-4.4789,-4.4396,-4.4111,-4.2617,-4.2028,-4.1834,-4.1053,-4.0721,-4.0485,-3.9613,-3.9286,-3.8862,-3.7232,-3.6767,-3.6593,-3.5897,-3.5704,-3.5704,-3.5704,-3.5482,-3.5203,-3.5012,-3.4179,-3.3403,-3.3178,-3.1926,-3.0875,-3.0771,-3.0114,-2.954,-2.9423,-2.9402,-2.9401,-2.9407,-2.9357,-2.9272,-2.9044,-2.8945,-2.8682,-2.8156,-2.7855,-2.7701,-2.7701,-2.7701,-2.7701,-2.7701,-2.763,-2.7602,-2.7587,-2.7526,-2.7452,-2.7376,-2.5848,-2.5074,-2.4971,-2.3405,-2.2699,-3.6209,-3.7769,0.0,0.0,-4.031,-4.1463,-4.1747,-4.2165,-4.278,-4.3711,-4.4202,-4.4727,-4.5605,-4.5761,-4.5878,0.0,-4.6297,-4.6479,-4.6989,-4.7362,-4.7793,-4.8301,-4.9297,-5.0095,-5.0498,-5.0516,-5.0672,-5.1078,-5.105,-5.0976,-5.0906,-5.0898,-5.0898,-5.0898,-5.0898,-5.0743,-5.0395,-5.0395,-4.9977,-4.9146,-4.8798,-4.8082,-4.7096,-4.6709,-4.629,-4.5807,-4.5807,-4.5807,-4.5807,-4.5807,-4.5807,-4.5807,-4.5807,-4.5847,-4.5861,-4.5493,-4.473,-4.3876,-4.3679,-4.2637,-4.141,-4.1516,-4.1208,-4.0649,-3.976,-3.9497,-3.9131,-3.7392,-3.6903,-3.6709,-3.5916,-3.5704,-3.5704,-3.5704,-3.5651,-3.5496,-3.517,-3.477,-3.4251,-3.3537,-3.2414,-3.1438,-3.0987,-3.0208,-2.9626,-2.9531,-2.9443,-2.9402,-2.9401,-2.9399,-2.9294,-2.9026,-2.9003,-2.8815,-2.8376,-2.8088,-2.794,-2.794,-2.7786,-2.7701,-2.7701,-2.7672,-2.7644,-2.7602,-2.7572,-2.7526,-2.7434,-2.5918,-2.5111,-2.5023,-2.3473,-2.2738,-3.7419,0.0,0.0,-4.0559,-4.2077,-4.3523,-4.3121,-4.3526,-4.425,-4.5166,-4.5361,-4.5553,-4.6178,-4.6295,0.0,-4.6295,-4.6302,-4.6521,-4.7146,-4.7245,-4.748,-4.8105,-4.8183,-4.8496,-4.9267,-4.9528,-4.9956,-5.0738,-5.077,-5.0804,-5.0954,-5.0921,-5.0898,-5.0898,-5.0898,-5.0898,-5.0898,-5.0898,-5.0608,-5.0035,-4.9803,-4.8914,-4.7444,-4.696,-4.6406,-4.5807,-4.5807,-4.5807,-4.5807,-4.5807,-4.5807,-4.5807,-4.5814,-4.586,-4.5899,-4.5911,-4.5159,-4.4148,-4.4309,-4.3169,-4.163,-4.1731,-4.1332,-4.0657,-3.9788,-3.9675,-3.9489,-3.7777,-3.7282,-3.7146,-3.656,-3.6052,-3.5762,-3.5974,-3.5858,-3.5596,-3.5185,-3.5106,-3.4833,-3.3915,-3.3043,-3.2198,-3.1363,-3.0565,-2.9936,-2.9664,-2.9531,-2.9433,-2.9402,-2.9409,-2.9326,-2.9134,-2.9037,-2.8904,-2.8658,-2.8316,-2.8102,-2.8102,-2.784,-2.7701,-2.7701,-2.7701,-2.7672,-2.763,-2.7615,-2.7497,-2.7213,-2.5886,-2.5077,-2.4781,-2.3436,-2.2777,0.0,0.0,-4.1112,-4.2004,-4.2972,-4.3919,-4.4738,-4.4934,-4.5207,-4.6087,-4.6262,-4.6262,-4.6301,-4.6301,-4.6301,-4.6301,-4.6301,-4.6301,-4.634,-4.6341,-4.6341,-4.638,-4.638,-4.6712,0.0,-4.8314,-4.9107,-4.9963,-4.9911,-5.0213,-5.1054,-5.0969,-5.0898,-5.0898,-5.0898,-5.0898,-5.0898,-5.0898,-5.0898,-5.084,-5.0074,-4.9223,-4.8295,-4.6612,-4.5826,-4.5807,-4.5807,-4.5807,-4.5807,-4.5807,-4.5807,-4.5807,-4.5867,-4.5899,-4.5911,-4.5966,-4.5958,-4.5687,-4.4083,-4.3486,-4.3156,-4.1485,-4.0927,-4.0727,-3.9859,-4.013,-4.0414,-3.872,-3.8269,-3.8239,-3.8147,-3.6922,-3.5897,-3.669,-3.6265,-3.5596,-3.5185,-3.5106,-3.4985,-3.4641,-3.3907,-3.3081,-3.2217,-3.141,-3.0593,-2.9814,-2.9636,-2.9559,-2.9423,-2.9409,-2.9396,-2.9396,-2.9156,-2.8991,-2.8991,-2.8433,-2.8102,-2.8102,-2.784,-2.7701,-2.7701,-2.7701,-2.7701,-2.7701,-2.7701,-2.7306,-2.6533,-2.5694,-2.4884,-2.4106,-2.3224,-2.2803,0.0,0.0,-4.3639,-4.3995,-4.4764,-4.5507,-4.58,-4.5859,-4.5956,-4.6249,-4.6237,-4.6181,-4.628,-4.623,-4.6202,-4.63,-4.6304,-4.6305,-4.6305,-4.6303,-4.6301,-4.6301,-4.6301,0.0,0.0,0.0,0.0,-4.9939,-5.0459,-5.0831,-5.1086,-5.0969,-5.0898,-5.0898,-5.0898,-5.0898,-5.0898,-5.0898,-5.0898,-5.0898,-5.0074,-4.9243,-4.8353,-4.7192,-4.6348,-4.5807,-4.5807,-4.5807,-4.5807,-4.5807,-4.5807,-4.5807,-4.5821,-4.5861,-4.5892,-4.5923,-4.5623,-4.5112,-4.4554,-4.3238,-4.1762,-4.1762,-4.1757,-4.1592,-4.0738,-4.1057,-4.1377,-3.9644,-3.9138,-3.8961,-3.8407,-3.7384,-3.6555,-3.6845,-3.6284,-3.5596,-3.5185,-3.5106,-3.5005,-3.4678,-3.3944,-3.3118,-3.2255,-3.1419,-3.0631,-2.9814,-2.9636,-2.9578,-2.9472,-2.9441,-2.9401,-2.9401,-2.9318,-2.9272,-2.9272,-2.8706,-2.8376,-2.8376,-2.7954,-2.7701,-2.7701,-2.7701,-2.7701,-2.7701,-2.7701,-2.7335,-2.657,-2.5764,-2.4948,-2.416,-2.3323,-2.2893,0.0,-4.4005,-4.4994,-4.537,-4.5898,-4.6289,-4.6267,-4.6266,-4.6266,-4.6266,-4.5904,-4.5735,-4.615,-4.592,-4.5792,-4.6171,-4.6261,-4.6305,-4.6305,-4.6302,-4.6299,-4.6296,-4.6569,0.0,0.0,0.0,0.0,-4.9587,-5.033,-5.0879,-5.1128,-5.1017,-5.0914,-5.0898,-5.0898,-5.0898,-5.0898,-5.0898,-5.0898,-5.0898,-5.0074,-4.9243,-4.8372,-4.7502,-4.6612,-4.5807,-4.5807,-4.5807,-4.5807,-4.5807,-4.5807,-4.5807,-4.584,-4.5854,-4.5893,-4.5937,-4.5448,-4.4718,-4.4437,-4.3025,-4.1412,-4.1646,-4.1747,-4.1626,-4.1063,-4.1291,-4.15,-4.0387,-3.9804,-3.9472,-3.9257,-3.831,-3.7481,-3.776,-3.6961,-3.6039,-3.5741,-3.5431,-3.5106,-3.4772,-3.4295,-3.3643,-3.2716,-3.1644,-3.0631,-2.9814,-2.9655,-2.9617,-2.955,-2.9472,-2.9433,-2.9402,-2.9401,-2.9399,-2.9407,-2.8955,-2.867,-2.867,-2.825,-2.7936,-2.784,-2.784,-2.78,-2.7701,-2.7701,-2.7192,-2.616,-2.5651,-2.4848,-2.3793,-2.3247,-2.294,-4.466,-4.4965,-4.5192,-4.6073,-4.6308,-4.6288,-4.621,-4.6163,-4.6122,-4.6122,-4.5334,-4.4906,0.0,0.0,-4.5138,-4.5911,-4.6171,-4.6301,-4.6301,-4.6296,-4.6309,0.0,0.0,0.0,0.0,0.0,0.0,-4.9014,0.0,-5.0394,-5.1158,-5.1072,-5.0978,-5.0906,-5.0898,-5.0898,-5.0898,-5.0898,-5.0898,-5.0898,-5.0132,-4.932,-4.843,-4.756,-4.6689,-4.5865,-4.5826,-4.5807,-4.5807,-4.5807,-4.5807,-4.5807,-4.586,-4.59,-4.5906,-4.5974,-4.5448,-4.458,-4.3791,-4.2928,-4.2058,-4.1179,-4.0927,-4.0966,-4.0907,-4.0927,-4.0961,-4.0912,-4.0306,-3.9849,-4.0604,-3.9586,-3.8554,-3.9319,-3.8166,-3.6868,-3.6722,-3.6014,-3.5288,-3.4963,-3.4879,-3.4528,-3.3527,-3.1992,-3.0631,-2.9814,-2.9701,-2.9683,-2.9607,-2.955,-2.9482,-2.9423,-2.9412,-2.9392,-2.9407,-2.9156,-2.9003,-2.9003,-2.87,-2.8389,-2.8125,-2.8129,-2.7992,-2.776,-2.7728,-2.6971,-2.5442,-2.5442,-2.4651,-2.3126,-2.3052,-2.3015,-4.5607,-4.5906,-4.5994,-4.623,-4.6265,-4.6213,-4.6204,-4.5653,-4.5156,-4.5156,-4.4351,-4.3763,0.0,0.0,0.0,-4.5084,-4.5789,0.0,-4.6295,-4.6309,0.0,0.0,0.0,-4.7606,-4.7606,-4.9128,0.0,0.0,-5.0527,-5.1032,-5.1196,-5.1118,-5.1037,-5.0978,-5.0941,-5.0898,-5.0898,-5.0898,-5.0898,-5.0898,-5.0685,-5.0163,-4.9339,-4.8469,-4.7579,-4.6728,-4.6078,-4.5807,-4.5807,-4.5807,-4.5807,-4.5807,-4.5814,-4.5854,-4.5906,-4.5925,-4.5411,-4.458,-4.3791,-4.2928,-4.2058,-4.1179,-4.1335,-4.1747,-4.1102,-4.1354,-4.1723,-4.1073,-4.0747,-4.063,-4.0828,-4.004,-3.9251,-3.9458,-3.8177,-3.6868,-3.6722,-3.6014,-3.5324,-3.5089,-3.4448,-3.3657,-3.2807,-3.1685,-3.0631,-2.9814,-2.9701,-2.9683,-2.9683,-2.9617,-2.9578,-2.954,-2.9492,-2.9453,-2.9392,-2.9144,-2.9,-2.9003,-2.87,-2.8478,-2.8402,-2.8402,-2.8376,-2.8298,-2.8298,-2.7543,-2.6003,-2.6003,-2.5176,-2.3624,-2.3452,-2.3354,-4.6158,-4.6206,-4.6209,-4.6209,-4.6173,-4.605,-4.5634,-4.5129,-4.4651,-4.4261,-4.3388,0.0,0.0,0.0,0.0,0.0,0.0,0.0,-4.6254,-4.6309,-4.6305,0.0,-4.7373,0.0,-4.8135,-4.9677,-5.067,0.0,-5.1091,-5.1304,-5.1244,-5.1172,-5.1116,-5.1049,-5.0988,-5.0921,-5.0898,-5.0898,-5.0898,-5.0898,-5.0898,-5.0473,-4.9668,-4.8798,-4.7927,-4.7038,0.0,-4.5807,-4.5807,-4.5807,-4.5814,-4.5847,-4.5847,-4.5874,-4.5906,-4.5937,-4.5669,-4.5104,-4.3908,-4.318,-4.2558,-4.1315,-4.1238,-4.1529,-4.1043,-4.1238,-4.1529,-4.1043,-4.0898,-4.0898,-4.0907,-4.0513,-4.0117,-4.0087,-3.8753,-3.7481,-3.7423,-3.642,-3.5464,-3.528,-3.4688,-3.3859,-3.2612,-3.1928,-3.1148,-2.9889,-2.9701,-2.9701,-2.9701,-2.9673,-2.9626,-2.9598,-2.9578,-2.9521,-2.9453,-2.9291,-2.9185,-2.9181,-2.9,-2.8844,-2.8725,-2.8725,-2.8646,-2.8498,-2.8504,-2.7743,-2.6204,-2.6204,-2.5371,-2.3795,-2.3598,-2.3481,-4.6403,-4.615,-4.6098,-4.6098,-4.6091,-4.5831,-4.491,-4.451,-4.4092,-4.3223,0.0,0.0,-4.2464,0.0,-4.2413,-4.3937,0.0,-4.5254,-4.6018,-4.6233,-4.6308,-4.6302,-4.7783,-4.8798,-4.8798,-5.0379,-5.1394,-5.1394,-5.1399,-5.1367,-5.1327,-5.1247,-5.1165,-5.1093,-5.1037,-5.0998,-5.0933,-5.0914,-5.0906,-5.0906,-5.0906,-5.0531,-4.9842,-4.8972,-4.8101,-4.7212,0.0,0.0,-4.5807,-4.5807,-4.5854,-4.59,-4.5906,-4.5906,-4.5911,-4.5986,-4.5997,-4.5784,-4.4219,-4.3602,-4.3214,-4.1471,-4.0907,-4.0907,-4.0907,-4.0907,-4.0907,-4.0907,-4.0907,-4.0903,-4.0898,-4.0907,-4.0897,-4.0837,-3.961,-3.8437,-3.8313,-3.6927,-3.5646,-3.5477,-3.528,-3.4571,-3.2773,-3.2439,-3.1784,-3.0,-2.9701,-2.9701,-2.9701,-2.9701,-2.9683,-2.9617,-2.9607,-2.9588,-2.9531,-2.9453,-2.9423,-2.9412,-2.939,-2.9304,-2.906,-2.9048,-2.8927,-2.8628,-2.8615,-2.7852,-2.6295,-2.6295,-2.547,-2.3888,-2.3653,-2.3531,-4.6405,-4.615,-4.6098,-4.6098,-4.6067,-4.5789,-4.4894,-4.3538,0.0,0.0,0.0,-3.8807,-3.8968,-4.0105,0.0,-4.1426,0.0,0.0,0.0,0.0,-4.6302,0.0,0.0,0.0,0.0,0.0,0.0,0.0,0.0,-5.1396,-5.1387,-5.1263,-5.1164,-5.1102,-5.1088,-5.1087,-5.108,-5.1012,-5.0978,-5.0978,-5.0941,-5.0821,-5.0666,-4.9861,-4.8991,-4.8121,-4.725,0.0,-4.5807,-4.586,-4.5893,-4.59,-4.5893,-4.5905,-4.5911,-4.5986,-4.5997,-4.5861,-4.4918,-4.4093,-4.3214,-4.1471,-4.0907,-4.0907,-4.0907,-4.0907,-4.0907,-4.0907,-4.0907,-4.0907,-4.0903,-4.0903,-4.0902,-4.0897,-4.0111,-3.9178,-3.8468,-3.6931,-3.5684,-3.5643,-3.5496,-3.4812,-3.3108,-3.2584,-3.1819,-3.012,-2.9764,-2.9701,-2.9701,-2.9701,-2.9701,-2.9673,-2.9673,-2.9664,-2.9588,-2.9578,-2.954,-2.9482,-2.9423,-2.9372,-2.9341,-2.9328,-2.9304,-2.9243,-2.9243,-2.8429,-2.6782,-2.6782,-2.5949,-2.4375,-2.3939,-2.3742,-4.6317,-4.6016,-4.5933,-4.5933,-4.5598,-4.5052,-4.4174,0.0,0.0,0.0,0.0,-3.8099,-3.8099,0.0,0.0,0.0,0.0,0.0,0.0,0.0,0.0,0.0,0.0,0.0,0.0,0.0,0.0,0.0,0.0,-5.1402,-5.1397,-5.13,-5.1206,-5.1102,-5.1108,-5.1101,-5.1101,-5.106,-5.1053,-5.1053,-5.1012,-5.1005,-5.0986,-5.0134,-4.9282,-4.8391,-4.752,0.0,-4.5841,-4.5899,-4.5918,-4.595,-4.5949,-4.5947,-4.5958,-4.5994,-4.6,-4.5883,-4.5078,-4.4229,-4.3297,-4.1995,-4.1276,-4.0907,-4.0907,-4.0907,-4.0907,-4.0907,-4.0907,-4.0907,-4.0907,-4.0898,-4.0908,-4.0908,-3.9884,-3.87,-3.787,-3.6628,-3.5706,-3.5706,-3.5612,-3.4981,-3.3211,-3.2779,-3.2027,-3.0176,-2.9841,-2.9773,-2.972,-2.9701,-2.9701,-2.9701,-2.9701,-2.9692,-2.9645,-2.9617,-2.9588,-2.955,-2.9482,-2.9453,-2.9453,-2.9421,-2.939,-2.939,-2.9399,-2.8579,-2.6907,-2.6907,-2.607,-2.4491,-2.4135,-2.3959,-4.6419,-4.6163,-4.6039,-4.5845,-4.5316,-4.4485,-4.3073,-4.1699,0.0,0.0,-3.8157,-3.7539,-3.7539,0.0,0.0,0.0,0.0,0.0,0.0,0.0,0.0,0.0,0.0,0.0,0.0,0.0,0.0,0.0,0.0,0.0,-5.1407,-5.1344,-5.1245,-5.1136,-5.112,-5.1114,-5.1121,-5.1114,-5.1088,-5.1088,-5.1101,-5.1101,-5.1081,-5.0209,-4.9317,-4.8458,-4.7572,0.0,0.0,-4.5917,-4.5955,-4.5997,-4.6003,-4.6,-4.6002,-4.6002,-4.6002,-4.5905,-4.5278,-4.4365,-4.3394,-4.2694,-4.1762,-4.0907,-4.0907,-4.0907,-4.0907,-4.0907,-4.0907,-4.0907,-4.0907,-4.0907,-4.0907,-4.0907,-3.9573,-3.8137,-3.7496,-3.6489,-3.5698,-3.5698,-3.5697,-3.5126,-3.3284,-3.2928,-3.2237,-3.0281,-2.9958,-2.9888,-2.9755,-2.9747,-2.9729,-2.9692,-2.9701,-2.9701,-2.9701,-2.9645,-2.9617,-2.9617,-2.956,-2.9512,-2.9512,-2.9453,-2.9412,-2.9402,-2.939,-2.857,-2.6907,-2.6907,-2.607,-2.4491,-2.4229,-2.4107,-4.709,-4.703,-4.6786,-4.6,-4.5749,-4.4878,-4.1745,0.0,0.0,0.0,-3.6382,-3.574,-3.574,-3.6389,-3.6987,0.0,0.0,0.0,0.0,0.0,0.0,0.0,0.0,0.0,0.0,0.0,0.0,0.0,0.0,0.0,-5.1406,-5.1337,-5.1272,-5.1191,-5.1194,-5.1196,-5.119,-5.1127,-5.1095,-5.1095,-5.1095,-5.1101,-5.1081,-5.0209,-4.9317,-4.8458,-4.7572,0.0,0.0,-4.596,-4.5991,-4.5997,-4.6005,-4.5997,-4.6002,-4.6002,-4.6002,-4.5982,-4.5924,-4.4831,-4.3486,-4.3413,-4.2267,-4.0907,-4.0907,-4.0907,-4.0907,-4.0907,-4.0907,-4.0907,-4.0907,-4.0907,-4.0907,-4.0907,-3.9573,-3.8277,-3.8214,-3.6871,-3.5704,-3.5704,-3.5703,-3.516,-3.3451,-3.3023,-3.2301,-3.0521,-3.0157,-3.003,-2.9897,-2.9872,-2.9832,-2.9701,-2.9701,-2.9701,-2.9701,-2.9683,-2.9701,-2.9701,-2.9626,-2.9588,-2.9588,-2.9531,-2.9463,-2.9402,-2.9402,-2.8582,-2.6907,-2.6907,-2.607,-2.4491,-2.4229,-2.4107,-4.548,-4.5221,-4.4852,-4.5026,-4.4291,-4.3169,-4.1835,0.0,0.0,-3.7154,-3.6125,-3.5508,-3.5508,-3.5777,-3.6183,0.0,0.0,0.0,0.0,0.0,0.0,0.0,0.0,0.0,0.0,0.0,0.0,0.0,0.0,0.0,-5.1394,-5.1342,-5.1274,-5.1203,-5.1205,-5.1202,-5.1202,-5.1171,-5.1165,-5.1165,-5.1166,-5.116,-5.1121,-5.0254,-4.938,-4.8501,-4.7647,0.0,0.0,-4.6,-4.6005,-4.6005,-4.5997,-4.6002,-4.6002,-4.6002,-4.6002,-4.5924,-4.5453,-4.4501,-4.3408,-4.2889,-4.1898,-4.0907,-4.0907,-4.0907,-4.0907,-4.0907,-4.0907,-4.0907,-4.0907,-4.0907,-4.0907,-4.0907,-3.9601,-3.8354,-3.8354,-3.6992,-3.5766,-3.5766,-3.5728,-3.5166,-3.349,-3.3136,-3.2455,-3.0587,-3.0259,-3.0171,-3.0037,-3.0015,-2.9965,-2.9832,-2.9756,-2.9701,-2.9701,-2.9701,-2.9701,-2.9701,-2.9664,-2.9655,-2.9655,-2.9598,-2.954,-2.9521,-2.9472,-2.8669,-2.7028,-2.6982,-2.6116,-2.4497,-2.4393,-2.4339,-4.4271,-4.4149,-4.3769,-4.413,-4.3092,-4.1809,0.0,0.0,-3.7784,-3.6652,-3.5938,-3.55,-3.55,-3.55,-3.5692,0.0,0.0,0.0,0.0,0.0,0.0,0.0,0.0,0.0,0.0,0.0,0.0,0.0,0.0,0.0,0.0,-5.0564,-5.0755,-5.1219,-5.1201,-5.1202,-5.1202,-5.1202,-5.1202,-5.1202,-5.095,-5.0814,-5.0775,-4.9648,-4.8794,-4.8172,0.0,0.0,0.0,-4.6002,-4.6002,-4.6002,-4.6002,-4.6002,-4.6002,-4.6002,-4.6002,-4.5924,-4.5356,-4.4423,-4.3394,-4.2772,-4.182,-4.0946,-4.1218,-4.1276,-4.1238,-4.0966,-4.0907,-4.0907,-4.0907,-4.0907,-4.0907,-4.0907,-3.9625,-3.8406,-3.8406,-3.7029,-3.5793,-3.5793,-3.5751,-3.519,-3.3489,-3.3209,-3.2571,-3.0672,-3.04,-3.0325,-3.0177,-3.0157,-3.0115,-2.9973,-2.9872,-2.979,-2.972,-2.9701,-2.9701,-2.9701,-2.9701,-2.9701,-2.9701,-2.9645,-2.9617,-2.9598,-2.955,-2.8727,-2.7101,-2.7046,-2.6179,-2.4539,-2.4515,-2.449,-4.4049,-4.4534,-4.4381,-4.3537,-4.2647,-4.1345,0.0,0.0,-3.761,-3.5862,-3.5515,-3.55,-3.55,-3.55,-3.55,-3.5519,0.0,0.0,0.0,0.0,0.0,0.0,0.0,0.0,0.0,0.0,0.0,0.0,0.0,0.0,0.0,-4.8767,-4.952,-5.1238,-5.1239,-5.1202,-5.1202,-5.1202,-5.1202,-5.1183,-5.0328,-4.9906,-4.9848,-4.8114,-4.7312,0.0,0.0,0.0,0.0,-4.6002,-4.6002,-4.6002,-4.6002,-4.6002,-4.6002,-4.6002,-4.6002,-4.6002,-4.5982,-4.4909,-4.3505,-4.3486,-4.2306,-4.1063,-4.1922,-4.2194,-4.2019,-4.114,-4.0907,-4.0907,-4.0907,-4.0907,-4.0907,-4.0907,-3.9625,-3.8406,-3.8406,-3.7023,-3.5795,-3.5795,-3.5797,-3.5256,-3.349,-3.3208,-3.2618,-3.0871,-3.0592,-3.052,-3.0317,-3.03,-3.0247,-3.0103,-3.0102,-2.9996,-2.9719,-2.9701,-2.9701,-2.9701,-2.9701,-2.9701,-2.9701,-2.9701,-2.9673,-2.9598,-2.9598,-2.8774,-2.7101,-2.7101,-2.6242,-2.4607,-2.452,-2.4497,-4.0713,-4.063,-4.0301,-4.0616,-4.0055,-3.9192,-3.8369,-3.7719,-3.6948,-3.5753,-3.5496,-3.5495,-3.5507,-3.55,-3.5673,-3.6231,-3.6769,0.0,0.0,0.0,0.0,0.0,0.0,0.0,0.0,0.0,0.0,0.0,0.0,0.0,0.0,-4.8748,-4.8954,-4.9501,-4.9467,-4.9415,-4.9415,-4.9415,-4.9415,-4.9415,-4.9143,-4.9007,-4.8968,-4.7822,0.0,0.0,0.0,0.0,0.0,-4.6002,-4.6002,-4.6002,-4.6002,-4.6002,-4.6002,-4.6002,-4.6002,-4.5924,-4.5375,-4.4443,-4.3394,-4.2811,-4.2228,-4.1845,-4.2116,-4.2194,-4.2136,-4.1864,-4.1354,-4.0907,-4.0907,-4.0907,-4.0907,-4.0907,-3.9625,-3.8406,-3.8406,-3.7023,-3.5795,-3.5795,-3.581,-3.5258,-3.3494,-3.3191,-3.2611,-3.0856,-3.0591,-3.0588,-3.052,-3.051,-3.043,-3.0253,-3.024,-3.0124,-2.9866,-2.9832,-2.9799,-2.9711,-2.9701,-2.9701,-2.9701,-2.9701,-2.9701,-2.9683,-2.9683,-2.8848,-2.718,-2.7108,-2.624,-2.4607,-2.4572,-2.4574,0.0,-3.8318,-3.8337,-3.887,-3.8353,0.0,0.0,-3.703,-3.6245,-3.5637,-3.5509,-3.5496,-3.5507,-3.55,-3.5654,-3.6173,-3.65,0.0,0.0,0.0,0.0,0.0,0.0,0.0,0.0,0.0,0.0,0.0,0.0,0.0,0.0,-4.7791,-4.7764,-4.7764,-4.8319,-4.8599,-4.8599,-4.8599,-4.8599,-4.8599,-4.8269,-4.8114,-4.8075,-4.7201,0.0,0.0,0.0,0.0,0.0,-4.6002,-4.6002,-4.6002,-4.6002,-4.6002,-4.6002,-4.6002,-4.6002,-4.5924,-4.5433,-4.4481,-4.3471,-4.3258,-4.3185,-4.3127,-4.2792,-4.2461,-4.2194,-4.2194,-4.1568,-4.0907,-4.0907,-4.0907,-4.0907,-4.0907,-3.9625,-3.8406,-3.8406,-3.7023,-3.5795,-3.5795,-3.5795,-3.5344,-3.3938,-3.3421,-3.2729,-3.1308,-3.0806,-3.0595,-3.0597,-3.0602,-3.0554,-3.043,-3.0406,-3.0302,-3.0073,-2.995,-2.9841,-2.972,-2.9701,-2.9701,-2.9701,-2.9701,-2.9701,-2.9701,-2.9701,-2.8875,-2.7204,-2.6522,-2.5664,-2.465,-2.465,-2.4623,0.0,0.0,0.0,0.0,0.0,0.0,0.0,-3.6186,0.0,-3.5528,-3.5515,-3.5515,-3.5507,-3.55,-3.5519,-3.5577,-3.6212,0.0,0.0,0.0,0.0,0.0,0.0,0.0,0.0,0.0,0.0,0.0,0.0,0.0,0.0,-4.6248,-4.6202,-4.6202,-4.7637,-4.8425,-4.8425,-4.8425,-4.8425,-4.8405,-4.7589,-4.722,-4.7181,-4.6366,0.0,0.0,0.0,0.0,0.0,-4.6002,-4.6002,-4.6002,-4.6002,-4.6002,-4.6002,-4.6002,-4.6002,-4.5982,-4.5924,-4.4889,-4.3724,-4.454,-4.4753,-4.4559,-4.3743,-4.2928,-4.2272,-4.2214,-4.1568,-4.0907,-4.0907,-4.0907,-4.0907,-4.0907,-3.9625,-3.8406,-3.8406,-3.7023,-3.5795,-3.5795,-3.5795,-3.5523,-3.4653,-3.3821,-3.297,-3.2043,-3.1215,-3.0662,-3.0619,-3.0597,-3.0598,-3.0598,-3.0598,-3.052,-3.0312,-3.0073,-2.9874,-2.9719,-2.971,-2.9701,-2.9711,-2.9701,-2.9701,-2.9701,-2.957,-2.8763,-2.7204,-2.5515,-2.4703,-2.4709,-2.4709,-2.4666,-3.3766,0.0,-3.622,-3.6273,0.0,0.0,0.0,0.0,0.0,0.0,0.0,0.0,0.0,-3.55,-3.5692,-3.6327,0.0,0.0,0.0,0.0,0.0,0.0,0.0,0.0,0.0,0.0,0.0,0.0,0.0,0.0,0.0,-4.6248,-4.6202,-4.6202,-4.6473,-4.6604,-4.6604,-4.6604,-4.6604,-4.6604,-4.6404,-4.6307,-4.6307,-4.6099,0.0,0.0,0.0,0.0,-4.6002,-4.6002,-4.6002,-4.6002,-4.6002,-4.6002,-4.6002,-4.6002,-4.6002,-4.5905,-4.5297,-4.4812,-4.452,-4.4734,-4.4345,-4.3763,-4.3563,-4.3355,-4.3063,-4.2388,-4.1568,-4.0907,-4.0907,-4.0907,-4.0907,-4.0907,-3.9625,-3.8406,-3.8406,-3.7023,-3.5795,-3.5795,-3.5795,-3.5523,-3.4653,-3.4323,-3.367,-3.2124,-3.1724,-3.1355,-3.0681,-3.0595,-3.0601,-3.0598,-3.0598,-3.052,-3.0312,-3.0247,-3.0115,-2.9874,-2.9857,-2.9816,-2.9692,-2.9701,-2.9701,-2.9701,-2.8444,-2.7599,-2.7204,-2.5515,-2.47,-2.4711,-2.4711,-2.4684,-3.2976,-3.4266,-3.561,-3.5673,-3.5704,-3.5704,0.0,0.0,0.0,0.0,0.0,0.0,0.0,0.0,0.0,0.0,0.0,0.0,0.0,0.0,0.0,0.0,0.0,0.0,0.0,0.0,0.0,0.0,0.0,0.0,0.0,-4.623,-4.6198,-4.6204,-4.6098,-4.6032,-4.6002,-4.6002,-4.6002,-4.6002,-4.6002,-4.6002,-4.6002,-4.6002,-4.6002,0.0,0.0,0.0,-4.6002,-4.6002,-4.6002,-4.6002,-4.6002,-4.6002,-4.5963,-4.5594,-4.5691,-4.5885,-4.5084,-4.5045,-4.522,-4.4443,-4.4151,-4.3957,-4.3141,-4.2908,-4.2714,-4.184,-4.1257,-4.0907,-4.0907,-4.0907,-4.081,-4.0441,-3.9353,-3.8289,-3.7901,-3.6751,-3.5795,-3.5795,-3.5795,-3.5639,-3.5177,-3.4459,-3.3619,-3.268,-3.1853,-3.1177,-3.0711,-3.0617,-3.0604,-3.0601,-3.0597,-3.055,-3.0446,-3.0436,-3.0315,-3.0019,-2.9996,-2.9918,-2.9799,-2.9857,-2.9847,-2.979,-2.8093,-2.7204,-2.7204,-2.5515,-2.47,-2.47,-2.47,-2.47,-3.2956,-3.4189,-3.5455,-3.5654,-3.5704,-3.5704,0.0,0.0,0.0,0.0,0.0,0.0,0.0,0.0,0.0,0.0,0.0,0.0,0.0,0.0,0.0,0.0,0.0,0.0,0.0,0.0,0.0,0.0,0.0,0.0,0.0,-4.6248,-4.6206,-4.6204,-4.6125,-4.6067,-4.6002,-4.6002,-4.6002,-4.6002,-4.6002,-4.6002,-4.6002,-4.6002,-4.6002,0.0,0.0,0.0,-4.5982,-4.5866,-4.5885,-4.5963,-4.573,-4.5769,-4.5905,-4.5103,-4.5317,-4.5905,-4.522,-4.5356,-4.5569,-4.4171,-4.4112,-4.4307,-4.2699,-4.2116,-4.1845,-4.1102,-4.0907,-4.0907,-4.0907,-4.0907,-4.0694,-3.9893,-3.9023,-3.8154,-3.7294,-3.642,-3.5795,-3.5795,-3.5795,-3.5756,-3.562,-3.4536,-3.3546,-3.3157,-3.1957,-3.0995,-3.0739,-3.0641,-3.0606,-3.0604,-3.06,-3.061,-3.0607,-3.0602,-3.0485,-3.019,-3.0157,-3.0073,-2.9945,-3.0037,-3.0044,-2.9937,-2.8294,-2.7374,-2.7236,-2.5698,-2.4881,-2.4719,-2.4719,-2.4734,-3.2802,-3.3726,-3.4683,-3.5499,-3.5704,-3.5704,0.0,0.0,0.0,0.0,0.0,0.0,0.0,0.0,0.0,0.0,0.0,0.0,0.0,0.0,0.0,0.0,0.0,0.0,0.0,0.0,0.0,0.0,0.0,0.0,0.0,-4.6249,-4.6209,-4.6202,-4.6076,-4.6017,-4.6002,-4.6002,-4.6002,-4.6002,-4.6002,-4.6002,-4.6002,-4.6002,-4.6002,-4.6002,0.0,-4.6002,-4.5944,-4.5258,-4.5394,-4.5866,-4.4443,-4.4753,-4.5905,-4.5103,-4.5317,-4.5982,-4.5866,-4.5453,-4.4948,-4.4676,-4.419,-4.351,-4.25,-4.1684,-4.1063,-4.0946,-4.0907,-4.0907,-4.0907,-4.0907,-4.0694,-3.9893,-3.9023,-3.8154,-3.7294,-3.642,-3.5795,-3.5795,-3.5795,-3.5562,-3.4828,-3.51,-3.4688,-3.2512,-3.2609,-3.2369,-3.0898,-3.0696,-3.0665,-3.0602,-3.0608,-3.0595,-3.0595,-3.0592,-3.0583,-3.0535,-3.0367,-3.0209,-3.008,-3.0095,-3.0095,-3.0073,-2.9131,-2.821,-2.7377,-2.6529,-2.5704,-2.4867,-2.4867,-2.4935,-3.2224,-3.2954,-3.3832,-3.4817,-3.5383,-3.5694,0.0,0.0,0.0,0.0,0.0,0.0,0.0,0.0,0.0,0.0,0.0,0.0,0.0,0.0,0.0,0.0,0.0,0.0,0.0,0.0,0.0,0.0,0.0,0.0,0.0,0.0,-4.6172,-4.6152,-4.6092,-4.6041,-4.6002,-4.6002,-4.6002,-4.6002,-4.6002,-4.6002,-4.6002,-4.6002,-4.6002,-4.6002,0.0,-4.6002,-4.5963,-4.5594,-4.5672,-4.5924,-4.5142,-4.5317,-4.5963,-4.5574,-4.5414,-4.5414,-4.5846,-4.5472,-4.4715,-4.4248,-4.351,-4.2636,-4.1762,-4.1218,-4.0907,-4.0907,-4.0907,-4.0907,-4.0907,-4.0907,-4.0577,-3.9295,-3.8697,-3.8037,-3.6692,-3.6086,-3.5795,-3.5795,-3.5795,-3.5523,-3.4653,-3.4478,-3.3891,-3.224,-3.1933,-3.1603,-3.0796,-3.0699,-3.0688,-3.0665,-3.0657,-3.0649,-3.0593,-3.0604,-3.0606,-3.0598,-3.0406,-3.0325,-3.0369,-3.019,-3.0131,-3.0209,-2.9347,-2.8676,-2.8207,-2.6988,-2.6161,-2.5698,-2.5234,-2.5037,-3.1692,-3.2235,-3.2949,0.0,0.0,0.0,0.0,0.0,0.0,0.0,0.0,0.0,0.0,0.0,0.0,0.0,0.0,0.0,0.0,0.0,0.0,0.0,0.0,0.0,0.0,0.0,0.0,0.0,0.0,0.0,0.0,0.0,-4.6178,-4.6123,-4.6116,-4.6072,-4.6061,-4.6027,-4.6012,-4.6002,-4.6002,-4.6002,-4.6002,-4.6002,-4.6002,-4.6002,-4.6002,-4.6002,-4.5982,-4.5808,-4.5827,-4.5963,-4.5569,-4.553,-4.5749,-4.5924,-4.5613,-4.5161,-4.5788,-4.5472,-4.4656,-4.3782,-4.2908,-4.2039,-4.116,-4.0907,-4.0907,-4.0907,-4.0907,-4.0907,-4.0907,-4.0752,-4.0247,-3.8756,-3.8251,-3.7664,-3.6125,-3.5795,-3.5795,-3.5795,-3.5795,-3.5465,-3.44,-3.3856,-3.3157,-3.1891,-3.1292,-3.0923,-3.0733,-3.0694,-3.0706,-3.0711,-3.0704,-3.0669,-3.0606,-3.0606,-3.0589,-3.0597,-3.0456,-3.0441,-3.0593,-3.0352,-3.0279,-3.0378,-2.9663,-2.9187,-2.8938,-2.7683,-2.6858,-2.6433,-2.5757,-2.5365,-3.1465,-3.1794,-3.2097,-3.2984,0.0,0.0,0.0,0.0,0.0,0.0,0.0,0.0,0.0,0.0,0.0,0.0,0.0,0.0,0.0,0.0,0.0,0.0,0.0,0.0,0.0,0.0,0.0,0.0,0.0,0.0,0.0,0.0,0.0,-4.6189,-4.6131,-4.6131,-4.6189,-4.6111,-4.6071,-4.6002,-4.6002,-4.6002,-4.6002,-4.6002,-4.6002,-4.6002,-4.6002,-4.6002,-4.5944,-4.5181,-4.5336,-4.5846,-4.4287,-4.4171,-4.4986,-4.573,-4.5963,-4.5924,-4.5982,-4.5472,-4.4656,-4.3782,-4.2908,-4.2039,-4.116,-4.0907,-4.0907,-4.0907,-4.0907,-4.0907,-4.0907,-4.0344,-3.9548,-3.862,-3.778,-3.6945,-3.6008,-3.5795,-3.5795,-3.5795,-3.5795,-3.529,-3.3662,-3.3954,-3.3588,-3.116,-3.1428,-3.16,-3.081,-3.0694,-3.0694,-3.069,-3.0692,-3.0669,-3.0606,-3.0606,-3.0602,-3.0602,-3.0597,-3.0569,-3.0598,-3.0583,-3.0579,-3.0588,-3.0506,-3.0028,-2.9079,-2.909,-2.8229,-2.6583,-2.6525,-2.6125,-3.0833,-3.1003,-3.1264,-3.2146,0.0,0.0,0.0,0.0,0.0,0.0,0.0,0.0,0.0,0.0,0.0,0.0,0.0,0.0,0.0,0.0,0.0,0.0,0.0,0.0,0.0,0.0,0.0,0.0,0.0,0.0,0.0,0.0,0.0,-4.6191,-4.6188,-4.6165,-4.6199,-4.6165,-4.615,-4.6111,-4.6032,-4.6002,-4.6002,-4.6002,-4.6002,-4.6002,-4.6002,-4.6002,-4.5982,-4.5672,-4.573,-4.5944,-4.5297,-4.5258,-4.5574,-4.5885,-4.6002,-4.5924,-4.5433,-4.4695,-4.386,-4.2966,-4.2092,-4.1335,-4.1005,-4.0907,-4.0907,-4.0907,-4.0538,-4.015,-4.015,-3.9932,-3.9334,-3.7935,-3.7333,-3.6867,-3.5989,-3.5795,-3.5811,-3.5843,-3.5853,-3.532,-3.3602,-3.3548,-3.3052,-3.1009,-3.0984,-3.1067,-3.0736,-3.0694,-3.0694,-3.0694,-3.0706,-3.0699,-3.0668,-3.0657,-3.0665,-3.0665,-3.0628,-3.061,-3.06,-3.0592,-3.0592,-3.06,-3.061,-3.0403,-3.0027,-2.9577,-2.9,-2.8321,-2.7783,-2.7098,-3.0471,-3.0549,-3.0758,0.0,0.0,0.0,0.0,0.0,0.0,0.0,0.0,0.0,0.0,0.0,0.0,0.0,0.0,0.0,0.0,0.0,0.0,0.0,0.0,0.0,0.0,0.0,0.0,0.0,0.0,0.0,0.0,0.0,0.0,0.0,-4.5799,-4.5797,-4.5821,-4.5796,-4.5784,-4.5784,-4.5698,-4.5794,-4.6071,-4.6071,-4.6042,-4.6027,-4.6027,-4.6017,-4.6002,-4.6002,-4.6002,-4.6002,-4.6002,-4.6002,-4.6002,-4.6002,-4.5846,-4.553,-4.4986,-4.4054,-4.2986,-4.2388,-4.1607,-4.0907,-4.0907,-4.0907,-4.0849,-4.0597,-4.013,-3.9563,-3.9023,-3.8887,-3.8576,-3.7372,-3.6887,-3.6522,-3.5966,-3.5838,-3.5859,-3.5885,-3.5895,-3.5357,-3.3607,-3.3299,-3.2726,-3.0983,-3.0726,-3.0728,-3.0694,-3.0704,-3.0698,-3.0694,-3.0694,-3.0694,-3.0694,-3.0699,-3.0692,-3.0692,-3.0657,-3.0621,-3.0606,-3.0595,-3.0595,-3.0606,-3.0593,-3.0617,-3.0637,-3.0075,-2.9676,-2.9388,-2.8791,-2.8034,-3.0487,-3.0552,0.0,0.0,0.0,0.0,0.0,0.0,0.0,0.0,0.0,0.0,0.0,0.0,0.0,0.0,0.0,0.0,0.0,0.0,0.0,0.0,0.0,0.0,0.0,0.0,0.0,0.0,0.0,0.0,0.0,0.0,0.0,0.0,-4.4869,-4.4901,-4.4979,-4.4909,-4.4877,-4.4897,-4.4884,-4.5358,-4.6199,-4.6199,-4.6158,-4.6098,-4.6098,-4.6071,-4.6002,-4.6002,-4.6002,-4.6002,-4.6002,-4.6002,-4.6002,-4.6002,-4.5491,-4.4792,-4.4792,-4.3646,-4.2194,-4.2194,-4.1607,-4.0907,-4.0907,-4.0888,-4.0713,-3.9912,-3.9679,-3.9276,-3.7547,-3.7081,-3.7081,-3.7081,-3.642,-3.5823,-3.5897,-3.5892,-3.5907,-3.5908,-3.5895,-3.5348,-3.3593,-3.33,-3.2714,-3.1055,-3.0801,-3.0771,-3.0709,-3.0701,-3.0703,-3.0701,-3.0694,-3.0694,-3.0694,-3.0694,-3.0694,-3.0694,-3.0692,-3.0669,-3.0606,-3.0606,-3.0606,-3.0606,-3.0606,-3.0637,-3.07,-3.07,-3.0265,-2.9408,-2.9408,-2.8958,-3.046,0.0,0.0,0.0,0.0,0.0,0.0,0.0,0.0,0.0,0.0,0.0,0.0,0.0,0.0,0.0,0.0,0.0,0.0,0.0,0.0,0.0,0.0,0.0,0.0,0.0,0.0,0.0,0.0,0.0,0.0,0.0,0.0,0.0,-4.2233,-4.2538,-4.3161,-4.3144,-4.3441,-4.4066,-4.4059,-4.4816,-4.6199,-4.6199,-4.6192,-4.6177,-4.6111,-4.6089,-4.6071,-4.6017,-4.6002,-4.6002,-4.6002,-4.6002,-4.6002,-4.6002,-4.5491,-4.4715,-4.4093,-4.3141,-4.2097,-4.1471,-4.1102,-4.0907,-4.0907,-4.0499,-4.0014,-3.9776,-3.8829,-3.7754,-3.7228,-3.6677,-3.6268,-3.6268,-3.6067,-3.5884,-3.5896,-3.59,-3.589,-3.5894,-3.5447,-3.4706,-3.3572,-3.2868,-3.2089,-3.0976,-3.0799,-3.0771,-3.0713,-3.0709,-3.0695,-3.0694,-3.0694,-3.0694,-3.0694,-3.0694,-3.0694,-3.0694,-3.0706,-3.068,-3.0676,-3.0622,-3.0622,-3.0672,-3.0677,-3.068,-3.0703,-3.0703,-3.057,-3.0302,-3.0302,-2.9855,-3.0474,0.0,0.0,0.0,0.0,0.0,0.0,0.0,0.0,0.0,0.0,0.0,0.0,0.0,0.0,0.0,0.0,0.0,0.0,0.0,0.0,0.0,0.0,0.0,0.0,0.0,0.0,0.0,0.0,0.0,0.0,0.0,0.0,0.0,-4.1603,-4.187,-4.238,-4.2394,-4.2654,-4.317,-4.3181,-4.3886,-4.5203,-4.5203,-4.537,-4.5686,-4.5617,-4.5393,-4.5058,-4.5026,-4.5006,-4.5006,-4.5006,-4.5006,-4.5006,-4.5006,-4.4481,-4.3685,-4.3161,-4.2403,-4.1607,-4.1063,-4.0907,-4.0849,-4.0519,-4.0092,-3.9563,-3.8868,-3.7902,-3.7026,-3.6718,-3.6252,-3.5901,-3.5903,-3.59,-3.5897,-3.5908,-3.5909,-3.5914,-3.5936,-3.527,-3.4428,-3.3556,-3.2675,-3.1803,-3.0933,-3.0801,-3.0788,-3.0713,-3.0694,-3.0694,-3.0694,-3.0694,-3.0694,-3.0694,-3.0694,-3.0694,-3.0694,-3.0694,-3.0694,-3.0694,-3.0668,-3.0665,-3.0694,-3.0699,-3.0699,-3.0694,-3.0694,-3.0694,-3.0694,-3.0694,-3.0422,0.0,0.0,0.0,0.0,0.0,0.0,0.0,0.0,0.0,0.0,0.0,0.0,0.0,0.0,0.0,0.0,0.0,0.0,0.0,0.0,0.0,0.0,0.0,0.0,0.0,0.0,0.0,0.0,0.0,0.0,0.0,0.0,0.0,-4.1887,-4.2004,-4.2076,-4.2169,-4.2166,-4.2191,0.0,-4.2289,-4.2708,-4.3471,-4.3627,-4.4103,-4.4777,-4.4713,-4.4245,-4.3493,-4.3506,-4.3505,-4.351,-4.3491,-4.3491,-4.351,-4.3491,-4.2952,-4.2194,-4.2194,-4.1626,-4.0907,-4.0907,-4.0849,-4.0655,-3.9912,-3.9582,-3.914,-3.7556,-3.7049,-3.6827,-3.6097,-3.59,-3.5898,-3.5907,-3.5902,-3.5908,-3.5918,-3.5918,-3.5897,-3.588,-3.5174,-3.4295,-3.3435,-3.2558,-3.1719,-3.0917,-3.0801,-3.0774,-3.0715,-3.0703,-3.0701,-3.0694,-3.0694,-3.0694,-3.0694,-3.0694,-3.0694,-3.0694,-3.0694,-3.0694,-3.0694,-3.0694,-3.0694,-3.0694,-3.0694,-3.0694,-3.0694,-3.0694,-3.0694,-3.0694,-3.0694,-3.0694,0.0,0.0,0.0,0.0,0.0,0.0,0.0,0.0,0.0,0.0,0.0,0.0,0.0,0.0,0.0,0.0,0.0,0.0,0.0,0.0,0.0,0.0,0.0,0.0,0.0,0.0,0.0,0.0,0.0,0.0,0.0,0.0,0.0,-3.9279,-3.933,-3.966,-4.0342,-4.0366,-4.0701,0.0,-4.1384,-4.148,-4.1714,-4.3081,-4.3771,-4.3882,-4.3867,-4.3712,-4.3493,-4.3506,-4.3505,-4.3491,-4.351,-4.35,-4.3491,-4.349,-4.2961,-4.2194,-4.2194,-4.1626,-4.0907,-4.0907,-4.048,-3.9932,-3.9757,-3.8751,-3.7579,-3.7215,-3.6657,-3.6124,-3.5946,-3.5897,-3.5918,-3.5971,-3.5988,-3.5987,-3.5983,-3.5982,-3.5785,-3.5117,-3.4276,-3.3398,-3.2539,-3.166,-3.1016,-3.0839,-3.0799,-3.0797,-3.0776,-3.0737,-3.0709,-3.0697,-3.0694,-3.0694,-3.0694,-3.0694,-3.0694,-3.0694,-3.0694,-3.0694,-3.0694,-3.0694,-3.0694,-3.0694,-3.0694,-3.0694,-3.0694,-3.0694,-3.0694,-3.0694,-3.0694,-3.0694,0.0,0.0,0.0,0.0,0.0,0.0,0.0,0.0,0.0,0.0,0.0,0.0,0.0,0.0,0.0,0.0,0.0,0.0,0.0,0.0,0.0,0.0,0.0,0.0,0.0,0.0,0.0,0.0,0.0,0.0,0.0,-3.7523,-3.8166,-3.9043,-3.9507,-3.9962,-4.0412,-4.0429,-4.064,-4.1102,-4.1102,-4.1099,-4.1148,-4.2474,-4.282,-4.2438,-4.2844,-4.276,-4.2347,-4.2327,-4.2291,-4.2295,-4.2296,-4.2299,-4.2304,-4.2306,-4.1998,-4.1587,-4.1587,-4.1276,-4.0907,-4.0907,-4.0364,-3.9621,-3.9198,-3.8148,-3.7024,-3.6621,-3.622,-3.5905,-3.5898,-3.5917,-3.5969,-3.5996,-3.5992,-3.5992,-3.5992,-3.5992,-3.5738,-3.4861,-3.4003,-3.3123,-3.2246,-3.1387,-3.0805,-3.0794,-3.08,-3.08,-3.0804,-3.0732,-3.0691,-3.0703,-3.0691,-3.0694,-3.0694,-3.0694,-3.0694,-3.0694,-3.0694,-3.0694,-3.0694,-3.0694,-3.0694,-3.0694,-3.0694,-3.0694,-3.0694,-3.0694,-3.0694,-3.0694,-3.0694,-3.0694,0.0,0.0,0.0,0.0,0.0,0.0,0.0,0.0,0.0,0.0,0.0,0.0,0.0,0.0,0.0,0.0,0.0,0.0,0.0,0.0,0.0,0.0,0.0,0.0,0.0,0.0,0.0,0.0,0.0,0.0,-3.7029,-3.7774,-3.8579,-3.9447,-4.022,-4.0701,-4.0879,-4.0884,-4.0955,-4.1093,-4.0956,-4.0872,-4.0894,-4.1479,-4.1518,-4.1147,-4.1868,-4.1779,-4.1091,-4.1025,-4.099,-4.099,-4.1016,-4.102,-4.1003,-4.1003,-4.096,-4.0917,-4.0893,-4.0907,-4.0888,-4.0733,-4.0135,-3.9308,-3.8447,-3.7576,-3.6752,-3.6096,-3.5908,-3.5897,-3.5917,-3.5968,-3.5992,-3.5992,-3.5992,-3.5992,-3.5992,-3.5875,-3.5524,-3.4647,-3.3651,-3.2713,-3.1992,-3.1289,-3.0807,-3.08,-3.08,-3.0801,-3.081,-3.0747,-3.0724,-3.0715,-3.0709,-3.0691,-3.0691,-3.0701,-3.0694,-3.0694,-3.0694,-3.0694,-3.0694,-3.0694,-3.0694,-3.0694,-3.0694,-3.0694,-3.0694,-3.0694,-3.0694,-3.0694,-3.0694,-3.0694,0.0,0.0,0.0,0.0,0.0,0.0,0.0,0.0,0.0,0.0,0.0,0.0,0.0,0.0,0.0,0.0,0.0,0.0,0.0,0.0,0.0,0.0,0.0,0.0,0.0,0.0,0.0,0.0,0.0,0.0,-3.6964,-3.7184,-3.7673,-3.8548,-3.8706,-3.9148,-3.9964,-3.9968,-4.0347,-4.109,-4.0332,-3.9974,-3.9956,-3.9372,-3.984,-4.1108,-4.1222,-4.121,-4.1091,-4.1025,-4.099,-4.1013,-4.1059,-4.105,-4.1003,-4.1003,-4.0983,-4.098,-4.0921,-4.0907,-4.0791,-4.0092,-3.9278,-3.8404,-3.7539,-3.6716,-3.6046,-3.5937,-3.5898,-3.5915,-3.5977,-3.5991,-3.5992,-3.5992,-3.5992,-3.5992,-3.5992,-3.5408,-3.4627,-3.3748,-3.2264,-3.1113,-3.0995,-3.0878,-3.0801,-3.0805,-3.0806,-3.0793,-3.0801,-3.078,-3.0796,-3.0798,-3.0722,-3.0691,-3.0691,-3.0707,-3.0694,-3.0694,-3.0694,-3.0694,-3.0694,-3.0694,-3.0694,-3.0694,-3.0694,-3.0694,-3.0694,-3.0694,-3.0694,-3.0694,-3.0694,-3.0694,0.0,0.0,0.0,0.0,0.0,0.0,0.0,0.0,0.0,0.0,0.0,0.0,0.0,0.0,0.0,0.0,0.0,0.0,0.0,0.0,0.0,0.0,0.0,0.0,0.0,0.0,0.0,0.0,0.0,-3.5902,-3.625,-3.6808,-3.7284,-3.7658,-3.8173,-3.8649,-3.9066,-3.9062,-3.9518,-4.0352,-3.9492,-3.9332,-3.9777,-3.8967,-3.9255,-4.0366,-4.0377,-4.0647,-4.1056,-4.0537,-4.0337,-4.034,-4.0368,-4.0359,-4.0393,-4.0881,-4.1026,-4.0996,-4.0961,-4.0638,-4.0178,-3.9818,-3.8811,-3.7642,-3.7228,-3.6532,-3.5898,-3.5896,-3.5905,-3.5929,-3.5981,-3.6002,-3.6006,-3.5991,-3.5621,-3.5271,-3.5271,-3.4979,-3.4295,-3.2949,-3.166,-3.08,-3.0796,-3.0796,-3.0795,-3.0809,-3.0809,-3.0794,-3.0806,-3.0796,-3.08,-3.08,-3.0731,-3.0714,-3.0749,-3.0711,-3.0698,-3.0709,-3.0695,-3.0694,-3.0694,-3.0694,-3.0694,-3.0694,-3.0694,-3.0694,-3.0694,-3.0694,-3.0694,-3.0694,-3.0694,-3.0694,0.0,0.0,0.0,0.0,0.0,0.0,0.0,0.0,0.0,0.0,0.0,0.0,0.0,0.0,0.0,0.0,0.0,0.0,0.0,0.0,0.0,0.0,0.0,0.0,0.0,0.0,0.0,0.0,0.0,-3.5704,-3.5704,-3.6358,-3.6757,-3.677,-3.7462,-3.7946,-3.8177,-3.838,-3.8719,-3.9126,-3.8278,-3.8086,-3.8476,-3.788,-3.8065,-3.887,-3.9294,-3.9858,-4.0406,-3.9761,-3.9624,-3.978,-3.9566,-3.9753,-4.0168,-4.0355,-4.0697,-4.0951,-4.049,-4.0055,-3.9637,-3.9171,-3.8195,-3.7149,-3.6871,-3.6385,-3.5901,-3.5901,-3.5901,-3.5914,-3.5968,-3.5994,-3.5939,-3.5711,-3.5168,-3.4584,-3.4139,-3.4042,-3.3593,-3.2069,-3.1248,-3.0796,-3.0791,-3.0809,-3.0807,-3.0799,-3.0798,-3.0798,-3.0798,-3.08,-3.0791,-3.0791,-3.0761,-3.0741,-3.0797,-3.074,-3.07,-3.0693,-3.0699,-3.0698,-3.0698,-3.0697,-3.0707,-3.0707,-3.0701,-3.0691,-3.0694,-3.0694,-3.0694,-3.0694,-3.0694,-3.0694,0.0,0.0,0.0,0.0,0.0,0.0,0.0,0.0,0.0,0.0,0.0,0.0,0.0,0.0,0.0,0.0,0.0,0.0,0.0,0.0,0.0,0.0,0.0,0.0,0.0,0.0,0.0,0.0,0.0,-3.5704,-3.5704,-3.5761,-3.5809,-3.5872,-3.5978,-3.6427,-3.7256,-3.809,-3.8115,-3.7333,-3.6529,-3.5717,-3.4959,-3.4914,-3.5378,-3.6286,-3.7934,-3.8689,-3.8728,-3.8689,-3.9118,-3.9722,-3.8962,-3.9626,-4.0833,-3.923,-3.9687,-4.0857,-3.913,-3.9054,-3.9429,-3.7776,-3.7222,-3.7051,-3.6206,-3.5938,-3.5898,-3.5907,-3.5902,-3.5909,-3.5892,-3.5958,-3.5791,-3.4954,-3.472,-3.4257,-3.2595,-3.2247,-3.1952,-3.1049,-3.0833,-3.0791,-3.0801,-3.0799,-3.0799,-3.0798,-3.0798,-3.0798,-3.0798,-3.0799,-3.0801,-3.0801,-3.0808,-3.0798,-3.0798,-3.0741,-3.0698,-3.0697,-3.0696,-3.0696,-3.0696,-3.0705,-3.0698,-3.0698,-3.0706,-3.0695,-3.0694,-3.0694,-3.0694,-3.0694,-3.0694,-3.0694,0.0,0.0,0.0,0.0,0.0,0.0,0.0,0.0,0.0,0.0,0.0,0.0,0.0,0.0,0.0,0.0,0.0,0.0,0.0,0.0,0.0,0.0,0.0,0.0,0.0,0.0,0.0,0.0,0.0,0.0,-3.5665,-3.5698,-3.5727,-3.5795,-3.588,-3.6054,-3.6356,-3.6123,-3.6114,-3.6343,-3.4988,-3.4453,-3.4671,-3.412,-3.4043,-3.4375,-3.498,-3.6537,-3.8552,-3.8006,-3.7946,-3.816,-3.7887,-3.8474,-3.9412,-3.8754,-3.8905,-3.9346,-3.8686,-3.7945,-3.724,-3.7186,-3.6808,-3.6311,-3.5994,-3.5899,-3.5907,-3.5894,-3.5894,-3.5899,-3.5907,-3.5522,-3.4807,-3.337,-3.3021,-3.2711,-3.1528,-3.1276,-3.1178,-3.0863,-3.0804,-3.0801,-3.081,-3.0808,-3.0804,-3.0798,-3.0795,-3.0795,-3.0795,-3.0795,-3.0795,-3.0795,-3.081,-3.0801,-3.0807,-3.0772,-3.076,-3.0761,-3.0721,-3.0699,-3.0699,-3.0692,-3.0706,-3.0706,-3.0704,-3.0708,-3.0694,-3.0697,-3.0694,-3.0694,-3.0697,-3.0695,0.0,0.0,0.0,0.0,0.0,0.0,0.0,0.0,0.0,0.0,0.0,0.0,0.0,0.0,0.0,0.0,0.0,0.0,0.0,0.0,0.0,0.0,0.0,0.0,0.0,0.0,0.0,0.0,0.0,0.0,-3.4795,-3.5137,-3.5469,-3.5819,-3.5878,-3.5752,-3.546,-3.4895,-3.4606,-3.4606,-3.3491,-3.311,-3.3374,-3.3095,-3.2964,-3.2981,-3.3278,-3.4707,-3.6804,-3.6222,-3.6162,-3.6393,-3.6105,-3.6868,-3.8061,-3.7441,-3.7772,-3.8414,-3.7829,-3.7065,-3.6383,-3.6668,-3.6378,-3.5903,-3.5897,-3.5908,-3.5908,-3.5908,-3.5908,-3.5833,-3.5532,-3.4657,-3.3548,-3.2385,-3.1878,-3.1508,-3.0923,-3.0794,-3.0798,-3.0794,-3.0792,-3.081,-3.0798,-3.0795,-3.0791,-3.0801,-3.0801,-3.0801,-3.0801,-3.0801,-3.0801,-3.0801,-3.0801,-3.0804,-3.0793,-3.0801,-3.0796,-3.0801,-3.0755,-3.0739,-3.0739,-3.0722,-3.0723,-3.0723,-3.0722,-3.071,-3.0697,-3.0706,-3.0706,-3.0697,-3.0706,-3.0698,0.0,0.0,0.0,0.0,0.0,0.0,0.0,0.0,0.0,0.0,0.0,0.0,0.0,0.0,0.0,0.0,0.0,0.0,0.0,0.0,0.0,0.0,0.0,0.0,0.0,0.0,0.0,0.0,0.0,-3.3063,-3.3107,-3.3979,-3.4885,-3.582,-3.5855,-3.546,-3.4606,-3.4606,-3.3768,-3.2092,-3.2104,-3.1634,-3.0823,-3.1702,-3.2098,-3.2142,-3.3019,-3.3398,-3.3397,-3.3398,-3.3906,-3.4588,-3.373,-3.4939,-3.6951,-3.5309,-3.6285,-3.8178,-3.6498,-3.643,-3.6976,-3.6138,-3.585,-3.585,-3.585,-3.585,-3.5869,-3.5889,-3.5889,-3.5655,-3.4759,-3.332,-3.2092,-3.2072,-3.1427,-3.0801,-3.0801,-3.0802,-3.0794,-3.0802,-3.08,-3.0795,-3.0804,-3.0801,-3.0801,-3.0801,-3.0801,-3.0801,-3.0801,-3.0801,-3.0801,-3.0801,-3.0801,-3.0801,-3.0801,-3.0801,-3.0801,-3.0801,-3.0801,-3.0801,-3.0801,-3.0792,-3.0809,-3.0809,-3.0794,-3.0761,-3.07,-3.0699,-3.0699,-3.0699,-3.0699,-3.0699,-3.2344,0.0,0.0,0.0,0.0,0.0,0.0,0.0,0.0,0.0,0.0,0.0,0.0,0.0,0.0,0.0,0.0,0.0,0.0,0.0,0.0,0.0,0.0,0.0,0.0,0.0,0.0,0.0,-3.2108,-3.2386,-3.3063,-3.3386,-3.3981,-3.4925,-3.4959,-3.4837,-3.4606,-3.4606,-3.3768,-3.2092,-3.2104,-3.1634,-3.0821,-3.1703,-3.2097,-3.2149,-3.3015,-3.3406,-3.3404,-3.3394,-3.3533,-3.3749,-3.3494,-3.4607,-3.6207,-3.5102,-3.5507,-3.6542,-3.6077,-3.5654,-3.5283,-3.5037,-3.4954,-3.4954,-3.4954,-3.4954,-3.509,-3.5713,-3.5441,-3.4625,-3.3164,-3.2443,-3.1936,-3.131,-3.0977,-3.0801,-3.0801,-3.0806,-3.0791,-3.0806,-3.0806,-3.0806,-3.0801,-3.0801,-3.0801,-3.0801,-3.0801,-3.0801,-3.0801,-3.0801,-3.0801,-3.0801,-3.0801,-3.0801,-3.0801,-3.0801,-3.0801,-3.0801,-3.0801,-3.0801,-3.0801,-3.0798,-3.0806,-3.0806,-3.081,-3.0796,-3.0767,-3.0775,-3.0742,-3.0699,-3.0742,-3.0776,0.0,0.0,0.0,0.0,0.0,0.0,0.0,-3.0211,0.0,0.0,0.0,0.0,0.0,0.0,0.0,0.0,0.0,0.0,0.0,0.0,0.0,0.0,0.0,0.0,0.0,0.0,0.0,-3.1135,-3.1143,-3.1534,-3.2475,-3.2585,-3.3044,-3.3988,-3.4406,-3.4431,-3.4061,-3.4091,-3.3436,-3.2092,-3.1722,-3.1291,-3.0821,-3.133,-3.1761,-3.2131,-3.2638,-3.3059,-3.3409,-3.3409,-3.3186,-3.2861,-3.2853,-3.3476,-3.4312,-3.3807,-3.4133,-3.4854,-3.4867,-3.4528,-3.4099,-3.4099,-3.4099,-3.4099,-3.4099,-3.4099,-3.4216,-3.4703,-3.4235,-3.3339,-3.2345,-3.1839,-3.1427,-3.0918,-3.0801,-3.0801,-3.0801,-3.0764,-3.0737,-3.0796,-3.0801,-3.0801,-3.0801,-3.0801,-3.0801,-3.0801,-3.0801,-3.0801,-3.0801,-3.0801,-3.0801,-3.0801,-3.0801,-3.0801,-3.0801,-3.0801,-3.0801,-3.0801,-3.0801,-3.0801,-3.0801,-3.0801,-3.0801,-3.0801,-3.0801,-3.0801,-3.0801,-3.0801,-3.0784,-3.0736,-3.0783,-3.0803,0.0,0.0,0.0,0.0,0.0,0.0,-3.0211,-3.0211,-3.0211,0.0,0.0,0.0,0.0,0.0,0.0,0.0,0.0,0.0,0.0,0.0,0.0,0.0,0.0,0.0,0.0,-3.0396,-3.0354,-3.031,-3.0304,-3.0661,-3.1515,-3.1625,-3.2087,-3.3046,-3.3883,-3.3936,-3.3155,-3.3401,-3.3008,-3.1956,-3.1369,-3.1035,-3.0957,-3.1035,-3.1563,-3.2384,-3.2482,-3.2969,-3.369,-3.369,-3.3104,-3.2248,-3.224,-3.2248,-3.2248,-3.2248,-3.2735,-3.3397,-3.3397,-3.3397,-3.3378,-3.3281,-3.3261,-3.3261,-3.3261,-3.3261,-3.3261,-3.3261,-3.2696,-3.2072,-3.1975,-3.1388,-3.0801,-3.0801,-3.0796,-3.0772,-3.0772,-3.0688,-3.062,-3.0734,-3.0764,-3.0764,-3.0764,-3.0769,-3.0772,-3.0772,-3.0796,-3.0801,-3.0801,-3.0801,-3.0801,-3.0801,-3.0801,-3.0801,-3.0801,-3.0801,-3.0801,-3.0801,-3.0801,-3.0801,-3.0801,-3.0801,-3.0801,-3.0801,-3.0801,-3.0801,-3.0801,-3.0801,-3.0801,-3.0801,-3.0801,-3.0801,0.0,0.0,0.0,0.0,0.0,0.0,-3.0211,-3.0211,-3.0211,0.0,0.0,0.0,0.0,0.0,0.0,0.0,0.0,0.0,0.0,0.0,0.0,0.0,0.0,0.0,0.0,-3.0323,-3.031,-3.031,-3.0304,-3.0392,-3.0642,-3.0723,-3.1219,-3.2198,-3.2415,-3.2435,-3.226,-3.3654,-3.3259,-3.1074,-3.2304,-3.254,-3.1878,-3.2579,-3.3339,-3.4157,-3.4856,-3.5265,-3.5402,-3.5402,-3.4511,-3.3154,-3.3147,-3.3144,-3.3144,-3.3144,-3.3242,-3.3397,-3.3397,-3.3397,-3.3281,-3.2579,-3.2345,-3.2345,-3.2345,-3.2345,-3.2345,-3.2345,-3.2228,-3.1936,-3.1232,-3.0938,-3.0801,-3.0801,-3.0728,-3.0633,-3.0633,-3.0572,-3.0533,-3.055,-3.0554,-3.0554,-3.0554,-3.0595,-3.0633,-3.0633,-3.0734,-3.0801,-3.0801,-3.0801,-3.0801,-3.0801,-3.0801,-3.0801,-3.0801,-3.0801,-3.0801,-3.0801,-3.0801,-3.0801,-3.0801,-3.0801,-3.0801,-3.0801,-3.0801,-3.0801,-3.0801,-3.0801,-3.0801,-3.0801,-3.0801,-3.0801,0.0,0.0,0.0,-3.0211,0.0,0.0,0.0,-2.9969,-2.9905,0.0,0.0,0.0,0.0,0.0,0.0,0.0,0.0,0.0,0.0,0.0,0.0,0.0,0.0,0.0,0.0,-3.0227,-3.0234,-3.02,-3.0195,-3.0221,-3.0299,-3.0398,-3.0699,-3.123,-3.1737,-3.2007,-3.2007,-3.2895,-3.2715,-3.1447,-3.1895,-3.1875,-3.1466,-3.1895,-3.2791,-3.4021,-3.4469,-3.5129,-3.5908,-3.5908,-3.5402,-3.4606,-3.4177,-3.3748,-3.3358,-3.291,-3.2754,-3.2696,-3.2245,-3.2109,-3.2031,-3.1583,-3.1447,-3.1447,-3.1447,-3.1447,-3.1447,-3.1447,-3.1447,-3.1349,-3.0918,-3.0742,-3.0728,-3.0774,-3.0675,-3.0564,-3.0586,-3.049,-3.0397,-3.0397,-3.0373,-3.0373,-3.0482,-3.0522,-3.0552,-3.0552,-3.0607,-3.0662,-3.0697,-3.0703,-3.0731,-3.0799,-3.0801,-3.0801,-3.0801,-3.0801,-3.0801,-3.0801,-3.0801,-3.0801,-3.0801,-3.0801,-3.0801,-3.0801,-3.0801,-3.0801,-3.0801,-3.0801,-3.0801,-3.0801,-3.0801,-3.0801,0.0,0.0,0.0,0.0,0.0,-2.9888,0.0,0.0,0.0,0.0,0.0,0.0,0.0,0.0,0.0,0.0,0.0,0.0,0.0,0.0,0.0,0.0,0.0,0.0,0.0,-3.0164,-3.015,-3.0091,-3.0106,-3.0123,-3.0199,-3.0317,-3.0403,-3.0462,-3.1286,-3.1735,-3.1735,-3.1969,-3.2009,-3.1839,-3.1283,-3.105,-3.1055,-3.1055,-3.1992,-3.3631,-3.3631,-3.4489,-3.5908,-3.5908,-3.5908,-3.583,-3.5129,-3.4352,-3.3553,-3.2832,-3.2384,-3.1995,-3.1291,-3.0938,-3.0801,-3.0801,-3.0801,-3.0801,-3.0801,-3.0801,-3.0801,-3.0801,-3.0774,-3.0767,-3.0767,-3.0665,-3.0605,-3.0719,-3.0591,-3.0472,-3.0532,-3.0409,-3.0291,-3.0291,-3.0247,-3.0241,-3.0411,-3.0457,-3.0467,-3.0467,-3.0487,-3.0528,-3.0564,-3.0586,-3.0636,-3.0742,-3.0774,-3.0801,-3.0801,-3.0801,-3.0801,-3.0801,-3.0796,-3.0774,-3.0774,-3.0789,-3.0786,-3.0786,-3.0786,-3.0786,-3.0786,-3.0772,-3.0796,-3.0801,-3.0801,-3.0801,0.0,0.0,0.0,0.0,-2.9932,0.0,0.0,0.0,0.0,0.0,0.0,0.0,0.0,0.0,0.0,0.0,0.0,0.0,0.0,0.0,0.0,0.0,0.0,0.0,0.0,0.0,-3.0109,-3.0101,-3.0101,-3.0138,-3.0202,-3.0267,-3.0311,-3.0315,-3.0617,-3.0758,-3.0758,-3.1592,-3.1654,-3.0957,-3.1576,-3.1891,-3.1956,-3.1956,-3.2871,-3.4469,-3.4469,-3.5012,-3.5908,-3.5908,-3.5908,-3.5889,-3.5791,-3.5226,-3.445,-3.4352,-3.3378,-3.2092,-3.1995,-3.1447,-3.0801,-3.0801,-3.0801,-3.0801,-3.0801,-3.0801,-3.0801,-3.0801,-3.0709,-3.0626,-3.0626,-3.0568,-3.0519,-3.0528,-3.0423,-3.0331,-3.0323,-3.0279,-3.0213,-3.0213,-3.0218,-3.0218,-3.0233,-3.0273,-3.0325,-3.0325,-3.0418,-3.0501,-3.0515,-3.0568,-3.0616,-3.0626,-3.0734,-3.0801,-3.0801,-3.0801,-3.0801,-3.0801,-3.0739,-3.0706,-3.0706,-3.0701,-3.0704,-3.0704,-3.0704,-3.0704,-3.0704,-3.0713,-3.0739,-3.0801,-3.0801,-3.0801,0.0,0.0,0.0,0.0,0.0,0.0,0.0,0.0,-2.9249,0.0,0.0,0.0,0.0,0.0,0.0,0.0,0.0,0.0,0.0,0.0,0.0,0.0,0.0,0.0,0.0,0.0,0.0,0.0,0.0,-3.0145,-3.014,-3.0235,-3.0292,-3.0304,-3.0422,-3.0487,-3.0487,-3.0862,-3.0897,-3.0579,-3.0994,-3.1472,-3.1984,-3.1978,-3.2901,-3.4485,-3.4431,-3.4896,-3.5668,-3.5749,-3.5771,-3.5771,-3.5771,-3.5603,-3.5285,-3.4798,-3.3865,-3.2774,-3.2287,-3.1525,-3.0879,-3.1388,-3.1504,-3.1433,-3.1433,-3.1057,-3.063,-3.063,-3.0587,-3.0539,-3.0539,-3.0467,-3.0402,-3.0487,-3.0331,-3.0209,-3.0284,-3.0228,-3.0157,-3.0185,-3.0211,-3.0211,-3.0211,-3.0214,-3.0235,-3.0235,-3.0286,-3.0346,-3.0375,-3.0404,-3.0458,-3.0535,-3.0564,-3.0602,-3.0671,-3.0685,-3.0691,-3.0737,-3.0713,-3.0695,-3.0695,-3.0701,-3.0694,-3.0694,-3.0694,-3.0694,-3.0694,-3.0707,-3.0701,-3.0736,-3.0786,-3.0801,-3.0211,0.0,0.0,0.0,0.0,0.0,0.0,0.0,0.0,0.0,0.0,0.0,0.0,0.0,0.0,0.0,0.0,0.0,0.0,0.0,0.0,0.0,0.0,0.0,0.0,0.0,0.0,-3.0101,-3.015,-3.0157,-3.0094,-3.0188,-3.0241,-3.0221,-3.0296,-3.0353,-3.0353,-3.0356,-3.0383,-3.0399,-3.0476,-3.0961,-3.1824,-3.1812,-3.2729,-3.4323,-3.4262,-3.4718,-3.5516,-3.5611,-3.5654,-3.5678,-3.5654,-3.5693,-3.5712,-3.5093,-3.4387,-3.3604,-3.2981,-3.2213,-3.1617,-3.2208,-3.2172,-3.1895,-3.1868,-3.1213,-3.0501,-3.0501,-3.0477,-3.0452,-3.0452,-3.0342,-3.0266,-3.0378,-3.0235,-3.013,-3.0222,-3.0168,-3.0101,-3.0157,-3.0176,-3.0176,-3.0176,-3.0164,-3.0171,-3.0171,-3.0164,-3.0199,-3.0235,-3.026,-3.0314,-3.0407,-3.0409,-3.0438,-3.054,-3.0548,-3.0556,-3.0591,-3.0618,-3.0645,-3.0614,-3.0649,-3.068,-3.068,-3.068,-3.068,-3.068,-3.0672,-3.0676,-3.0676,-3.0736,-3.0778,0.0,0.0,0.0,-2.9707,0.0,0.0,0.0,0.0,-2.9005,0.0,0.0,0.0,0.0,0.0,0.0,0.0,0.0,0.0,0.0,0.0,0.0,0.0,0.0,0.0,0.0,0.0,0.0,-3.0101,-3.0101,-3.0094,-3.0102,-3.0094,-3.0079,-3.0003,-3.0148,-3.0216,-3.0216,-3.0271,-3.0334,-3.0407,-3.0334,-3.0777,-3.1612,-3.1612,-3.2519,-3.4119,-3.4113,-3.4639,-3.5504,-3.549,-3.5546,-3.5593,-3.5521,-3.5516,-3.5521,-3.5549,-3.5098,-3.4455,-3.4435,-3.3946,-3.3309,-3.3199,-3.2594,-3.1883,-3.1743,-3.113,-3.0501,-3.0501,-3.0402,-3.0308,-3.0308,-3.0209,-3.0116,-3.0116,-3.0106,-3.0102,-3.011,-3.0102,-3.0102,-3.0102,-3.0102,-3.0102,-3.0102,-3.0106,-3.0109,-3.0109,-3.0098,-3.0102,-3.011,-3.0155,-3.0196,-3.0203,-3.0317,-3.0407,-3.0413,-3.0413,-3.0372,-3.0317,-3.0427,-3.0481,-3.0409,-3.0525,-3.0602,-3.0602,-3.0602,-3.0602,-3.0602,-3.0608,-3.0606,-3.061,-3.0676,-3.0697,0.0,0.0,-3.0094,-2.9707,0.0,0.0,0.0,0.0,0.0,0.0,0.0,0.0,0.0,0.0,0.0,0.0,0.0,0.0,0.0,0.0,0.0,0.0,0.0,0.0,0.0,0.0,0.0,-3.0091,-3.0142,-3.0142,0.0,-3.011,-3.0068,-3.0007,-3.0007,-3.0004,-3.0004,-3.0015,-3.0078,-3.0135,-3.0209,-3.0689,-3.1558,-3.2097,-3.2922,-3.4002,-3.4535,-3.4932,-3.5251,-3.5325,-3.5386,-3.5393,-3.538,-3.54,-3.5436,-3.5467,-3.493,-3.4165,-3.3639,-3.3655,-3.3935,-3.3936,-3.3311,-3.2557,-3.2513,-3.1474,-3.0292,-3.0292,-3.0235,-3.0174,-3.0174,-3.0138,-3.0091,-3.0091,-3.0061,-3.0038,-3.0095,-3.0072,-3.0038,-3.0095,-3.0095,-3.0095,-3.0095,-3.0061,-3.0061,-3.0091,-3.0102,-3.0095,-3.0095,-3.0121,-3.013,-3.013,-3.0133,-3.0182,-3.0253,-3.0306,-3.0323,-3.03,-3.034,-3.0361,-3.0323,-3.0411,-3.0479,-3.0479,-3.055,-3.0598,-3.0598,-3.0592,-3.0601,-3.0601,-3.0619,-3.0661,-3.0211,-3.0211,0.0,-2.9786,-2.9707,0.0,-2.9291,0.0,0.0,0.0,0.0,0.0,0.0,0.0,0.0,0.0,0.0,0.0,0.0,-2.9293,0.0,0.0,0.0,0.0,0.0,0.0,-3.0003,-3.0053,-3.0132,-3.014,0.0,0.0,-3.003,-2.9964,-2.9913,-2.9897,-2.9897,-2.9897,-2.9913,-2.9964,-3.0053,-3.0546,-3.1415,-3.1928,-3.2764,-3.3854,-3.438,-3.4791,-3.5065,-3.5152,-3.5205,-3.5232,-3.5197,-3.5224,-3.5271,-3.5285,-3.4967,-3.4449,-3.3923,-3.414,-3.4587,-3.4324,-3.3615,-3.2808,-3.2474,-3.1345,-3.015,-3.0164,-3.0135,-3.0106,-3.0106,-3.0083,-3.0053,-3.0053,-3.0014,-2.9972,-3.0022,-2.9988,-2.9972,-3.0022,-3.003,-3.003,-3.003,-2.998,-2.9999,-3.0046,-3.0038,-3.003,-3.003,-3.003,-3.003,-3.003,-2.998,-3.0,-3.008,-3.0124,-3.0157,-3.0157,-3.0202,-3.0233,-3.0233,-3.0317,-3.0365,-3.0365,-3.0442,-3.0493,-3.0493,-3.0493,-3.0509,-3.0535,-3.0535,-3.0554]},{"header":{"parameterUnit":"m.s-1","parameterCategory":1,"la1":30.6,"la2":29.2853,"lo1":-89.7004,"lo2":-87.6739,"dy":0.0162,"dx":0.0183,"nx":112,"ny":82,"refTime":"2023-07-23T18:00:00:Z","depth":0,"parameterNumber":3,"parameterNumberName":"V-component_of_WINDS"},"data":[0.0,0.0,0.0,0.0,0.0,0.0,0.0,0.0,0.0,0.0,0.0,0.0,0.0,0.0,0.0,0.0,0.0,0.0,0.0,0.0,0.0,0.0,0.0,0.0,0.0,0.0,0.0,0.0,0.0,0.0,0.0,0.0,0.0,0.0,0.0,0.0,0.0,0.0,0.0,0.0,0.0,0.0,0.0,0.0,0.0,0.0,0.0,0.0,0.0,0.0,0.0,0.0,0.0,0.0,0.0,0.0,0.0,0.0,0.0,0.0,0.0,0.0,0.0,0.0,0.0,0.0,0.0,0.0,0.0,0.0,0.0,0.0,0.0,0.0,0.0,0.0,0.0,0.0,0.0,0.0,0.0,0.0,0.0,0.0,0.0,0.0,0.0,0.0,0.0,0.0,0.0,-1.1853,-1.2261,-1.2519,-1.2666,-1.2556,-1.2267,-1.1765,0.0,0.0,0.0,0.0,0.0,0.0,0.0,0.0,0.0,0.0,0.0,0.0,0.0,0.0,0.0,0.0,0.0,0.0,0.0,0.0,0.0,0.0,0.0,0.0,0.0,0.0,0.0,0.0,0.0,0.0,0.0,0.0,0.0,0.0,0.0,0.0,0.0,0.0,0.0,0.0,0.0,0.0,0.0,0.0,0.0,0.0,0.0,0.0,0.0,0.0,0.0,0.0,0.0,0.0,0.0,0.0,0.0,0.0,0.0,0.0,0.0,0.0,0.0,0.0,0.0,0.0,0.0,0.0,0.0,0.0,0.0,0.0,0.0,0.0,0.0,0.0,0.0,0.0,0.0,0.0,0.0,0.0,0.0,0.0,0.0,0.0,0.0,0.0,0.0,0.0,0.0,0.0,0.0,0.0,0.0,0.0,0.0,0.0,0.0,0.0,0.0,0.0,0.0,0.0,-1.124,-1.2816,-1.3164,-1.3564,-1.4207,-1.3673,-1.3291,-1.3256,0.0,0.0,0.0,0.0,0.0,0.0,0.0,0.0,0.0,0.0,0.0,0.0,0.0,0.0,0.0,0.0,0.0,0.0,0.0,0.0,0.0,0.0,0.0,0.0,0.0,0.0,0.0,0.0,0.0,0.0,0.0,0.0,0.0,0.0,0.0,0.0,0.0,0.0,0.0,0.0,0.0,0.0,0.0,0.0,0.0,0.0,0.0,0.0,0.0,0.0,0.0,0.0,0.0,0.0,0.0,0.0,0.0,0.0,0.0,0.0,0.0,0.0,0.0,0.0,0.0,0.0,0.0,0.0,0.0,0.0,0.0,0.0,0.0,0.0,0.0,0.0,0.0,0.0,0.0,0.0,0.0,0.0,0.0,0.0,0.0,0.0,0.0,0.0,0.0,0.0,0.0,0.0,0.0,0.0,0.0,0.0,0.0,0.0,0.0,0.0,0.0,0.0,0.0,-1.1264,-1.1859,-1.3765,-1.3673,-1.3818,-1.453,-1.4279,-1.3964,-1.3624,-1.3867,0.0,0.0,0.0,0.0,0.0,0.0,0.0,0.0,0.0,0.0,0.0,0.0,0.0,0.0,0.0,0.0,0.0,0.0,0.0,0.0,0.0,0.0,0.0,0.0,0.0,0.0,0.0,0.0,0.0,0.0,0.0,0.0,0.0,0.0,0.0,0.0,0.0,0.0,0.0,0.0,0.0,0.0,0.0,0.0,0.0,0.0,0.0,0.0,0.0,0.0,0.0,0.0,0.0,0.0,0.0,0.0,0.0,0.0,0.0,0.0,0.0,0.0,0.0,0.0,0.0,0.0,0.0,0.0,0.0,0.0,0.0,0.0,0.0,0.0,0.0,0.0,0.0,0.0,0.0,0.0,0.0,0.0,0.0,0.0,0.0,0.0,0.0,0.0,0.0,0.0,0.0,0.0,0.0,0.0,0.0,0.0,0.0,0.0,0.0,0.0,0.0,0.0,-1.219,-1.2684,-1.4684,-1.4394,-1.4358,-1.5073,-1.4893,-1.4576,-1.4115,-1.4179,0.0,0.0,0.0,0.0,0.0,0.0,0.0,0.0,0.0,0.0,0.0,0.0,0.0,0.0,0.0,0.0,0.0,0.0,0.0,0.0,0.0,0.0,0.0,0.0,0.0,0.0,0.0,0.0,0.0,0.0,0.0,0.0,0.0,0.0,0.0,0.0,0.0,0.0,0.0,0.0,0.0,0.0,0.0,0.0,0.0,0.0,0.0,0.0,0.0,0.0,0.0,0.0,0.0,0.0,0.0,0.0,0.0,0.0,0.0,0.0,0.0,0.0,0.0,0.0,0.0,0.0,0.0,0.0,0.0,0.0,0.0,0.0,0.0,0.0,0.0,0.0,0.0,0.0,0.0,0.0,0.0,0.0,0.0,0.0,0.0,0.0,0.0,0.0,0.0,0.0,0.0,0.0,0.0,0.0,0.0,0.0,0.0,0.0,0.0,0.0,0.0,0.0,-1.2515,-1.3563,-1.5507,-1.5657,-1.5939,-1.6691,-1.5765,-1.528,-1.5546,-1.4034,0.0,0.0,0.0,0.0,0.0,0.0,0.0,0.0,0.0,0.0,0.0,0.0,0.0,0.0,0.0,0.0,0.0,0.0,0.0,0.0,0.0,0.0,0.0,0.0,0.0,0.0,0.0,0.0,0.0,0.0,0.0,0.0,0.0,0.0,0.0,0.0,0.0,0.0,0.0,0.0,0.0,0.0,0.0,0.0,0.0,0.0,0.0,0.0,0.0,0.0,0.0,0.0,0.0,0.0,0.0,0.0,0.0,0.0,0.0,0.0,0.0,0.0,0.0,0.0,0.0,0.0,0.0,0.0,0.0,0.0,0.0,0.0,0.0,0.0,0.0,0.0,0.0,0.0,0.0,0.0,0.0,0.0,0.0,0.0,0.0,0.0,0.0,0.0,0.0,0.0,0.0,0.0,0.0,0.0,0.0,0.0,0.0,0.0,0.0,0.0,0.0,0.0,-1.2045,-1.2906,0.0,-1.5251,-1.5428,-1.6795,-1.652,-1.6091,-1.5735,0.0,0.0,0.0,0.0,0.0,0.0,0.0,0.0,0.0,0.0,0.0,0.0,0.0,0.0,0.0,0.0,0.0,0.0,0.0,0.0,0.0,0.0,0.0,0.0,0.0,0.0,0.0,0.0,0.0,0.0,0.0,0.0,0.0,0.0,0.0,0.0,0.0,0.0,0.0,0.0,0.0,0.0,0.0,0.0,0.0,0.0,0.0,0.0,0.0,0.0,0.0,0.0,0.0,0.0,0.0,0.0,0.0,0.0,0.0,0.0,0.0,0.0,0.0,0.0,0.0,0.0,0.0,0.0,0.0,0.0,0.0,0.0,0.0,0.0,0.0,0.0,0.0,0.0,0.0,0.0,0.0,0.0,0.0,0.0,0.0,0.0,0.0,0.0,0.0,0.0,0.0,0.0,0.0,0.0,0.0,0.0,0.0,0.0,0.0,0.0,0.0,0.0,-1.2062,-1.1996,-1.2706,0.0,-1.4994,-1.5242,-1.6359,-1.6617,-1.6422,-1.5735,0.0,0.0,0.0,0.0,0.0,0.0,0.0,0.0,0.0,0.0,0.0,0.0,0.0,0.0,0.0,0.0,0.0,0.0,0.0,0.0,0.0,0.0,0.0,0.0,0.0,0.0,0.0,0.0,0.0,0.0,0.0,0.0,0.0,0.0,0.0,0.0,0.0,0.0,0.0,0.0,0.0,0.0,0.0,0.0,0.0,0.0,0.0,0.0,0.0,0.0,0.0,0.0,0.0,0.0,0.0,0.0,0.0,0.0,0.0,0.0,0.0,0.0,0.0,0.0,0.0,0.0,0.0,0.0,0.0,0.0,0.0,0.0,0.0,0.0,0.0,0.0,0.0,0.0,0.0,0.0,0.0,0.0,0.0,0.0,0.0,0.0,0.0,0.0,0.0,0.0,0.0,0.0,0.0,0.0,0.0,0.0,0.0,0.0,0.0,0.0,0.0,0.0,-1.1928,-1.2558,-1.3222,-1.4199,-1.518,-1.5719,-1.5534,-1.6012,-1.6138,0.0,0.0,0.0,0.0,0.0,0.0,0.0,0.0,0.0,0.0,0.0,0.0,0.0,0.0,0.0,0.0,0.0,0.0,0.0,0.0,0.0,0.0,0.0,0.0,0.0,0.0,0.0,0.0,0.0,0.0,0.0,0.0,0.0,0.0,0.0,0.0,0.0,0.0,0.0,0.0,0.0,0.0,0.0,0.0,0.0,0.0,0.0,0.0,0.0,0.0,0.0,0.0,0.0,0.0,0.0,0.0,0.0,0.0,0.0,0.0,0.0,0.0,0.0,0.0,0.0,0.0,0.0,0.0,0.0,0.0,0.0,0.0,0.0,0.0,0.0,0.0,0.0,0.0,0.0,0.0,0.0,0.0,0.0,0.0,0.0,0.0,0.0,0.0,0.0,0.0,0.0,0.0,0.0,0.0,0.0,0.0,0.0,0.0,0.0,0.0,0.0,0.0,0.0,-1.1183,-1.1465,-1.2321,-1.4106,-1.4458,-1.4985,-1.6175,-1.6294,-1.6138,-1.5716,0.0,0.0,0.0,0.0,0.0,0.0,0.0,0.0,0.0,0.0,0.0,0.0,0.0,0.0,0.0,0.0,0.0,0.0,0.0,0.0,0.0,0.0,0.0,0.0,0.0,0.0,0.0,0.0,0.0,0.0,0.0,0.0,0.0,0.0,0.0,0.0,0.0,0.0,0.0,0.0,0.0,0.0,0.0,0.0,0.0,0.0,0.0,0.0,0.0,0.0,0.0,0.0,0.0,0.0,0.0,0.0,0.0,0.0,0.0,0.0,0.0,0.0,0.0,0.0,0.0,0.0,0.0,0.0,0.0,0.0,0.0,0.0,0.0,0.0,0.0,0.0,0.0,0.0,0.0,0.0,0.0,0.0,0.0,0.0,0.0,0.0,0.0,0.0,0.0,0.0,0.0,0.0,0.0,0.0,0.0,0.0,0.0,0.0,0.0,0.0,0.0,0.0,-1.0742,-1.1111,-1.1877,-1.3251,-1.3807,-1.4525,-1.5471,-1.5936,-1.5966,-1.5487,0.0,0.0,0.0,0.0,0.0,0.0,0.0,0.0,0.0,0.0,0.0,0.0,0.0,0.0,0.0,0.0,0.0,0.0,0.0,0.0,0.0,0.0,0.0,0.0,0.0,0.0,0.0,0.0,0.0,0.0,0.0,0.0,0.0,0.0,0.0,0.0,0.0,0.0,0.0,0.0,0.0,0.0,0.0,0.0,0.0,0.0,0.0,0.0,0.0,0.0,0.0,0.0,0.0,0.0,0.0,0.0,0.0,0.0,0.0,0.0,0.0,0.0,0.0,0.0,0.0,0.0,0.0,0.0,0.0,0.0,0.0,0.0,0.0,0.0,0.0,0.0,0.0,0.0,0.0,0.0,0.0,0.0,0.0,0.0,0.0,0.0,0.0,0.0,0.0,0.0,0.0,0.0,0.0,0.0,0.0,0.0,0.0,0.0,0.0,0.0,0.0,0.0,-1.0569,-1.12,-1.175,-1.209,-1.3356,-1.417,-1.4131,-1.5223,-1.5676,-1.5148,0.0,0.0,0.0,0.0,0.0,0.0,0.0,0.0,0.0,0.0,0.0,0.0,0.0,0.0,0.0,0.0,0.0,0.0,0.0,0.0,0.0,0.0,0.0,0.0,0.0,0.0,0.0,0.0,0.0,0.0,0.0,0.0,0.0,0.0,0.0,0.0,0.0,0.0,0.0,0.0,0.0,0.0,0.0,0.0,0.0,0.0,0.0,0.0,0.0,0.0,0.0,0.0,0.0,0.0,0.0,0.0,0.0,0.0,0.0,0.0,-0.6478,0.0,0.0,0.0,0.0,0.0,0.0,0.0,0.0,0.0,0.0,0.0,0.0,0.0,0.0,0.0,0.0,0.0,0.0,0.0,0.0,0.0,0.0,0.0,0.0,0.0,0.0,0.0,0.0,0.0,0.0,0.0,0.0,0.0,0.0,0.0,0.0,0.0,0.0,0.0,0.0,0.0,-1.0569,-1.0924,-1.1638,-1.2972,-1.3218,-1.3761,-1.4994,-1.5136,-1.5119,-1.5111,-1.4808,0.0,0.0,0.0,0.0,0.0,0.0,0.0,0.0,0.0,0.0,0.0,0.0,0.0,0.0,0.0,0.0,0.0,0.0,0.0,0.0,0.0,0.0,0.0,0.0,0.0,0.0,0.0,0.0,0.0,0.0,0.0,0.0,0.0,0.0,0.0,0.0,0.0,0.0,0.0,0.0,0.0,0.0,0.0,0.0,0.0,0.0,0.0,0.0,0.0,0.0,0.0,0.0,0.0,0.0,0.0,0.0,0.0,0.0,0.0,0.0,-0.6815,0.0,0.0,0.0,0.0,0.0,0.0,0.0,0.0,0.0,0.0,0.0,0.0,0.0,0.0,0.0,0.0,0.0,0.0,0.0,0.0,0.0,0.0,0.0,0.0,0.0,0.0,0.0,0.0,0.0,0.0,0.0,0.0,0.0,0.0,0.0,0.0,0.0,0.0,0.0,0.0,-1.0418,-1.0658,-1.1364,-1.2876,-1.2999,-1.3499,-1.4751,-1.4853,-1.4825,-1.4796,-1.4625,0.0,0.0,0.0,0.0,0.0,0.0,0.0,0.0,0.0,0.0,0.0,0.0,0.0,0.0,0.0,0.0,0.0,0.0,0.0,0.0,0.0,0.0,0.0,0.0,0.0,0.0,0.0,0.0,0.0,0.0,0.0,0.0,0.0,0.0,0.0,0.0,0.0,0.0,0.0,0.0,0.0,0.0,0.0,0.0,0.0,0.0,0.0,0.0,0.0,0.0,0.0,0.0,0.0,-1.0402,-1.0329,-0.9582,-0.9648,-0.9609,-0.9468,-0.8459,-0.7927,-0.771,0.0,0.0,0.0,0.0,0.0,0.0,0.0,0.0,0.0,0.0,0.0,0.0,0.0,0.0,0.0,0.0,0.0,0.0,0.0,0.0,0.0,0.0,0.0,0.0,0.0,-0.8075,-0.8599,0.0,0.0,0.0,0.0,0.0,0.0,0.0,0.0,0.0,0.0,0.0,0.0,-1.0202,-1.0501,-1.1173,-1.2383,-1.2823,-1.3348,-1.4231,-1.4556,-1.4662,-1.4504,-1.4515,-1.4515,0.0,0.0,0.0,0.0,0.0,0.0,0.0,0.0,0.0,0.0,0.0,0.0,0.0,0.0,0.0,0.0,0.0,0.0,0.0,0.0,0.0,0.0,0.0,0.0,0.0,0.0,0.0,0.0,0.0,0.0,0.0,0.0,-0.1723,-0.2662,0.0,0.0,0.0,0.0,0.0,0.0,0.0,0.0,0.0,0.0,0.0,0.0,0.0,-0.8864,-0.9163,-1.0238,-1.0767,-1.0767,-1.107,-1.115,-1.1033,-1.0852,-1.0793,-1.0751,-1.0354,0.0,-0.8838,-0.818,0.0,0.0,0.0,0.0,0.0,0.0,0.0,0.0,0.0,0.0,0.0,0.0,0.0,0.0,0.0,0.0,0.0,0.0,0.0,0.0,0.0,0.0,-0.6691,-0.7494,-0.8322,-0.8992,0.0,-0.9438,-0.9558,-0.9522,-0.9546,0.0,0.0,0.0,0.0,0.0,0.0,0.0,-0.9949,-1.0651,-1.1398,-1.2152,-1.2712,-1.3339,-1.4216,-1.4342,-1.4411,-1.4485,-1.4515,-1.4515,-1.4515,-1.4515,0.0,0.0,0.0,0.0,0.0,0.0,0.0,0.0,0.0,0.0,0.0,0.0,0.0,0.0,0.0,0.0,0.0,0.0,0.0,0.0,0.0,0.0,0.0,0.0,0.0,0.0,0.0,0.0,0.0,-0.0921,-0.1852,-0.2543,-0.3173,-0.363,0.0,0.0,0.0,0.0,0.0,0.0,0.0,0.0,0.0,-0.7304,-0.8986,-1.0153,-1.0674,-1.1287,-1.1624,-1.1624,-1.1693,-1.1741,-1.1741,-1.1673,-1.1554,-1.1375,-1.1096,-1.0393,-0.9304,-0.83,-0.7162,-0.5983,0.0,0.0,0.0,0.0,-0.4534,-0.4545,-0.4577,-0.4566,0.0,-0.4616,0.0,0.0,0.0,0.0,0.0,0.0,0.0,0.0,0.0,0.0,-0.6971,-0.7934,-0.8603,-0.9057,-0.911,-0.928,-0.9414,0.0,-0.9636,-0.969,-0.954,0.0,0.0,0.0,0.0,0.0,-0.9907,-1.0234,-1.0758,-1.154,-1.2037,-1.2704,-1.367,-1.4079,-1.4366,-1.4476,-1.4515,-1.4515,-1.4515,-1.4515,-1.4515,0.0,0.0,0.0,0.0,0.0,0.0,0.0,0.0,0.0,0.0,0.0,0.0,0.0,0.0,0.0,0.0,0.0,0.0,0.0,0.0,0.0,0.0,0.0,0.0,0.0,0.0,0.0,0.0,-0.1134,-0.2096,-0.254,-0.3547,-0.4143,0.0,0.0,0.0,0.0,0.0,0.0,-0.4901,-0.6176,-0.7355,-0.8313,-0.9528,-1.0774,-1.1973,-1.192,-1.2051,-1.2278,-1.2337,-1.2332,-1.2272,-1.2218,-1.2056,-1.1774,-1.1498,-1.0605,-0.923,-0.8317,-0.7266,-0.6158,-0.5383,-0.4908,-0.4736,-0.4736,-0.4714,-0.4701,-0.4757,-0.4768,-0.473,-0.4709,0.0,-0.4608,-0.4398,0.0,0.0,0.0,0.0,-0.4824,-0.6071,-0.6706,-0.7248,-0.8261,-0.8777,-0.9014,-0.8992,-0.9145,-0.9338,0.0,-0.9672,-0.9745,-0.9546,0.0,0.0,0.0,0.0,-0.9805,-0.9805,-0.9931,-1.0293,-1.094,-1.1646,-1.2358,-1.3108,-1.383,-1.4267,-1.4357,-1.4426,-1.4455,-1.4455,-1.4455,-1.4455,-1.4455,0.0,0.0,0.0,0.0,0.0,0.0,0.0,0.0,0.0,0.0,0.0,0.0,0.0,0.0,0.0,0.0,0.0,0.0,0.0,0.0,0.0,0.0,0.0,0.0,0.0,0.0,0.0,0.0,0.0,-0.277,-0.3834,0.0,0.0,0.0,0.0,-0.477,-0.478,-0.5001,-0.5547,-0.6586,-0.7835,-0.9275,-0.9328,-1.0453,-1.2711,-1.189,-1.1895,-1.2775,-1.2947,-1.2937,-1.277,-1.2495,-1.2264,-1.2062,-1.1785,-1.0475,-0.8574,-0.877,-0.7851,-0.6361,-0.6126,-0.5527,-0.4787,-0.4787,-0.4751,-0.469,-0.4695,-0.4621,-0.4542,-0.4654,-0.461,-0.4512,-0.4501,-0.4387,0.0,0.0,-0.4755,-0.5441,-0.6199,-0.6933,-0.7638,-0.8317,-0.8652,-0.8846,-0.899,-0.9145,-0.9338,0.0,-0.9528,-0.9534,-0.9484,0.0,-0.9516,-0.9516,-0.9528,-0.9534,-0.9534,-1.0072,-1.0473,-1.0543,-1.1849,-1.2765,-1.2826,-1.3549,-1.401,-1.401,-1.4198,-1.4297,-1.4297,-1.4297,-1.4297,-1.4297,-1.4297,0.0,0.0,0.0,0.0,0.0,0.0,0.0,0.0,0.0,0.0,0.0,0.0,0.0,0.0,0.0,0.0,0.0,0.0,0.0,0.0,0.0,0.0,0.0,0.0,0.0,0.0,0.0,0.0,-0.1792,-0.2968,0.0,-0.4344,-0.4765,-0.5044,-0.5157,-0.5406,-0.5657,-0.6032,-0.7112,-0.7979,-0.8631,-0.9349,-1.051,-1.2097,-1.1625,-1.1954,-1.298,-1.2915,-1.2894,-1.2807,-1.2678,-1.2511,-1.228,-1.2194,-1.091,-0.8906,-0.8907,-0.7695,-0.5826,-0.5694,-0.5456,-0.517,-0.5091,-0.5034,-0.5024,-0.4912,-0.4857,-0.4803,-0.4725,-0.4605,-0.449,-0.4382,-0.4333,-0.43,-0.43,-0.4464,-0.4821,-0.5507,-0.5903,-0.6396,-0.7587,-0.7917,-0.8144,-0.8732,-0.899,-0.9145,-0.9344,-0.9446,-0.9516,-0.9516,-0.9516,-0.9516,-0.9516,-0.966,-0.9709,-0.9508,-0.9856,-1.0211,-1.0473,-1.1375,-1.2197,-1.2734,-1.345,-1.392,-1.398,-1.4079,-1.4109,-1.4109,-1.4109,-1.4109,-1.4109,-1.4237,-1.4297,0.0,0.0,0.0,0.0,0.0,0.0,0.0,0.0,0.0,0.0,0.0,0.0,0.0,0.0,0.0,0.0,0.0,0.0,0.0,0.0,0.0,0.0,0.0,0.0,0.0,0.0,-0.036,-0.076,-0.2363,-0.3597,-0.4076,-0.4984,-0.5612,-0.5727,-0.5984,-0.6233,-0.6437,-0.7214,-0.7888,-0.8346,-0.8804,-0.9997,-1.1911,-1.1406,-1.1681,-1.2713,-1.2568,-1.2216,-1.1727,-1.1727,-1.1554,-1.13,-1.13,-1.0279,-0.8555,-0.8486,-0.7361,-0.5672,-0.5553,-0.5466,-0.542,-0.5339,-0.5284,-0.5224,-0.5069,-0.4952,-0.4923,-0.4755,-0.4635,-0.4553,-0.4476,-0.442,-0.442,-0.442,-0.4557,-0.4794,-0.5252,-0.5512,-0.5968,-0.7223,-0.7489,-0.7749,-0.8603,-0.8867,-0.9022,-0.9242,-0.9408,-0.9516,-0.9516,-0.9516,-0.9516,-0.9516,-0.966,-0.9709,-0.954,-0.9666,-0.9964,-1.0448,-1.1094,-1.1826,-1.2634,-1.3299,-1.3731,-1.3821,-1.389,-1.392,-1.392,-1.392,-1.392,-1.392,-1.4109,-1.4267,-1.4357,0.0,0.0,0.0,0.0,0.0,0.0,0.0,0.0,0.0,0.0,0.0,0.0,0.0,0.0,0.0,0.0,0.0,0.0,0.0,0.0,0.0,0.0,0.0,0.1296,0.0614,0.0127,0.0087,-0.2075,-0.3559,-0.3607,-0.5224,-0.6325,-0.6384,-0.6505,-0.6679,-0.6801,-0.6921,-0.7522,-0.8592,-0.7694,-0.8854,-1.225,-1.1206,-1.1018,-1.185,-1.1836,-1.106,-0.9608,-0.9608,-0.9457,-0.9192,-0.9192,-0.8577,-0.75,-0.7493,-0.6932,-0.6067,-0.5831,-0.5621,-0.5518,-0.551,-0.5474,-0.5377,-0.5108,-0.4909,-0.4787,-0.4739,-0.4698,-0.4695,-0.469,-0.469,-0.469,-0.469,-0.5059,-0.5476,-0.5476,-0.5906,-0.6548,-0.7302,-0.7466,-0.7727,-0.8608,-0.8802,-0.8899,-0.9242,-0.9408,-0.9484,-0.9484,-0.9516,-0.9516,-0.9516,-0.9516,0.0,-0.9516,-0.9516,-0.9766,-1.0453,-1.1118,-1.1795,-1.2473,-1.313,-1.3511,-1.3511,-1.367,-1.3799,-1.3799,-1.3799,-1.3799,-1.3799,-1.395,-1.4169,-1.4515,0.0,0.0,0.0,0.0,0.0,0.0,0.0,0.0,0.0,0.0,0.0,0.0,0.0,0.0,0.0,0.0,0.0,0.0,0.0,0.0,0.0,0.0,0.1343,0.1352,0.1196,0.079,0.0185,-0.1614,-0.3082,-0.3754,-0.5433,-0.6535,-0.6567,-0.6681,-0.6804,-0.6929,-0.6967,-0.7185,-0.7596,-0.7357,-0.8036,-0.9849,-0.9294,-0.9553,-1.0603,-1.0331,-1.0,-0.9608,-0.9608,-0.9579,-0.9482,-0.9482,-0.8867,-0.7843,-0.778,-0.7119,-0.6195,-0.595,-0.5836,-0.5784,-0.557,-0.5474,-0.5402,-0.5336,-0.5192,-0.5069,-0.4955,-0.4857,-0.4768,-0.4714,-0.469,-0.469,-0.469,-0.4806,-0.4923,-0.4923,-0.5036,-0.5437,-0.6593,-0.6836,-0.7172,-0.8316,-0.8705,-0.8861,-0.9049,-0.9242,-0.9376,-0.9484,-0.9516,-0.9516,-0.9516,-0.9516,0.0,-0.9516,-0.9516,-0.9945,-1.1087,-1.1392,-1.1981,-1.313,-1.3381,-1.3511,-1.3511,-1.3541,-1.3571,-1.3571,-1.3571,-1.37,-1.395,-1.4109,-1.4297,0.0,0.0,0.0,0.0,0.0,0.0,0.0,0.0,0.0,0.0,0.0,0.0,0.0,0.0,0.0,0.0,0.0,0.0,0.0,0.0,0.0,0.0,0.1632,0.1427,0.1478,0.1485,0.1269,0.0633,-0.1248,-0.2786,-0.3443,-0.5512,-0.6774,-0.6774,-0.6883,-0.698,-0.7054,-0.7111,-0.7141,-0.721,-0.721,-0.7735,-0.8825,-0.8602,-0.8818,-0.94,-0.9206,-0.8781,-0.8269,-0.8269,-0.8269,0.0,-0.8269,-0.7925,-0.7322,-0.7242,-0.6871,0.0,0.0,0.0,0.0,0.0,-0.5508,-0.5445,-0.5445,-0.5366,-0.5252,-0.5186,-0.5083,-0.4969,-0.4936,-0.4881,-0.4843,-0.4843,-0.4768,-0.4727,-0.4727,-0.4728,-0.4958,-0.5969,-0.6414,-0.6882,-0.7916,-0.8418,-0.8738,-0.8894,-0.9022,0.0,-0.9382,-0.9446,-0.9516,-0.9516,-0.9516,-0.9516,-0.9516,-0.9734,-1.032,-1.1392,-1.1764,-1.2351,-1.342,-1.3511,0.0,0.0,0.0,-1.3511,-1.3511,-1.3571,0.0,0.0,0.0,-1.4366,-1.4515,0.0,0.0,0.0,-1.2956,-1.2788,0.0,0.0,0.0,0.0,0.0,0.0,0.0,0.0,0.0,0.0,0.0,0.0,0.0,0.0,0.0,0.0,0.1401,0.1442,0.1547,0.157,0.1475,0.122,-0.0888,-0.2554,-0.2982,-0.5304,-0.6893,-0.7005,-0.7152,-0.721,-0.721,0.0,0.0,0.0,0.0,-0.7645,-0.8481,-0.8518,-0.8368,-0.819,-0.8174,-0.7544,-0.6387,-0.6387,-0.6387,-0.6387,-0.6387,-0.6387,-0.6387,-0.6387,-0.6387,-0.6365,-0.6192,-0.6032,-0.5909,-0.5795,-0.564,-0.5545,-0.5532,0.0,0.0,-0.539,-0.5306,-0.5208,-0.5208,-0.5127,-0.5037,-0.5037,-0.4909,-0.4817,-0.4817,-0.4773,-0.4907,-0.5577,-0.6213,-0.6828,-0.7498,-0.8112,-0.8587,-0.8809,-0.8819,-0.8899,-0.921,-0.9382,-0.9484,-0.9484,-0.9516,-0.9516,-0.9516,-1.0015,-1.0667,-1.1423,0.0,0.0,-1.345,-1.3511,-1.3511,-1.3511,-1.3511,-1.3511,-1.3511,-1.37,-1.389,-1.401,-1.4207,-1.4396,-1.4515,-1.369,-1.3296,-1.3304,-1.2906,-1.2725,0.0,0.0,0.0,0.0,0.0,0.0,0.0,0.0,0.0,0.0,0.0,0.0,0.0,0.0,0.0,0.1511,0.1513,0.1505,0.1281,0.1335,0.132,0.1267,-0.0429,-0.2007,-0.3037,-0.4684,-0.6123,-0.7066,-0.7196,-0.721,-0.721,-0.721,-0.721,-0.721,-0.721,-0.7265,-0.7308,-0.7203,-0.7075,-0.6921,0.0,0.0,-0.6387,-0.6387,-0.6387,-0.6387,-0.6387,-0.6387,-0.6387,-0.6387,-0.6387,-0.6373,-0.6287,-0.6159,-0.6034,-0.5915,-0.5855,-0.582,-0.5686,-0.5575,-0.5472,-0.5472,-0.5434,-0.5375,-0.5375,-0.5249,0.0,-0.5154,-0.5069,-0.4944,-0.4944,-0.4963,-0.5111,-0.5715,-0.6434,-0.717,-0.7805,-0.8407,-0.8864,-0.902,-0.8898,-0.8861,-0.9017,-0.921,-0.9376,-0.9484,-0.9516,-0.9516,-0.9516,-0.9606,-1.0168,-1.1361,-1.1602,-1.2166,-1.3411,-1.3511,-1.3511,-1.3511,-1.3511,-1.3511,-1.3511,-1.3791,-1.398,-1.401,-1.4297,-1.4476,-1.4515,-1.369,-1.3296,-1.3277,-1.258,-1.224,0.0,0.0,0.0,0.0,0.0,0.0,0.0,0.0,0.0,0.0,0.0,0.2628,0.0,0.0,0.1473,0.1519,0.1454,0.1389,0.1275,0.0997,0.0854,0.0854,-0.0436,-0.1879,-0.3258,-0.462,-0.5929,-0.7099,-0.721,-0.721,-0.721,-0.721,-0.721,-0.721,-0.721,-0.7155,-0.6986,-0.6923,-0.6801,-0.6619,-0.6556,-0.6446,-0.6387,-0.6387,-0.6387,-0.6387,-0.6387,-0.6387,-0.6387,-0.6387,-0.6387,-0.6381,-0.6374,-0.6282,-0.6162,-0.5902,-0.5773,-0.5715,-0.5615,-0.5518,-0.5465,-0.5553,-0.5516,-0.5447,-0.5429,-0.5325,-0.5175,-0.5118,-0.5061,-0.5018,-0.5018,-0.5018,-0.5079,-0.536,-0.6002,-0.67,-0.7417,-0.803,-0.855,-0.8911,-0.8931,-0.8849,-0.8884,-0.899,-0.9119,-0.9376,-0.9446,-0.9516,-0.9516,-0.9798,-1.0263,-1.0937,-1.1609,-1.2258,-1.2948,-1.3321,-1.3511,-1.3511,-1.3511,-1.3511,-1.3511,-1.3761,-1.392,-1.401,-1.4258,-1.4417,-1.4515,-1.369,-1.3296,-1.3277,-1.2478,-1.2101,0.0,0.0,0.0,0.0,0.0,0.0,0.0,0.0,0.4525,0.3625,0.2864,0.2416,0.2461,0.1965,0.1516,0.1571,0.1383,0.1204,0.1207,0.0741,0.0371,0.0318,-0.0493,-0.1623,-0.3134,-0.4364,-0.5536,-0.6765,-0.7043,-0.721,-0.721,-0.721,-0.721,-0.721,-0.721,-0.7155,-0.6986,-0.6986,-0.6874,-0.6654,-0.663,-0.6567,-0.6422,-0.6398,-0.6387,-0.6387,-0.6387,-0.6387,-0.6387,-0.6387,-0.6387,-0.6387,-0.6387,-0.6333,-0.619,-0.588,-0.5688,-0.5647,-0.5463,-0.539,-0.5355,-0.5515,-0.5533,-0.5475,-0.54,-0.5292,-0.5227,-0.5089,-0.505,-0.5045,-0.5023,-0.5018,-0.5018,-0.5018,-0.5472,-0.6177,-0.6992,-0.7657,-0.8261,-0.8901,-0.896,-0.8869,-0.8843,-0.8803,-0.8926,-0.9242,-0.9376,-0.9478,-0.9484,-0.9983,-1.0364,-1.0485,-1.1469,-1.2235,-1.2481,-1.31,-1.3511,-1.3511,-1.3511,-1.3511,-1.3511,-1.37,-1.386,-1.395,-1.4139,-1.4297,-1.4455,-1.3634,-1.3259,-1.3277,-1.2478,-1.2101,0.6272,0.5608,0.4711,0.3632,0.3622,0.3502,0.0,0.0,0.2773,0.1921,0.1678,0.1663,0.17,0.1658,0.1573,0.1607,0.136,0.111,0.0863,0.0567,0.0313,0.0052,-0.0054,-0.0616,-0.1903,-0.3078,-0.4308,-0.5536,-0.6596,-0.721,-0.721,-0.721,-0.721,-0.721,-0.721,-0.7155,-0.6986,-0.6986,-0.6915,-0.6782,-0.6671,-0.6611,-0.6594,-0.6435,-0.6387,-0.6387,-0.6387,-0.6387,-0.6387,-0.6387,-0.6387,-0.6387,-0.6387,-0.6232,-0.6011,-0.5897,-0.5894,-0.5807,-0.5327,-0.516,-0.5137,-0.5086,-0.5225,-0.5375,-0.5259,-0.5347,-0.5419,-0.5233,-0.5167,-0.5143,-0.5045,-0.5018,-0.5018,-0.5018,-0.558,-0.6405,-0.7283,-0.7891,-0.8522,-0.9357,-0.9192,-0.889,-0.8896,-0.8849,-0.8926,-0.9242,-0.9306,-0.9376,-0.9484,-0.9574,-0.983,-1.0428,-1.0643,-1.1226,-1.2389,-1.31,-1.3511,-1.3511,-1.3511,-1.3511,-1.3511,-1.37,-1.3799,-1.383,-1.395,-1.4139,-1.4327,-1.3456,-1.3123,-1.3277,-1.2478,-1.2101,0.4928,0.4428,0.0,0.0,0.2554,0.2581,0.1595,0.1887,0.2102,0.1288,0.1206,0.1318,0.1344,0.1348,0.1352,0.0,0.101,0.071,0.0564,0.0362,0.0104,0.0,0.0,-0.0492,-0.1708,-0.2261,-0.3321,-0.5256,-0.5873,-0.6485,-0.7154,-0.721,-0.721,-0.721,-0.721,-0.7188,-0.7139,-0.7139,-0.7024,-0.6907,-0.6858,-0.6757,-0.6619,-0.6564,-0.6454,-0.6387,-0.6387,-0.6387,-0.6387,-0.6387,-0.6387,-0.6387,-0.6387,-0.6239,-0.5987,-0.5787,-0.5591,-0.5339,-0.517,-0.4999,-0.4901,-0.5006,-0.5105,-0.5171,-0.519,-0.5244,-0.5326,-0.5214,-0.5186,-0.5159,-0.5048,-0.5018,-0.5018,-0.5018,-0.5249,-0.586,-0.7195,-0.7668,-0.8183,-0.938,-0.9333,-0.9052,-0.8922,-0.8733,-0.8705,-0.8958,-0.9177,-0.9306,-0.9376,-0.9446,-0.9766,-1.0421,-1.0485,-1.0881,-1.1826,-1.2543,-1.2917,-1.2917,-1.329,-1.3511,-1.3511,-1.3571,-1.367,-1.3799,-1.386,-1.395,-1.413,-1.3277,-1.2968,-1.3095,-1.235,-1.2026,0.4222,0.0,0.0,0.1948,0.1653,0.1662,0.1412,0.1568,0.1545,0.0936,0.094,0.1093,0.1108,0.1111,0.0,0.1111,0.0758,0.0507,0.0514,0.0361,0.0207,0.021,0.021,-0.0106,-0.1021,-0.1513,-0.2509,-0.4272,-0.5,-0.5788,-0.6652,-0.7043,-0.721,-0.721,-0.721,-0.721,-0.721,-0.721,-0.7169,-0.7032,-0.6999,-0.6874,-0.6668,-0.66,-0.647,-0.6387,-0.6387,-0.6387,-0.6387,-0.6387,-0.6387,-0.6387,-0.6337,-0.6139,-0.5839,-0.5586,-0.5295,-0.503,-0.4999,-0.4823,-0.4697,-0.4847,-0.4892,-0.4947,-0.4973,-0.5091,-0.5155,-0.5141,-0.5157,-0.5138,-0.5098,-0.5067,-0.5026,-0.5056,-0.504,-0.5479,-0.7119,-0.7502,-0.7922,-0.9406,-0.9475,-0.9233,-0.903,-0.8764,-0.8619,-0.8716,-0.8958,-0.921,-0.9306,-0.9414,-0.967,-1.0174,-1.039,-1.0699,-1.118,-1.202,-1.2512,-1.2512,-1.313,-1.3511,-1.3511,-1.3511,-1.3571,-1.37,-1.3731,-1.3747,-1.3791,-1.3083,-1.2777,-1.2797,-1.2167,-1.1952,0.0,0.0,0.3371,0.1972,0.1172,0.0767,0.083,0.0833,0.0838,0.0804,0.0808,0.0808,0.0808,0.0808,0.0808,0.0808,0.0808,0.0808,0.0809,0.0758,0.0758,0.0759,0.0759,0.0764,0.0,-0.0791,-0.1822,-0.1908,-0.4092,-0.5444,-0.5479,-0.6541,-0.721,-0.721,-0.721,-0.721,-0.721,-0.721,-0.721,-0.7202,-0.7037,-0.6918,-0.6787,-0.6551,-0.6389,-0.6387,-0.6387,-0.6387,-0.6387,-0.6387,-0.6387,-0.6387,-0.6089,-0.5839,-0.5586,-0.5288,-0.5186,-0.5155,-0.4731,-0.4619,-0.4583,-0.4406,-0.4482,-0.4685,-0.4541,-0.475,-0.5007,-0.5012,-0.4996,-0.5077,-0.5319,-0.5189,-0.5045,-0.5156,-0.5097,-0.5479,-0.7119,-0.7502,-0.7957,-0.9566,-0.9723,-0.9486,-0.9238,-0.9007,-0.8809,-0.8549,-0.8673,-0.8931,-0.9242,-0.9414,-0.9516,-0.9516,-1.011,-1.0516,-1.0516,-1.1741,-1.2512,-1.2512,-1.313,-1.3511,-1.3511,-1.3511,-1.3511,-1.3511,-1.3511,-1.3429,-1.3229,-1.2811,-1.2509,-1.2316,-1.2025,-1.1902,0.0,0.0,0.2144,0.0864,0.0391,0.0248,0.025,0.025,0.0251,0.0252,0.111,0.1663,0.0909,0.1362,0.1613,0.0909,0.0657,0.0556,0.0556,0.0707,0.0808,0.0808,0.0808,0.0,0.0,0.0,0.0,-0.1471,-0.2976,-0.4335,-0.5369,-0.6541,-0.721,-0.721,-0.721,-0.721,-0.721,-0.721,-0.721,-0.721,-0.7037,-0.6921,-0.6796,-0.6632,-0.6462,-0.6387,-0.6387,-0.6387,-0.6387,-0.6387,-0.6387,-0.6387,-0.6287,-0.5987,-0.5584,-0.5486,-0.5198,-0.4841,-0.4732,-0.4545,-0.4389,-0.4389,-0.4435,-0.4509,-0.4596,-0.4723,-0.4851,-0.4868,-0.4979,-0.5129,-0.5142,-0.5129,-0.5137,-0.5178,-0.5099,-0.5479,-0.7119,-0.7502,-0.7961,-0.9576,-0.9733,-0.9497,-0.9249,-0.9046,-0.8819,-0.8549,-0.8673,-0.8867,-0.9081,-0.9247,-0.9376,-0.9376,-0.9632,-0.983,-0.983,-1.1055,-1.1826,-1.1826,-1.2887,-1.3511,-1.3511,-1.3511,-1.3511,-1.3511,-1.3511,-1.3369,-1.3067,-1.267,-1.2337,-1.2079,-1.1788,-1.1728,0.0,0.2258,0.1522,0.0297,0.0,0.0101,0.0505,0.0555,0.0555,0.0555,0.1753,0.2447,0.141,0.1854,0.2099,0.136,0.0858,0.0556,0.0556,0.0758,0.096,0.1061,0.1118,0.0,0.0,0.0,0.0,-0.0487,-0.2032,-0.3446,-0.4529,-0.6151,-0.7099,-0.721,-0.721,-0.721,-0.721,-0.721,-0.721,-0.721,-0.7037,-0.6921,-0.6798,-0.6676,-0.6551,-0.6387,-0.6387,-0.6387,-0.6387,-0.6387,-0.6387,-0.6387,-0.6289,-0.6037,-0.5737,-0.5539,-0.5178,-0.4848,-0.472,-0.4522,-0.4353,-0.4377,-0.4342,-0.4375,-0.4497,-0.4568,-0.4637,-0.4735,-0.4843,-0.4978,-0.5125,-0.5129,-0.5143,-0.5265,-0.5195,-0.5426,-0.6826,-0.7088,-0.7502,-0.9155,-0.935,-0.9291,-0.9342,-0.9111,-0.8819,-0.8549,-0.8608,-0.8738,-0.8894,-0.9081,-0.921,-0.9306,-0.9376,-0.9446,-0.9484,-1.0503,-1.1149,-1.1149,-1.2174,-1.2879,-1.313,-1.313,-1.326,-1.3511,-1.3511,-1.3262,-1.2794,-1.2546,-1.2186,-1.1766,-1.1591,-1.1594,0.2438,0.1767,0.143,0.0302,0.0051,0.0353,0.1361,0.1612,0.1661,0.1661,0.2624,0.3189,0.0,0.0,0.2267,0.2055,0.136,0.0808,0.0808,0.1061,0.1314,0.0,0.0,0.0,0.0,0.0,0.0,0.0963,0.0,-0.2751,-0.3073,-0.5312,-0.6768,-0.7154,-0.721,-0.721,-0.721,-0.721,-0.721,-0.721,-0.7046,-0.6931,-0.6806,-0.6684,-0.6562,-0.6395,-0.6389,-0.6387,-0.6387,-0.6387,-0.6387,-0.6387,-0.6139,-0.5992,-0.5942,-0.5391,-0.5178,-0.503,-0.4699,-0.4512,-0.4374,-0.4328,-0.4302,-0.4306,-0.43,-0.4302,-0.435,-0.4616,-0.4592,-0.4628,-0.5211,-0.5168,-0.5076,-0.5395,-0.5321,-0.5428,-0.6227,-0.631,-0.67,-0.8313,-0.8656,-0.8849,-0.9416,-0.9174,-0.8819,-0.8549,-0.8517,-0.8582,-0.877,-0.8894,-0.9049,-0.9242,-0.9274,-0.9338,-0.9484,-1.011,-1.0485,-1.0485,-1.1125,-1.1795,-1.2412,-1.2451,-1.2757,-1.339,-1.3411,-1.3046,-1.2306,-1.2306,-1.1923,-1.1217,-1.1368,-1.1444,0.1842,0.1052,0.0401,0.0101,0.0606,0.1261,0.1563,0.2143,0.2663,0.2663,0.3783,0.4407,0.0,0.0,0.0,0.256,0.1699,0.0,0.1111,0.1314,0.0,0.0,0.0,0.1714,0.1714,0.1769,0.0,0.0,0.0,-0.1503,-0.2739,-0.4416,-0.5815,-0.6768,-0.7046,-0.721,-0.721,-0.721,-0.721,-0.721,-0.718,-0.7106,-0.6934,-0.6812,-0.6687,-0.6567,-0.6425,-0.6387,-0.6387,-0.6387,-0.6387,-0.6387,-0.6337,-0.6189,-0.5942,-0.5639,-0.5325,-0.503,-0.4699,-0.4512,-0.4374,-0.4328,-0.4344,-0.4342,-0.432,-0.4346,-0.4385,-0.4408,-0.4508,-0.4674,-0.4832,-0.5005,-0.5167,-0.5239,-0.5238,-0.5428,-0.6227,-0.631,-0.6507,-0.7579,-0.8112,-0.8392,-0.8408,-0.8676,-0.8819,-0.8549,-0.8517,-0.8511,-0.8582,-0.8738,-0.8867,-0.8926,-0.9017,-0.9145,-0.9338,-0.9964,-1.0376,-1.0485,-1.1125,-1.1578,-1.1764,-1.1764,-1.1826,-1.2012,-1.2012,-1.1691,-1.1071,-1.1071,-1.0719,-1.0028,-1.0472,-1.0735,0.1763,0.1513,0.1412,0.1412,0.1865,0.2413,0.2841,0.3354,0.371,0.3678,0.48,0.0,0.0,0.0,0.0,0.0,0.0,0.0,0.1211,0.1314,0.1465,0.0,0.1654,0.0,0.1681,0.1735,0.1825,0.0,0.0557,-0.0672,-0.1622,-0.3466,-0.4866,-0.5704,-0.6543,-0.7043,-0.721,-0.721,-0.721,-0.721,-0.721,-0.715,-0.698,-0.6858,-0.6736,-0.6611,0.0,-0.6387,-0.6387,-0.6387,-0.6337,-0.6239,-0.6239,-0.6039,-0.5789,-0.5539,-0.5304,-0.5089,-0.4712,-0.4538,-0.4473,-0.4342,-0.4334,-0.4365,-0.4314,-0.4334,-0.4365,-0.4314,-0.4389,-0.4569,-0.4661,-0.484,-0.5015,-0.51,-0.5059,-0.5143,-0.5676,-0.5646,-0.5815,-0.6738,-0.7492,-0.7973,-0.798,-0.8294,-0.8492,-0.85,-0.8517,-0.8517,-0.8517,-0.8614,-0.8705,-0.8802,-0.8867,-0.899,-0.9145,-0.9588,-0.9907,-0.9977,-1.0376,-1.0748,-1.1062,-1.1062,-1.1212,-1.1478,-1.1516,-1.1209,-1.0587,-1.0587,-1.025,-0.9614,-1.0138,-1.0454,0.1975,0.2368,0.3224,0.3224,0.3324,0.3657,0.4522,0.4776,0.4829,0.4686,0.0,0.0,0.5449,0.0,0.4364,0.4231,0.0,0.1333,0.1255,0.1261,0.1364,0.1566,0.1669,0.1704,0.1704,0.1759,0.1795,0.1795,0.0841,0.0056,-0.0336,-0.2518,-0.4083,-0.4695,-0.5984,-0.6771,-0.7102,-0.7099,-0.7154,-0.7154,-0.7154,-0.7158,-0.7005,-0.6883,-0.676,-0.6635,0.0,0.0,-0.6387,-0.6387,-0.6189,-0.5992,-0.5942,-0.5789,-0.5586,-0.529,-0.519,-0.5166,-0.4745,-0.4631,-0.459,-0.4359,-0.43,-0.43,-0.43,-0.43,-0.43,-0.43,-0.43,-0.4344,-0.4569,-0.4661,-0.475,-0.4924,-0.482,-0.4762,-0.4959,-0.4862,-0.501,-0.5857,-0.6738,-0.7388,-0.7642,-0.7863,-0.8072,-0.832,-0.8447,-0.8517,-0.8517,-0.8517,-0.8582,-0.8738,-0.877,-0.8835,-0.8958,-0.9145,-0.9242,-0.9274,-0.9408,-0.9734,-1.0326,-1.0358,-1.0636,-1.1205,-1.1236,-1.0936,-1.0358,-1.0358,-1.0001,-0.938,-1.001,-1.0293,0.1925,0.2368,0.3224,0.3224,0.3879,0.456,0.4669,0.5201,0.0,0.0,0.0,0.606,0.5911,0.5413,0.0,0.4217,0.0,0.0,0.0,0.0,0.1566,0.0,0.0,0.0,0.0,0.0,0.0,0.0,0.0,0.1009,0.0,-0.1622,-0.3578,-0.5935,-0.6216,-0.6386,-0.6442,-0.6659,-0.6768,-0.6768,-0.7046,-0.7199,-0.7177,-0.7008,-0.6885,-0.6763,-0.6641,0.0,-0.6387,-0.6139,-0.6042,-0.5992,-0.5737,-0.5636,-0.5586,-0.529,-0.519,-0.5175,-0.482,-0.4634,-0.459,-0.4359,-0.43,-0.43,-0.43,-0.43,-0.43,-0.43,-0.43,-0.43,-0.4344,-0.4525,-0.4705,-0.475,-0.4747,-0.481,-0.4979,-0.4985,-0.5015,-0.5168,-0.586,-0.6373,-0.6136,-0.7149,-0.7933,-0.772,-0.8149,-0.8517,-0.8517,-0.8517,-0.8517,-0.8544,-0.8544,-0.8646,-0.8835,-0.8867,-0.8926,-0.9049,-0.9242,-0.9402,-0.9498,-0.96,-0.9734,-0.9856,-0.9856,-0.9581,-0.9026,-0.9026,-0.8745,-0.8215,-0.9249,-0.9744,0.3442,0.4026,0.4878,0.4878,0.5246,0.5532,0.5473,0.0,0.0,0.0,0.0,0.6162,0.6162,0.0,0.0,0.0,0.0,0.0,0.0,0.0,0.0,0.0,0.0,0.0,0.0,0.0,0.0,0.0,0.0,0.157,0.0953,-0.0951,-0.3244,-0.5935,-0.6049,-0.6105,-0.6274,-0.6439,-0.6495,-0.6495,-0.6659,-0.6715,-0.6712,-0.66,-0.6488,-0.6371,-0.6256,0.0,-0.5984,-0.5839,-0.5689,-0.5591,-0.5438,-0.5286,-0.5186,-0.5037,-0.4987,-0.4974,-0.4788,-0.4649,-0.4551,-0.4414,-0.4338,-0.43,-0.43,-0.43,-0.43,-0.43,-0.43,-0.43,-0.43,-0.4389,-0.448,-0.448,-0.45,-0.4538,-0.4566,-0.4741,-0.4859,-0.4859,-0.5243,-0.5619,-0.5669,-0.6297,-0.6954,-0.7419,-0.7787,-0.8117,-0.8452,-0.8517,-0.8517,-0.8517,-0.8517,-0.8549,-0.8641,-0.8738,-0.8835,-0.8894,-0.9049,-0.9145,-0.9145,-0.9312,-0.9408,-0.9408,-0.9446,-0.9251,-0.871,-0.871,-0.8439,-0.7928,-0.8784,-0.9197,0.493,0.5617,0.6419,0.6392,0.6369,0.6252,0.6053,0.6,0.0,0.0,0.6043,0.6198,0.6198,0.0,0.0,0.0,0.0,0.0,0.0,0.0,0.0,0.0,0.0,0.0,0.0,0.0,0.0,0.0,0.0,0.0,0.1402,-0.0616,-0.291,-0.5262,-0.5599,-0.5824,-0.6107,-0.6163,-0.6216,-0.6216,-0.6274,-0.6274,-0.6272,-0.6165,-0.6055,-0.6004,-0.5841,0.0,0.0,-0.5536,-0.5388,-0.519,-0.514,-0.4987,-0.4784,-0.4784,-0.4784,-0.4774,-0.4759,-0.4663,-0.4561,-0.4487,-0.4389,-0.43,-0.43,-0.43,-0.43,-0.43,-0.43,-0.43,-0.43,-0.43,-0.43,-0.43,-0.429,-0.4303,-0.4231,-0.444,-0.4621,-0.4621,-0.4779,-0.5054,-0.5346,-0.5584,-0.6011,-0.6887,-0.7158,-0.7521,-0.8182,-0.8284,-0.8349,-0.8479,-0.8517,-0.8517,-0.8517,-0.8641,-0.8738,-0.8738,-0.8861,-0.8952,-0.8952,-0.9145,-0.9274,-0.9306,-0.9408,-0.9214,-0.871,-0.871,-0.8439,-0.7928,-0.8521,-0.8804,0.5261,0.5774,0.6575,0.6414,0.6379,0.6257,0.582,0.0,0.0,0.0,0.5762,0.5941,0.5941,0.5967,0.5817,0.0,0.0,0.0,0.0,0.0,0.0,0.0,0.0,0.0,0.0,0.0,0.0,0.0,0.0,0.0,0.0224,-0.1064,-0.2407,-0.3748,-0.4873,-0.5437,-0.5493,-0.5712,-0.5822,-0.5822,-0.6161,-0.6274,-0.6272,-0.6165,-0.6055,-0.6004,-0.5841,0.0,0.0,-0.5338,-0.524,-0.519,-0.4937,-0.4834,-0.4784,-0.4784,-0.4784,-0.4782,-0.4776,-0.4712,-0.4619,-0.4563,-0.4442,-0.43,-0.43,-0.43,-0.43,-0.43,-0.43,-0.43,-0.43,-0.43,-0.43,-0.43,-0.429,-0.4277,-0.4312,-0.4364,-0.4423,-0.4423,-0.4582,-0.4668,-0.4478,-0.512,-0.5659,-0.5519,-0.6067,-0.6761,-0.7489,-0.7587,-0.7819,-0.8447,-0.8517,-0.8517,-0.8517,-0.8511,-0.8517,-0.8517,-0.8705,-0.8835,-0.8835,-0.8958,-0.9113,-0.9306,-0.9306,-0.9115,-0.871,-0.871,-0.8439,-0.7928,-0.8521,-0.8804,0.5887,0.6054,0.6304,0.6328,0.6225,0.6067,0.6019,0.0,0.0,0.5885,0.6005,0.6141,0.6141,0.6188,0.6136,0.0,0.0,0.0,0.0,0.0,0.0,0.0,0.0,0.0,0.0,0.0,0.0,0.0,0.0,0.0,0.1121,-0.0728,-0.2351,-0.358,-0.4761,-0.5382,-0.5382,-0.5491,-0.5547,-0.5547,-0.5717,-0.5772,-0.5768,-0.5615,-0.5517,-0.5472,-0.5376,0.0,0.0,-0.4987,-0.4937,-0.4937,-0.4834,-0.4784,-0.4784,-0.4784,-0.4784,-0.4776,-0.4777,-0.4677,-0.461,-0.4508,-0.4404,-0.43,-0.43,-0.43,-0.43,-0.43,-0.43,-0.43,-0.43,-0.43,-0.43,-0.43,-0.4206,-0.4116,-0.4116,-0.4174,-0.4233,-0.4233,-0.4387,-0.4474,-0.4335,-0.462,-0.4959,-0.5256,-0.554,-0.6001,-0.6728,-0.6826,-0.7125,-0.7819,-0.8252,-0.8517,-0.8517,-0.8517,-0.8517,-0.8517,-0.8576,-0.8608,-0.8608,-0.8802,-0.8926,-0.899,-0.9081,-0.8902,-0.8457,-0.854,-0.8297,-0.7783,-0.8103,-0.8262,0.637,0.6254,0.6151,0.6251,0.6056,0.5922,0.0,0.0,0.6027,0.6051,0.6175,0.63,0.63,0.63,0.6334,0.0,0.0,0.0,0.0,0.0,0.0,0.0,0.0,0.0,0.0,0.0,0.0,0.0,0.0,0.0,0.0,-0.0496,-0.2161,-0.3021,-0.4592,-0.5382,-0.5382,-0.5382,-0.5382,-0.5382,-0.5355,-0.5341,-0.5337,-0.5218,-0.5128,-0.5063,0.0,0.0,0.0,-0.4784,-0.4784,-0.4784,-0.4784,-0.4784,-0.4784,-0.4784,-0.4784,-0.4776,-0.4767,-0.4669,-0.4561,-0.4496,-0.4395,-0.4304,-0.4332,-0.4338,-0.4334,-0.4306,-0.43,-0.43,-0.43,-0.43,-0.43,-0.43,-0.4165,-0.3994,-0.3994,-0.4014,-0.3999,-0.3999,-0.4192,-0.4282,-0.4186,-0.4225,-0.4433,-0.4858,-0.4951,-0.5279,-0.5968,-0.6067,-0.6367,-0.7092,-0.7587,-0.8052,-0.8452,-0.8517,-0.8517,-0.8517,-0.8517,-0.8517,-0.8517,-0.8641,-0.8738,-0.8802,-0.8894,-0.8714,-0.8286,-0.8398,-0.816,-0.7649,-0.7788,-0.7869,0.6534,0.6457,0.6287,0.6119,0.5994,0.5857,0.0,0.0,0.5999,0.5921,0.6103,0.63,0.63,0.63,0.63,0.6303,0.0,0.0,0.0,0.0,0.0,0.0,0.0,0.0,0.0,0.0,0.0,0.0,0.0,0.0,0.0,-0.0479,-0.1729,-0.1789,-0.4145,-0.5382,-0.5382,-0.5382,-0.5382,-0.538,-0.529,-0.519,-0.5184,-0.5057,-0.5025,0.0,0.0,0.0,0.0,-0.4784,-0.4784,-0.4784,-0.4784,-0.4784,-0.4784,-0.4784,-0.4784,-0.4784,-0.4782,-0.472,-0.4621,-0.4619,-0.4447,-0.4316,-0.436,-0.4388,-0.437,-0.4324,-0.43,-0.43,-0.43,-0.43,-0.43,-0.43,-0.4165,-0.3994,-0.3994,-0.3891,-0.3802,-0.3802,-0.396,-0.4056,-0.3853,-0.4077,-0.4222,-0.403,-0.4197,-0.4561,-0.5209,-0.5309,-0.5606,-0.633,-0.6433,-0.6994,-0.8382,-0.8517,-0.8517,-0.8517,-0.8517,-0.8517,-0.8517,-0.8517,-0.8614,-0.8802,-0.8802,-0.8626,-0.8286,-0.8286,-0.8023,-0.7494,-0.7643,-0.7783,0.613,0.6027,0.5843,0.5708,0.5629,0.5595,0.5692,0.5679,0.5687,0.5863,0.598,0.6099,0.6261,0.63,0.633,0.6429,0.6525,0.0,0.0,0.0,0.0,0.0,0.0,0.0,0.0,0.0,0.0,0.0,0.0,0.0,0.0,-0.0479,-0.171,-0.1729,-0.4002,-0.5194,-0.5194,-0.5194,-0.5194,-0.5194,-0.5165,-0.5151,-0.5147,-0.5026,0.0,0.0,0.0,0.0,0.0,-0.4784,-0.4784,-0.4784,-0.4784,-0.4784,-0.4784,-0.4784,-0.4784,-0.4776,-0.4769,-0.4671,-0.4561,-0.45,-0.4438,-0.4352,-0.438,-0.4388,-0.4382,-0.4354,-0.4346,-0.43,-0.43,-0.43,-0.43,-0.43,-0.4165,-0.3994,-0.3994,-0.3891,-0.3802,-0.3802,-0.3843,-0.3861,-0.3816,-0.3892,-0.3968,-0.3994,-0.4061,-0.4231,-0.4561,-0.4628,-0.4888,-0.5573,-0.5639,-0.6231,-0.7689,-0.7819,-0.8019,-0.8484,-0.8517,-0.8517,-0.8517,-0.8517,-0.8517,-0.8582,-0.8582,-0.8374,-0.7954,-0.8062,-0.7897,-0.7494,-0.7542,-0.7601,0.0,0.5769,0.5644,0.5506,0.539,0.0,0.0,0.5534,0.5498,0.5844,0.5902,0.598,0.6261,0.63,0.6327,0.6419,0.6477,0.0,0.0,0.0,0.0,0.0,0.0,0.0,0.0,0.0,0.0,0.0,0.0,0.0,0.0,-0.0469,-0.1668,-0.1668,-0.3909,-0.5108,-0.5108,-0.5108,-0.5108,-0.5108,-0.5073,-0.5057,-0.5053,-0.4961,0.0,0.0,0.0,0.0,0.0,-0.4784,-0.4784,-0.4784,-0.4784,-0.4784,-0.4784,-0.4784,-0.4784,-0.4776,-0.4775,-0.4675,-0.4569,-0.4547,-0.4491,-0.4485,-0.4498,-0.4463,-0.4388,-0.4388,-0.4369,-0.43,-0.43,-0.43,-0.43,-0.43,-0.4165,-0.3994,-0.3994,-0.3891,-0.3802,-0.3802,-0.3802,-0.3793,-0.3717,-0.3771,-0.3801,-0.3844,-0.3919,-0.4028,-0.4164,-0.4267,-0.4464,-0.4888,-0.4918,-0.5411,-0.6564,-0.719,-0.7787,-0.8452,-0.8517,-0.8517,-0.8517,-0.8517,-0.8517,-0.8517,-0.8517,-0.828,-0.7801,-0.7699,-0.7572,-0.7419,-0.7419,-0.744,0.0,0.0,0.0,0.0,0.0,0.0,0.0,0.5368,0.0,0.5786,0.5864,0.5983,0.6261,0.63,0.6303,0.6313,0.6426,0.0,0.0,0.0,0.0,0.0,0.0,0.0,0.0,0.0,0.0,0.0,0.0,0.0,0.0,-0.0454,-0.1613,-0.1613,-0.3854,-0.509,-0.509,-0.509,-0.509,-0.5088,-0.5002,-0.4963,-0.4959,-0.4873,0.0,0.0,0.0,0.0,0.0,-0.4784,-0.4784,-0.4784,-0.4784,-0.4784,-0.4784,-0.4784,-0.4784,-0.4782,-0.4776,-0.4718,-0.4596,-0.4681,-0.4704,-0.4683,-0.4598,-0.4512,-0.4396,-0.439,-0.4369,-0.43,-0.43,-0.43,-0.43,-0.43,-0.4165,-0.3994,-0.3994,-0.3891,-0.3802,-0.3802,-0.3802,-0.3773,-0.3642,-0.3704,-0.3756,-0.3615,-0.3798,-0.3969,-0.3997,-0.4164,-0.43,-0.43,-0.43,-0.4561,-0.5243,-0.6564,-0.7657,-0.8382,-0.8414,-0.8447,-0.8484,-0.8517,-0.8517,-0.8517,-0.8479,-0.8248,-0.7801,-0.7316,-0.7171,-0.729,-0.729,-0.7365,0.5424,0.0,0.5534,0.5179,0.0,0.0,0.0,0.0,0.0,0.0,0.0,0.0,0.0,0.63,0.6334,0.6446,0.0,0.0,0.0,0.0,0.0,0.0,0.0,0.0,0.0,0.0,0.0,0.0,0.0,0.0,0.0,-0.0454,-0.1613,-0.1613,-0.3709,-0.4847,-0.4847,-0.4847,-0.4847,-0.4847,-0.4877,-0.4867,-0.4867,-0.4794,0.0,0.0,0.0,0.0,-0.4784,-0.4784,-0.4784,-0.4784,-0.4784,-0.4784,-0.4784,-0.4784,-0.4784,-0.4774,-0.4761,-0.471,-0.4679,-0.4702,-0.4661,-0.46,-0.4627,-0.4557,-0.4526,-0.4408,-0.4369,-0.43,-0.43,-0.43,-0.43,-0.43,-0.4165,-0.3994,-0.3994,-0.3891,-0.3802,-0.3802,-0.3802,-0.3773,-0.3642,-0.3607,-0.365,-0.3589,-0.365,-0.378,-0.3971,-0.4028,-0.4131,-0.43,-0.43,-0.4561,-0.5243,-0.5606,-0.6367,-0.7657,-0.7722,-0.7954,-0.8479,-0.8517,-0.8517,-0.8517,-0.8156,-0.7914,-0.7801,-0.7316,-0.7112,-0.7144,-0.7144,-0.7166,0.5297,0.5389,0.5521,0.5093,0.5018,0.5018,0.0,0.0,0.0,0.0,0.0,0.0,0.0,0.0,0.0,0.0,0.0,0.0,0.0,0.0,0.0,0.0,0.0,0.0,0.0,0.0,0.0,0.0,0.0,0.0,0.0,0.005,-0.1109,-0.1563,-0.3224,-0.428,-0.4784,-0.4784,-0.4784,-0.4784,-0.4784,-0.4784,-0.4784,-0.4784,-0.4784,0.0,0.0,0.0,-0.4784,-0.4784,-0.4784,-0.4784,-0.4784,-0.4784,-0.478,-0.4742,-0.4752,-0.4772,-0.4738,-0.4734,-0.4753,-0.4671,-0.464,-0.462,-0.4534,-0.451,-0.4489,-0.4398,-0.4336,-0.43,-0.43,-0.43,-0.4289,-0.4251,-0.4136,-0.3982,-0.3942,-0.3863,-0.3802,-0.3802,-0.3802,-0.3785,-0.3697,-0.3622,-0.3571,-0.3543,-0.3559,-0.3621,-0.3737,-0.3861,-0.3961,-0.4131,-0.4164,-0.4361,-0.4788,-0.4855,-0.5448,-0.6896,-0.6994,-0.7321,-0.8019,-0.7722,-0.7684,-0.8052,-0.789,-0.7801,-0.7801,-0.7316,-0.7112,-0.7112,-0.7112,-0.7112,0.5294,0.5377,0.5497,0.509,0.5018,0.5018,0.0,0.0,0.0,0.0,0.0,0.0,0.0,0.0,0.0,0.0,0.0,0.0,0.0,0.0,0.0,0.0,0.0,0.0,0.0,0.0,0.0,0.0,0.0,0.0,0.0,0.0404,-0.0655,-0.1563,-0.2821,-0.3879,-0.4784,-0.4784,-0.4784,-0.4784,-0.4784,-0.4784,-0.4784,-0.4784,-0.4784,0.0,0.0,0.0,-0.4782,-0.477,-0.4772,-0.478,-0.4756,-0.476,-0.4774,-0.4741,-0.4763,-0.4774,-0.4753,-0.4767,-0.479,-0.4643,-0.4636,-0.4657,-0.4441,-0.438,-0.4352,-0.432,-0.43,-0.43,-0.43,-0.43,-0.4277,-0.4237,-0.4102,-0.3968,-0.392,-0.3828,-0.3802,-0.3802,-0.3802,-0.3798,-0.3783,-0.363,-0.3526,-0.3485,-0.35,-0.3497,-0.3502,-0.3661,-0.3792,-0.3961,-0.3995,-0.4064,-0.4233,-0.4267,-0.4794,-0.6005,-0.617,-0.6564,-0.7293,-0.6728,-0.6695,-0.7326,-0.7449,-0.7559,-0.7617,-0.7097,-0.69,-0.6972,-0.6972,-0.6918,0.5269,0.5304,0.5377,0.5068,0.5018,0.5018,0.0,0.0,0.0,0.0,0.0,0.0,0.0,0.0,0.0,0.0,0.0,0.0,0.0,0.0,0.0,0.0,0.0,0.0,0.0,0.0,0.0,0.0,0.0,0.0,0.0,-0.0303,-0.1412,-0.1613,-0.3525,-0.4634,-0.4784,-0.4784,-0.4784,-0.4784,-0.4784,-0.4784,-0.4784,-0.4784,-0.4784,-0.4784,0.0,-0.4784,-0.4778,-0.4757,-0.4771,-0.477,-0.4671,-0.4704,-0.4774,-0.4741,-0.4763,-0.4782,-0.477,-0.4777,-0.4724,-0.4696,-0.4645,-0.4573,-0.4467,-0.4381,-0.4316,-0.4304,-0.43,-0.43,-0.43,-0.43,-0.4277,-0.4237,-0.4102,-0.3968,-0.392,-0.3828,-0.3802,-0.3802,-0.3802,-0.3777,-0.3661,-0.3689,-0.3684,-0.3453,-0.3463,-0.3509,-0.3486,-0.3531,-0.3629,-0.3825,-0.3928,-0.4028,-0.4028,-0.4197,-0.44,-0.4597,-0.515,-0.5804,-0.6531,-0.6465,-0.6465,-0.6564,-0.6392,-0.648,-0.6858,-0.6125,-0.5964,-0.6344,-0.6344,-0.6073,0.5176,0.5183,0.5132,0.4429,0.4305,0.4343,0.0,0.0,0.0,0.0,0.0,0.0,0.0,0.0,0.0,0.0,0.0,0.0,0.0,0.0,0.0,0.0,0.0,0.0,0.0,0.0,0.0,0.0,0.0,0.0,0.0,0.0,-0.005,-0.136,-0.2365,-0.3472,-0.4784,-0.4784,-0.4784,-0.4784,-0.4784,-0.4784,-0.4784,-0.4784,-0.4784,-0.4784,0.0,-0.4784,-0.478,-0.4742,-0.475,-0.4776,-0.4745,-0.4763,-0.478,-0.474,-0.4773,-0.4773,-0.4768,-0.4779,-0.47,-0.4651,-0.4573,-0.4481,-0.4389,-0.4332,-0.43,-0.43,-0.43,-0.43,-0.43,-0.43,-0.4265,-0.413,-0.4025,-0.3956,-0.3857,-0.3833,-0.3802,-0.3802,-0.3802,-0.3773,-0.3642,-0.3624,-0.36,-0.3424,-0.3356,-0.3322,-0.3339,-0.3328,-0.3429,-0.3629,-0.3696,-0.3763,-0.3892,-0.3961,-0.4097,-0.43,-0.4918,-0.5279,-0.5253,-0.6005,-0.6199,-0.5804,-0.5937,-0.6095,-0.6318,-0.5767,-0.562,-0.5815,-0.5739,-0.555,0.5161,0.5105,0.4961,0.0,0.0,0.0,0.0,0.0,0.0,0.0,0.0,0.0,0.0,0.0,0.0,0.0,0.0,0.0,0.0,0.0,0.0,0.0,0.0,0.0,0.0,0.0,0.0,0.0,0.0,0.0,0.0,0.0,0.1108,-0.0956,-0.1258,-0.2364,-0.4384,-0.4533,-0.4684,-0.4784,-0.4784,-0.4784,-0.4784,-0.4784,-0.4784,-0.4784,-0.4784,-0.4784,-0.4782,-0.4764,-0.4766,-0.478,-0.479,-0.4785,-0.4758,-0.4776,-0.4744,-0.4747,-0.4762,-0.4779,-0.4694,-0.4602,-0.451,-0.4372,-0.4326,-0.43,-0.43,-0.43,-0.43,-0.43,-0.43,-0.4283,-0.423,-0.4031,-0.3978,-0.3959,-0.3837,-0.3802,-0.3802,-0.3802,-0.3802,-0.3767,-0.3616,-0.3558,-0.3485,-0.3387,-0.3289,-0.325,-0.3196,-0.3192,-0.3261,-0.3397,-0.3464,-0.3596,-0.3792,-0.3792,-0.3925,-0.4164,-0.4722,-0.4821,-0.4334,-0.5352,-0.5646,-0.5084,-0.5431,-0.564,-0.5691,-0.5287,-0.513,-0.5168,-0.5065,-0.493,0.5336,0.5142,0.4976,0.4856,0.0,0.0,0.0,0.0,0.0,0.0,0.0,0.0,0.0,0.0,0.0,0.0,0.0,0.0,0.0,0.0,0.0,0.0,0.0,0.0,0.0,0.0,0.0,0.0,0.0,0.0,0.0,0.0,0.0,-0.0453,-0.1409,-0.2367,-0.3331,-0.3831,-0.4284,-0.4784,-0.4784,-0.4784,-0.4784,-0.4784,-0.4784,-0.4784,-0.4784,-0.4784,-0.4778,-0.4749,-0.4765,-0.4768,-0.4655,-0.4643,-0.4728,-0.4756,-0.478,-0.4776,-0.4782,-0.4779,-0.4694,-0.4602,-0.451,-0.4372,-0.4326,-0.43,-0.43,-0.43,-0.43,-0.43,-0.43,-0.424,-0.4157,-0.4017,-0.3971,-0.3883,-0.3824,-0.3802,-0.3802,-0.3802,-0.3802,-0.3748,-0.3538,-0.3569,-0.3493,-0.3241,-0.3303,-0.3356,-0.3204,-0.3192,-0.3192,-0.3226,-0.3395,-0.3596,-0.3792,-0.3792,-0.3825,-0.3825,-0.4164,-0.4364,-0.43,-0.44,-0.4434,-0.4367,-0.4389,-0.4555,-0.4801,-0.4218,-0.403,-0.421,-0.4201,-0.3846,0.509,0.4633,0.4185,0.3911,0.0,0.0,0.0,0.0,0.0,0.0,0.0,0.0,0.0,0.0,0.0,0.0,0.0,0.0,0.0,0.0,0.0,0.0,0.0,0.0,0.0,0.0,0.0,0.0,0.0,0.0,0.0,0.0,0.0,-0.0101,-0.0554,-0.1562,-0.318,-0.338,-0.3581,-0.3831,-0.4483,-0.4784,-0.4784,-0.4784,-0.4784,-0.4784,-0.4784,-0.4784,-0.4782,-0.475,-0.4756,-0.4778,-0.4761,-0.4757,-0.474,-0.4772,-0.4784,-0.4776,-0.4775,-0.4698,-0.461,-0.4516,-0.4424,-0.4344,-0.431,-0.43,-0.43,-0.43,-0.4261,-0.422,-0.422,-0.4241,-0.4134,-0.3987,-0.3924,-0.3875,-0.3822,-0.3802,-0.3645,-0.3096,-0.2979,-0.278,-0.2166,-0.2089,-0.2203,-0.2543,-0.2609,-0.2786,-0.3163,-0.3192,-0.3192,-0.3192,-0.3261,-0.3328,-0.3426,-0.3527,-0.3629,-0.3629,-0.393,-0.4064,-0.3995,-0.4197,-0.4197,-0.3995,-0.4064,-0.4138,-0.4153,-0.3828,-0.3721,-0.3791,-0.3689,-0.3507,0.4758,0.4225,0.3674,0.0,0.0,0.0,0.0,0.0,0.0,0.0,0.0,0.0,0.0,0.0,0.0,0.0,0.0,0.0,0.0,0.0,0.0,0.0,0.0,0.0,0.0,0.0,0.0,0.0,0.0,0.0,0.0,0.0,0.0,0.0,0.035,-0.06,-0.2301,-0.2751,-0.2951,-0.2951,-0.3847,-0.4309,-0.4284,-0.4284,-0.4383,-0.4533,-0.4533,-0.4634,-0.4784,-0.4784,-0.4784,-0.4784,-0.4784,-0.4784,-0.4784,-0.4784,-0.4768,-0.4785,-0.4728,-0.463,-0.4518,-0.4408,-0.4373,-0.43,-0.43,-0.43,-0.4293,-0.4267,-0.4218,-0.4202,-0.4102,-0.4087,-0.4055,-0.3928,-0.3877,-0.3798,-0.3463,-0.3372,-0.3137,-0.2273,-0.2117,-0.193,-0.132,-0.1199,-0.1357,-0.1793,-0.1846,-0.2115,-0.2787,-0.2889,-0.2956,-0.3192,-0.3192,-0.3192,-0.3192,-0.3328,-0.3395,-0.3395,-0.3696,-0.3828,-0.3792,-0.4028,-0.4028,-0.3792,-0.3892,-0.3861,-0.3694,-0.3626,-0.3512,-0.3446,-0.3344,-0.3256,0.4386,0.4056,0.0,0.0,0.0,0.0,0.0,0.0,0.0,0.0,0.0,0.0,0.0,0.0,0.0,0.0,0.0,0.0,0.0,0.0,0.0,0.0,0.0,0.0,0.0,0.0,0.0,0.0,0.0,0.0,0.0,0.0,0.0,0.0,0.1126,0.0343,-0.0393,-0.1715,-0.2401,-0.2402,-0.2942,-0.3172,-0.318,-0.318,-0.3481,-0.3982,-0.3982,-0.4284,-0.4784,-0.4784,-0.4784,-0.4784,-0.4784,-0.4784,-0.4784,-0.4784,-0.4781,-0.4708,-0.4708,-0.4587,-0.4388,-0.4388,-0.4373,-0.43,-0.43,-0.4297,-0.4279,-0.4239,-0.4214,-0.4128,-0.3946,-0.3897,-0.3897,-0.3897,-0.3828,-0.3528,-0.2668,-0.247,-0.2235,-0.145,-0.1293,-0.1273,-0.1173,-0.1163,-0.1142,-0.1084,-0.1076,-0.1344,-0.2114,-0.2214,-0.245,-0.3125,-0.3192,-0.3192,-0.3192,-0.3192,-0.3192,-0.3192,-0.3395,-0.3596,-0.3792,-0.3792,-0.3792,-0.3792,-0.3792,-0.3694,-0.3498,-0.3498,-0.3348,-0.3091,-0.3091,-0.3076,0.4824,0.0,0.0,0.0,0.0,0.0,0.0,0.0,0.0,0.0,0.0,0.0,0.0,0.0,0.0,0.0,0.0,0.0,0.0,0.0,0.0,0.0,0.0,0.0,0.0,0.0,0.0,0.0,0.0,0.0,0.0,0.0,0.0,0.0,0.106,0.0325,-0.0471,-0.1318,-0.1754,-0.1779,-0.1924,-0.2447,-0.318,-0.318,-0.3281,-0.3482,-0.3831,-0.4083,-0.4284,-0.4634,-0.4784,-0.4784,-0.4784,-0.4784,-0.4784,-0.4784,-0.4781,-0.47,-0.4634,-0.4534,-0.4378,-0.4359,-0.432,-0.43,-0.43,-0.4257,-0.4206,-0.4225,-0.4081,-0.3843,-0.3175,-0.2967,-0.2934,-0.2934,-0.2483,-0.1959,-0.1724,-0.1646,-0.141,-0.0548,-0.0387,-0.0189,0.0403,0.0466,0.0245,-0.0237,-0.0336,-0.0772,-0.2047,-0.2619,-0.2989,-0.3192,-0.3192,-0.3192,-0.3192,-0.3192,-0.3192,-0.3192,-0.3261,-0.3326,-0.336,-0.3658,-0.3658,-0.3393,-0.3529,-0.3496,-0.3295,-0.3295,-0.3247,-0.3185,-0.3185,-0.3138,0.4861,0.0,0.0,0.0,0.0,0.0,0.0,0.0,0.0,0.0,0.0,0.0,0.0,0.0,0.0,0.0,0.0,0.0,0.0,0.0,0.0,0.0,0.0,0.0,0.0,0.0,0.0,0.0,0.0,0.0,0.0,0.0,0.0,0.0,0.1226,0.0639,0.0462,-0.0833,-0.135,-0.1083,-0.1366,-0.1868,-0.2517,-0.2517,-0.2676,-0.2944,-0.364,-0.3971,-0.3992,-0.4534,-0.473,-0.473,-0.473,-0.473,-0.473,-0.473,-0.4675,-0.4591,-0.4536,-0.4457,-0.4373,-0.4316,-0.43,-0.4293,-0.4259,-0.4214,-0.4202,-0.4085,-0.3733,-0.3239,-0.2688,-0.2019,-0.1607,-0.196,-0.1646,-0.1214,-0.0862,-0.0784,-0.0509,0.0353,0.05,0.0639,0.1099,0.1141,0.0937,0.0506,-0.0067,-0.0873,-0.2047,-0.2787,-0.3192,-0.3192,-0.3192,-0.3192,-0.3192,-0.3192,-0.3192,-0.3192,-0.3192,-0.3192,-0.3192,-0.3426,-0.346,-0.3192,-0.3328,-0.3328,-0.3192,-0.3192,-0.3192,-0.3192,-0.3192,-0.3164,0.0,0.0,0.0,0.0,0.0,0.0,0.0,0.0,0.0,0.0,0.0,0.0,0.0,0.0,0.0,0.0,0.0,0.0,0.0,0.0,0.0,0.0,0.0,0.0,0.0,0.0,0.0,0.0,0.0,0.0,0.0,0.0,0.0,0.2975,0.1513,0.1056,0.1795,-0.0414,-0.1151,0.0,-0.1154,-0.1491,-0.1471,-0.1476,-0.1829,-0.2445,-0.3421,-0.3871,-0.3949,-0.4429,-0.4621,-0.4573,-0.4571,-0.4571,-0.4573,-0.4571,-0.4467,-0.4388,-0.4388,-0.4375,-0.43,-0.43,-0.4293,-0.4273,-0.4239,-0.4204,-0.4114,-0.3864,-0.3201,-0.2535,-0.2326,-0.1136,-0.0196,-0.0901,-0.1058,-0.0862,-0.0039,0.0118,0.0352,0.1135,0.1228,0.1198,0.1204,0.1137,0.1108,0.1113,-0.0101,-0.1276,-0.2013,-0.2686,-0.3125,-0.3192,-0.3192,-0.3192,-0.3192,-0.3192,-0.3192,-0.3192,-0.3192,-0.3192,-0.3192,-0.3192,-0.3192,-0.3192,-0.3192,-0.3192,-0.3192,-0.3192,-0.3192,-0.3192,-0.3192,-0.3192,0.0,0.0,0.0,0.0,0.0,0.0,0.0,0.0,0.0,0.0,0.0,0.0,0.0,0.0,0.0,0.0,0.0,0.0,0.0,0.0,0.0,0.0,0.0,0.0,0.0,0.0,0.0,0.0,0.0,0.0,0.0,0.0,0.0,0.2747,0.1416,0.0779,0.088,-0.0661,-0.1332,0.0,-0.1355,-0.1403,-0.1411,-0.1457,-0.1815,-0.2348,-0.2923,-0.344,-0.3949,-0.4429,-0.4621,-0.4571,-0.4189,-0.4284,-0.4571,-0.4188,-0.4184,-0.4388,-0.4388,-0.4375,-0.43,-0.43,-0.4255,-0.4241,-0.4222,-0.4073,-0.3825,-0.3092,-0.2724,-0.2209,-0.0902,-0.0274,0.0118,0.0628,0.0746,0.0785,0.0982,0.1021,0.1054,0.1188,0.1197,0.1166,0.1136,0.1106,0.1083,0.1111,0.0336,-0.0504,-0.1243,-0.1981,-0.2619,-0.3159,-0.3192,-0.3192,-0.3192,-0.3192,-0.3192,-0.3192,-0.3192,-0.3192,-0.3192,-0.3192,-0.3192,-0.3192,-0.3192,-0.3192,-0.3192,-0.3192,-0.3192,-0.3192,-0.3192,-0.3192,0.0,0.0,0.0,0.0,0.0,0.0,0.0,0.0,0.0,0.0,0.0,0.0,0.0,0.0,0.0,0.0,0.0,0.0,0.0,0.0,0.0,0.0,0.0,0.0,0.0,0.0,0.0,0.0,0.0,0.0,0.0,0.3159,0.2962,0.303,0.1854,0.1221,0.1191,0.0132,-0.0576,-0.0942,-0.0942,-0.1076,-0.1392,-0.1483,-0.1636,-0.1899,-0.2386,-0.2803,-0.3101,-0.361,-0.3793,-0.3747,-0.3514,-0.3701,-0.4073,-0.3841,-0.3998,-0.4371,-0.4371,-0.4338,-0.43,-0.43,-0.4242,-0.4208,-0.412,-0.3631,-0.3036,-0.2681,-0.1898,-0.0979,-0.0196,0.0313,0.0746,0.1178,0.1296,0.1296,0.1296,0.1296,0.1287,0.1217,0.1187,0.1193,0.1126,0.1096,0.0975,0.0638,0.0235,-0.0269,-0.1008,-0.1745,-0.2348,-0.2686,-0.3023,-0.3192,-0.3192,-0.3192,-0.3192,-0.3192,-0.3192,-0.3192,-0.3192,-0.3192,-0.3192,-0.3192,-0.3192,-0.3192,-0.3192,-0.3192,-0.3192,-0.3192,-0.3192,-0.3192,0.0,0.0,0.0,0.0,0.0,0.0,0.0,0.0,0.0,0.0,0.0,0.0,0.0,0.0,0.0,0.0,0.0,0.0,0.0,0.0,0.0,0.0,0.0,0.0,0.0,0.0,0.0,0.0,0.0,0.0,0.4014,0.3637,0.3418,0.3364,0.2416,0.1822,0.1785,0.1071,0.0402,-0.0224,-0.0313,-0.0758,-0.1383,-0.1448,-0.145,-0.1437,-0.1965,-0.219,-0.2243,-0.2689,-0.2911,-0.2911,-0.2823,-0.3048,-0.3497,-0.3497,-0.3764,-0.421,-0.4253,-0.43,-0.4297,-0.4281,-0.4174,-0.4001,-0.3787,-0.2999,-0.2167,-0.201,-0.0862,0.0313,0.0274,0.0785,0.1296,0.1296,0.1296,0.1296,0.1296,0.1292,0.1279,0.121,0.1175,0.1178,0.1117,0.1093,0.0908,0.0269,0.0202,-0.0067,-0.0807,-0.1443,-0.1879,-0.2013,-0.2619,-0.3023,-0.3023,-0.3125,-0.3192,-0.3192,-0.3192,-0.3192,-0.3192,-0.3192,-0.3192,-0.3192,-0.3192,-0.3192,-0.3192,-0.3192,-0.3192,-0.3192,-0.3192,-0.3192,0.0,0.0,0.0,0.0,0.0,0.0,0.0,0.0,0.0,0.0,0.0,0.0,0.0,0.0,0.0,0.0,0.0,0.0,0.0,0.0,0.0,0.0,0.0,0.0,0.0,0.0,0.0,0.0,0.0,0.0,0.4416,0.4031,0.3669,0.333,0.2537,0.2009,0.1701,0.1003,0.0572,0.0538,-0.0044,-0.0698,-0.1395,-0.1332,-0.1348,-0.1436,-0.198,-0.2205,-0.2243,-0.2689,-0.2911,-0.2868,-0.2466,-0.2601,-0.3002,-0.3002,-0.327,-0.3765,-0.4166,-0.43,-0.4287,-0.4214,-0.3912,-0.3402,-0.2707,-0.2125,-0.1416,-0.0157,0.0235,0.047,0.1178,0.1335,0.1296,0.1296,0.1296,0.1296,0.1296,0.1236,0.1209,0.1215,0.1162,0.112,0.1116,0.1112,0.1076,0.0975,0.0941,0.0672,-0.0067,-0.0235,-0.0538,-0.1176,-0.1913,-0.2348,-0.2348,-0.2855,-0.3192,-0.3192,-0.3192,-0.3192,-0.3192,-0.3192,-0.3192,-0.3192,-0.3192,-0.3192,-0.3192,-0.3192,-0.3192,-0.3192,-0.3192,-0.3192,0.0,0.0,0.0,0.0,0.0,0.0,0.0,0.0,0.0,0.0,0.0,0.0,0.0,0.0,0.0,0.0,0.0,0.0,0.0,0.0,0.0,0.0,0.0,0.0,0.0,0.0,0.0,0.0,0.0,0.4567,0.4772,0.4234,0.3836,0.3626,0.2879,0.2195,0.1663,0.1748,0.1596,0.1233,0.0172,-0.0515,-0.0781,-0.1148,-0.1328,-0.141,-0.1631,-0.173,-0.1748,-0.1991,-0.207,-0.2026,-0.1851,-0.2027,-0.2471,-0.25,-0.2959,-0.3587,-0.3539,-0.3645,-0.3736,-0.3134,-0.2714,-0.2343,-0.1666,-0.0877,-0.0078,0.0431,0.0979,0.1412,0.1571,0.1533,0.1454,0.1335,0.1283,0.1232,0.1232,0.1221,0.1198,0.1151,0.1106,0.1109,0.121,0.121,0.1244,0.1379,0.1379,0.1277,0.0941,0.0538,0.0168,-0.0168,-0.0838,-0.1307,-0.141,-0.208,-0.2517,-0.2619,-0.2989,-0.3192,-0.3192,-0.3192,-0.3192,-0.3192,-0.3192,-0.3192,-0.3192,-0.3192,-0.3192,-0.3192,-0.3192,-0.3192,0.0,0.0,0.0,0.0,0.0,0.0,0.0,0.0,0.0,0.0,0.0,0.0,0.0,0.0,0.0,0.0,0.0,0.0,0.0,0.0,0.0,0.0,0.0,0.0,0.0,0.0,0.0,0.0,0.0,0.5018,0.5018,0.4384,0.3985,0.3865,0.3195,0.2487,0.1875,0.2431,0.2326,0.1623,0.0459,-0.0125,-0.0168,-0.0909,-0.1246,-0.1145,-0.1329,-0.1392,-0.1367,-0.1388,-0.1384,-0.1389,-0.1382,-0.1605,-0.1929,-0.2115,-0.2623,-0.3178,-0.2787,-0.2845,-0.2946,-0.1924,-0.1459,-0.1176,-0.0563,0.0318,0.1097,0.1097,0.1607,0.2118,0.1846,0.1729,0.1648,0.1481,0.1382,0.1321,0.1192,0.1189,0.1173,0.1155,0.1159,0.121,0.1344,0.1379,0.1412,0.158,0.1614,0.1614,0.1614,0.1109,0.0773,0.0773,0.0168,-0.0302,-0.047,-0.1141,-0.1609,-0.1743,-0.2248,-0.2517,-0.2517,-0.2753,-0.2855,-0.2855,-0.2922,-0.3023,-0.3192,-0.3192,-0.3192,-0.3192,-0.3192,-0.3192,0.0,0.0,0.0,0.0,0.0,0.0,0.0,0.0,0.0,0.0,0.0,0.0,0.0,0.0,0.0,0.0,0.0,0.0,0.0,0.0,0.0,0.0,0.0,0.0,0.0,0.0,0.0,0.0,0.0,0.5018,0.5018,0.4589,0.4199,0.381,0.3345,0.2907,0.2564,0.2664,0.2289,0.1508,0.0996,0.0623,0.0343,-0.0724,-0.0926,-0.0475,-0.1076,-0.1309,-0.131,-0.1309,-0.1323,-0.1387,-0.1318,-0.134,-0.1471,-0.1927,-0.2167,-0.2231,-0.1965,-0.1919,-0.1851,-0.1113,-0.0568,-0.004,0.0592,0.1176,0.1685,0.2235,0.2314,0.2196,0.2156,0.2042,0.1876,0.1794,0.1782,0.1645,0.1209,0.1091,0.1151,0.1254,0.1279,0.1344,0.1547,0.158,0.158,0.1614,0.1614,0.1614,0.1614,0.158,0.1547,0.1547,0.0874,0.0437,0.0437,-0.0201,-0.0569,-0.0603,-0.0636,-0.0636,-0.0636,-0.1508,-0.1978,-0.1978,-0.2147,-0.2551,-0.3192,-0.3192,-0.3192,-0.3192,-0.3192,-0.3192,0.0,0.0,0.0,0.0,0.0,0.0,0.0,0.0,0.0,0.0,0.0,0.0,0.0,0.0,0.0,0.0,0.0,0.0,0.0,0.0,0.0,0.0,0.0,0.0,0.0,0.0,0.0,0.0,0.0,0.0,0.5012,0.4621,0.4229,0.3802,0.3336,0.2917,0.2542,0.2526,0.2367,0.2143,0.1489,0.1165,0.1059,0.0223,-0.0074,0.0112,-0.0114,-0.0638,-0.1304,-0.1286,-0.1325,-0.1333,-0.1323,-0.1302,-0.129,-0.1099,-0.1274,-0.1503,-0.0633,-0.0538,-0.065,0.0365,0.0803,0.1109,0.1729,0.2038,0.2235,0.2431,0.2431,0.2353,0.2235,0.2134,0.1976,0.1785,0.1731,0.1679,0.148,0.1434,0.1429,0.1482,0.148,0.1547,0.1749,0.1783,0.185,0.1951,0.1985,0.1985,0.1985,0.1985,0.1985,0.1985,0.1749,0.1547,0.1412,0.0739,0.0268,0.0134,-0.0268,-0.0502,-0.0502,-0.0837,-0.1005,-0.1005,-0.1072,-0.1811,-0.3192,-0.2753,-0.2787,-0.3192,-0.2753,-0.2551,0.0,0.0,0.0,0.0,0.0,0.0,0.0,0.0,0.0,0.0,0.0,0.0,0.0,0.0,0.0,0.0,0.0,0.0,0.0,0.0,0.0,0.0,0.0,0.0,0.0,0.0,0.0,0.0,0.0,0.0,0.489,0.4548,0.408,0.3567,0.3139,0.2774,0.248,0.244,0.2382,0.2382,0.1719,0.1518,0.1713,0.083,0.0539,0.0684,0.0472,-0.0114,-0.0964,-0.079,-0.0829,-0.0993,-0.0788,-0.0724,-0.0664,-0.0245,-0.0371,-0.0545,0.0495,0.0647,0.0516,0.1521,0.1867,0.196,0.2392,0.2511,0.2511,0.2511,0.2511,0.2466,0.229,0.2196,0.2089,0.191,0.188,0.1858,0.1824,0.1681,0.1614,0.1681,0.1715,0.1749,0.1951,0.1985,0.2052,0.2188,0.2188,0.2188,0.2188,0.2188,0.2188,0.2188,0.2188,0.2154,0.2018,0.1547,0.121,0.1076,0.0638,0.0402,0.0402,0.0101,-0.0067,-0.0067,-0.0134,-0.0871,-0.2281,-0.1844,-0.1844,-0.2281,-0.1844,-0.1642,0.0,0.0,0.0,0.0,0.0,0.0,0.0,0.0,0.0,0.0,0.0,0.0,0.0,0.0,0.0,0.0,0.0,0.0,0.0,0.0,0.0,0.0,0.0,0.0,0.0,0.0,0.0,0.0,0.0,0.472,0.469,0.436,0.3859,0.3134,0.2704,0.248,0.2382,0.2382,0.2324,0.2209,0.1683,0.1692,0.2155,0.1038,0.0841,0.1298,0.072,0.0146,-0.0291,0.0182,0.0111,-0.034,0.0184,0.0419,0.0403,0.0501,0.0515,0.0625,0.1354,0.1591,0.1614,0.2289,0.2507,0.2507,0.2507,0.2507,0.2508,0.251,0.251,0.2493,0.2431,0.2293,0.2209,0.2208,0.2198,0.2188,0.2188,0.1884,0.1681,0.1884,0.1918,0.1985,0.2154,0.2188,0.2188,0.2188,0.2188,0.2188,0.2188,0.2188,0.2188,0.2188,0.2188,0.2188,0.2188,0.2188,0.2188,0.2188,0.2188,0.2188,0.2188,0.1311,0.084,0.084,0.0638,0.0235,-0.0435,-0.0469,-0.0469,-0.0502,-0.0469,-0.0469,0.6875,0.0,0.0,0.0,0.0,0.0,0.0,0.0,0.0,0.0,0.0,0.0,0.0,0.0,0.0,0.0,0.0,0.0,0.0,0.0,0.0,0.0,0.0,0.0,0.0,0.0,0.0,0.0,0.4906,0.5021,0.472,0.4062,0.3497,0.3056,0.2636,0.2436,0.2382,0.2382,0.2324,0.2209,0.2034,0.2039,0.2189,0.187,0.1823,0.1931,0.1839,0.1459,0.0948,0.0546,0.0329,0.0184,0.0329,0.0415,0.0553,0.1034,0.1201,0.1236,0.2009,0.222,0.2197,0.2373,0.2444,0.2444,0.2444,0.2444,0.2454,0.2497,0.2478,0.2383,0.2283,0.2233,0.2198,0.2189,0.22,0.2188,0.2188,0.212,0.2052,0.212,0.212,0.212,0.2188,0.2188,0.2188,0.2188,0.2188,0.2188,0.2188,0.2188,0.2188,0.2188,0.2188,0.2188,0.2188,0.2188,0.2188,0.2188,0.2188,0.2188,0.2188,0.1951,0.1817,0.1817,0.1749,0.1648,0.1444,0.0638,-0.0034,-0.0502,0.0,0.0571,0.0,0.0,0.0,0.0,0.0,0.0,0.0,0.6387,0.0,0.0,0.0,0.0,0.0,0.0,0.0,0.0,0.0,0.0,0.0,0.0,0.0,0.0,0.0,0.0,0.0,0.0,0.0,0.4931,0.5247,0.5277,0.4962,0.4326,0.3801,0.3422,0.2935,0.2634,0.2606,0.2459,0.2301,0.2209,0.2183,0.2188,0.2189,0.2191,0.2186,0.2212,0.2246,0.2094,0.1787,0.1386,0.105,0.0825,0.1076,0.1169,0.1273,0.1661,0.1789,0.1827,0.2285,0.2377,0.2347,0.2347,0.2347,0.2347,0.2347,0.2347,0.2355,0.2389,0.2356,0.2295,0.2226,0.2191,0.2198,0.2196,0.2188,0.2188,0.2188,0.2421,0.252,0.2255,0.2188,0.2188,0.2188,0.2188,0.2188,0.2188,0.2188,0.2188,0.2188,0.2188,0.2188,0.2188,0.2188,0.2188,0.2188,0.2188,0.2188,0.2188,0.2188,0.2188,0.2188,0.2188,0.2188,0.2188,0.2188,0.2188,0.2188,0.1547,0.1008,0.0637,0.1041,0.1513,0.0,0.0,0.0,0.0,0.0,0.0,0.6387,0.6387,0.6387,0.0,0.0,0.0,0.0,0.0,0.0,0.0,0.0,0.0,0.0,0.0,0.0,0.0,0.0,0.0,0.0,0.5326,0.5455,0.5583,0.5617,0.551,0.5274,0.4832,0.4367,0.3948,0.33,0.2932,0.2901,0.2519,0.2272,0.22,0.2194,0.2204,0.2199,0.2204,0.2207,0.2229,0.2236,0.2269,0.2319,0.2319,0.1989,0.1549,0.2042,0.222,0.222,0.222,0.2253,0.2299,0.2299,0.2299,0.2297,0.2291,0.2289,0.2289,0.2289,0.2289,0.2289,0.2289,0.225,0.2208,0.2201,0.2195,0.2188,0.2188,0.2255,0.2321,0.2321,0.2854,0.3151,0.2554,0.2421,0.2421,0.2421,0.2354,0.2321,0.2321,0.2255,0.2188,0.2188,0.2188,0.2188,0.2188,0.2188,0.2188,0.2188,0.2188,0.2188,0.2188,0.2188,0.2188,0.2188,0.2188,0.2188,0.2188,0.2188,0.2188,0.2188,0.2188,0.2188,0.2188,0.2188,0.2188,0.0,0.0,0.0,0.0,0.0,0.0,0.6387,0.6387,0.6387,0.0,0.0,0.0,0.0,0.0,0.0,0.0,0.0,0.0,0.0,0.0,0.0,0.0,0.0,0.0,0.0,0.562,0.5583,0.5583,0.5617,0.5462,0.5162,0.466,0.4075,0.3455,0.305,0.2838,0.2822,0.2538,0.2326,0.2207,0.2259,0.224,0.2194,0.2242,0.2295,0.2351,0.2437,0.2466,0.2476,0.2476,0.2338,0.2137,0.2245,0.2281,0.2281,0.2281,0.2288,0.2299,0.2299,0.2299,0.2291,0.2242,0.2226,0.2226,0.2226,0.2226,0.2226,0.2226,0.2218,0.2198,0.2184,0.2197,0.2188,0.2188,0.2621,0.3017,0.3017,0.3585,0.4054,0.392,0.3887,0.3887,0.3887,0.3384,0.3017,0.3017,0.2554,0.2188,0.2188,0.2188,0.2188,0.2188,0.2188,0.2188,0.2188,0.2188,0.2188,0.2188,0.2188,0.2188,0.2188,0.2188,0.2188,0.2188,0.2188,0.2188,0.2188,0.2188,0.2188,0.2188,0.2188,0.2188,0.0,0.0,0.0,0.6387,0.0,0.0,0.0,0.7195,0.7456,0.0,0.0,0.0,0.0,0.0,0.0,0.0,0.0,0.0,0.0,0.0,0.0,0.0,0.0,0.0,0.0,0.6115,0.6083,0.6247,0.6178,0.6046,0.5752,0.5087,0.4417,0.3835,0.3161,0.28,0.28,0.2481,0.2252,0.2199,0.223,0.2229,0.22,0.223,0.2293,0.2342,0.2373,0.2456,0.2511,0.2511,0.2476,0.2382,0.2352,0.2323,0.2296,0.2265,0.2255,0.225,0.2255,0.2245,0.224,0.2208,0.2199,0.2199,0.2199,0.2199,0.2199,0.2199,0.2199,0.2192,0.2196,0.2453,0.2621,0.2287,0.2987,0.3651,0.3282,0.4082,0.4848,0.4848,0.5117,0.5117,0.442,0.3984,0.3751,0.3751,0.3453,0.3121,0.2753,0.2686,0.2587,0.2221,0.2188,0.2188,0.2188,0.2188,0.2188,0.2188,0.2188,0.2188,0.2188,0.2188,0.2188,0.2188,0.2188,0.2188,0.2188,0.2188,0.2188,0.2188,0.2188,0.2188,0.0,0.0,0.0,0.0,0.0,0.7521,0.0,0.0,0.0,0.0,0.0,0.0,0.0,0.0,0.0,0.0,0.0,0.0,0.0,0.0,0.0,0.0,0.0,0.0,0.0,0.6515,0.6581,0.6843,0.6778,0.6609,0.635,0.5653,0.5054,0.4553,0.353,0.2986,0.2986,0.2551,0.2273,0.2191,0.229,0.2273,0.2206,0.2206,0.2237,0.2315,0.2315,0.2374,0.2511,0.2511,0.2511,0.2506,0.2456,0.2364,0.231,0.226,0.2229,0.2202,0.2188,0.2197,0.2188,0.2188,0.2188,0.2188,0.2188,0.2188,0.2188,0.2188,0.2287,0.2388,0.2388,0.2885,0.3284,0.2721,0.3587,0.435,0.3749,0.4646,0.558,0.558,0.6017,0.605,0.4885,0.4586,0.4519,0.4519,0.4386,0.4087,0.3482,0.3282,0.2984,0.2453,0.2287,0.2188,0.2188,0.2188,0.2188,0.2188,0.2255,0.2287,0.2287,0.2356,0.2389,0.2389,0.2389,0.2389,0.2389,0.2321,0.2255,0.2188,0.2188,0.2188,0.0,0.0,0.0,0.0,0.7428,0.0,0.0,0.0,0.0,0.0,0.0,0.0,0.0,0.0,0.0,0.0,0.0,0.0,0.0,0.0,0.0,0.0,0.0,0.0,0.0,0.0,0.6675,0.6708,0.6708,0.6544,0.6145,0.5918,0.5686,0.5448,0.4303,0.3674,0.3674,0.3042,0.2561,0.2199,0.2554,0.2545,0.22,0.22,0.2263,0.2373,0.2373,0.2448,0.2511,0.2511,0.2511,0.251,0.2503,0.2463,0.2371,0.2364,0.2297,0.2209,0.2202,0.2199,0.2188,0.2188,0.2188,0.2188,0.2188,0.2188,0.2188,0.2188,0.2619,0.3084,0.3084,0.3618,0.4154,0.4087,0.4683,0.5246,0.5176,0.5749,0.6284,0.6284,0.6354,0.6354,0.6185,0.5679,0.5279,0.5279,0.4716,0.4287,0.4187,0.3618,0.3184,0.3084,0.2554,0.2188,0.2188,0.2188,0.2188,0.2188,0.2487,0.2653,0.2653,0.2922,0.3092,0.3092,0.3092,0.3092,0.3092,0.2788,0.2487,0.2188,0.2188,0.2188,0.0,0.0,0.0,0.0,0.0,0.0,0.0,0.0,0.9716,0.0,0.0,0.0,0.0,0.0,0.0,0.0,0.0,0.0,0.0,0.0,0.0,0.0,0.0,0.0,0.0,0.0,0.0,0.0,0.0,0.6511,0.6441,0.598,0.5683,0.5617,0.4818,0.4386,0.4386,0.4097,0.3828,0.3518,0.3326,0.3065,0.2833,0.2903,0.3096,0.3359,0.3695,0.3937,0.4064,0.3482,0.3248,0.3248,0.3248,0.2919,0.2467,0.2433,0.2331,0.2256,0.2222,0.2204,0.2193,0.2195,0.2479,0.2854,0.2854,0.3093,0.3422,0.3422,0.362,0.3851,0.3851,0.4384,0.4815,0.4386,0.5246,0.6009,0.551,0.6013,0.6548,0.6416,0.6387,0.6387,0.6387,0.6181,0.598,0.598,0.5716,0.5385,0.4981,0.468,0.4314,0.3885,0.3651,0.3318,0.2818,0.2887,0.282,0.252,0.2788,0.2989,0.2989,0.3125,0.3192,0.3192,0.3192,0.3192,0.3192,0.3058,0.2922,0.2757,0.2389,0.2188,0.6387,0.0,0.0,0.0,0.0,0.0,0.0,0.0,0.0,0.0,0.0,0.0,0.0,0.0,0.0,0.0,0.0,0.0,0.0,0.0,0.0,0.0,0.0,0.0,0.0,0.0,0.0,0.6708,0.6581,0.6548,0.6741,0.621,0.5947,0.6046,0.5444,0.5113,0.5113,0.4978,0.4812,0.4577,0.4181,0.3939,0.3802,0.3906,0.4127,0.4443,0.4891,0.515,0.5229,0.453,0.4181,0.4144,0.4181,0.383,0.3242,0.3147,0.2933,0.2682,0.2632,0.2429,0.228,0.2499,0.2921,0.3352,0.3596,0.3971,0.4287,0.4287,0.4453,0.4619,0.4619,0.518,0.5609,0.5084,0.5877,0.6576,0.5943,0.6309,0.6708,0.6548,0.6552,0.6552,0.6552,0.6515,0.6482,0.6482,0.6515,0.635,0.5877,0.5642,0.5345,0.4782,0.4646,0.4312,0.3682,0.3785,0.3718,0.3418,0.3522,0.3627,0.3725,0.3594,0.3496,0.3496,0.3496,0.3496,0.3496,0.3393,0.336,0.336,0.2757,0.249,0.0,0.0,0.0,0.8134,0.0,0.0,0.0,0.0,1.0593,0.0,0.0,0.0,0.0,0.0,0.0,0.0,0.0,0.0,0.0,0.0,0.0,0.0,0.0,0.0,0.0,0.0,0.0,0.6708,0.6708,0.6741,0.6881,0.6741,0.6806,0.7134,0.6305,0.5873,0.5873,0.5474,0.511,0.4782,0.511,0.5185,0.5042,0.5042,0.5187,0.5442,0.5479,0.5409,0.5306,0.5265,0.5154,0.4963,0.519,0.5229,0.519,0.4996,0.4387,0.3659,0.3657,0.3045,0.2439,0.327,0.3426,0.3457,0.4285,0.4444,0.4287,0.4287,0.4815,0.5378,0.5378,0.6009,0.6642,0.6642,0.6778,0.6881,0.6848,0.6881,0.6881,0.6881,0.6881,0.6881,0.6881,0.6778,0.6675,0.6675,0.6811,0.6881,0.6848,0.6272,0.587,0.5837,0.5209,0.4782,0.4749,0.4749,0.4878,0.5209,0.4785,0.4691,0.502,0.4528,0.4267,0.4267,0.4267,0.4267,0.4267,0.3928,0.3792,0.3758,0.336,0.3159,0.0,0.0,0.6741,0.8134,0.0,0.0,0.0,0.0,0.0,0.0,0.0,0.0,0.0,0.0,0.0,0.0,0.0,0.0,0.0,0.0,0.0,0.0,0.0,0.0,0.0,0.0,0.0,0.6843,0.6613,0.6613,0.0,0.6848,0.6942,0.7204,0.7031,0.6961,0.6961,0.6826,0.6634,0.6371,0.6009,0.5792,0.5707,0.5913,0.6176,0.6455,0.6987,0.7186,0.7092,0.6388,0.6041,0.6002,0.6079,0.5844,0.5494,0.5419,0.5181,0.4878,0.469,0.4431,0.4242,0.4392,0.4644,0.4938,0.5222,0.5514,0.5683,0.5683,0.598,0.6276,0.6276,0.6544,0.6843,0.6843,0.6975,0.7073,0.6913,0.7012,0.7073,0.6913,0.6913,0.6913,0.6913,0.6975,0.6975,0.6843,0.6881,0.6913,0.6913,0.6712,0.6576,0.6576,0.6474,0.6141,0.5573,0.5276,0.5176,0.5309,0.5418,0.5524,0.562,0.5123,0.4827,0.4827,0.4498,0.43,0.43,0.4197,0.4131,0.4131,0.3997,0.3663,0.6387,0.6387,0.0,0.7842,0.8134,0.0,0.9588,0.0,0.0,0.0,0.0,0.0,0.0,0.0,0.0,0.0,0.0,0.0,0.0,0.9518,0.0,0.0,0.0,0.0,0.0,0.0,0.7134,0.7007,0.6749,0.6716,0.0,0.0,0.7106,0.7297,0.7423,0.7489,0.7489,0.7489,0.7423,0.7297,0.6835,0.6597,0.6642,0.6859,0.7151,0.7467,0.7977,0.8192,0.8136,0.7472,0.7122,0.7088,0.7161,0.6927,0.6577,0.65,0.6284,0.5958,0.5791,0.556,0.5362,0.5398,0.5625,0.5933,0.6019,0.6306,0.6581,0.6515,0.6646,0.6778,0.6778,0.6876,0.7007,0.7007,0.7171,0.7265,0.7138,0.7199,0.7265,0.7138,0.7106,0.7106,0.7106,0.7232,0.7237,0.704,0.7073,0.7106,0.7106,0.7106,0.7106,0.7106,0.7232,0.7064,0.6531,0.6231,0.6067,0.6067,0.6145,0.6185,0.6185,0.5653,0.5388,0.5388,0.506,0.4864,0.4864,0.4864,0.4764,0.4597,0.4597,0.4328]}]]